ECMWFNIL_925_thetae_000.txt.gz
Theta_e
319 319 318 317 317 318 318 316 314 312 311 310 309 309 308 308 308 309 309 310 312 312 311 311 311 310 308 306 304 303 302 301 301 301 300 301 304 306 307 307 306 304
318 319 318 317 317 318 318 316 314 313 312 310 310 310 309 310 311 311 309 309 309 310 311 312 312 312 310 309 306 304 303 304 304 303 302 301 302 304 306 307 306 305
318 318 318 316 317 318 318 316 315 315 313 312 312 311 311 312 312 312 311 308 307 307 311 313 312 312 311 310 307 305 307 309 309 308 306 304 303 303 304 306 307 307
318 318 318 316 316 318 318 317 316 316 315 314 313 313 312 312 313 314 312 310 307 306 308 310 312 311 311 311 308 307 309 311 311 311 309 306 304 304 303 304 306 307
318 319 318 316 316 317 318 317 317 316 316 314 314 314 313 313 313 314 313 312 309 306 306 308 311 311 310 310 310 309 309 310 311 310 309 307 306 306 305 303 304 305
318 318 318 317 316 316 317 317 316 317 316 315 315 315 314 314 314 314 314 312 311 309 308 308 310 312 311 310 311 311 310 310 311 310 308 308 308 307 306 305 304 305
318 319 319 318 317 316 317 317 317 317 317 316 316 315 315 315 315 314 314 313 313 313 312 310 310 311 312 311 311 312 311 310 310 310 309 310 310 309 307 306 306 306
319 319 319 319 318 316 316 317 317 318 317 317 316 316 316 316 316 315 315 314 315 314 314 313 312 311 311 311 310 311 311 311 311 310 310 310 311 310 308 307 307 306
320 319 320 320 319 318 318 318 318 318 318 317 317 317 316 316 317 316 316 316 316 316 315 315 315 314 313 313 312 310 311 311 311 311 310 310 311 310 309 308 308 306
321 320 320 320 319 319 320 319 319 319 319 318 317 317 317 317 317 317 316 317 316 316 317 316 317 316 315 315 315 313 312 312 312 311 311 310 310 310 310 309 309 308
320 319 319 319 320 320 320 319 319 320 320 319 318 317 317 317 317 317 317 317 317 316 317 317 317 318 317 317 317 316 315 314 312 311 311 311 310 310 309 309 309 308
320 320 320 320 319 320 320 320 321 321 321 320 319 318 318 318 318 318 317 317 318 317 317 318 318 318 318 317 317 317 316 316 314 313 312 312 311 311 310 309 309 309
322 322 322 321 320 320 320 319 320 320 321 319 318 318 319 319 319 318 318 318 318 317 317 318 318 318 318 318 318 317 316 315 315 314 313 313 312 312 311 309 309 309
321 323 323 322 321 321 321 320 320 320 320 320 318 318 319 319 319 319 319 319 318 318 318 318 318 318 317 317 317 318 317 316 316 315 314 313 313 313 312 310 309 309
318 320 321 321 321 320 320 321 320 320 320 319 318 318 318 318 318 317 318 319 318 318 318 317 317 316 314 313 314 316 316 317 316 316 315 314 313 313 312 311 309 309
318 318 318 319 320 318 318 320 319 318 319 319 319 318 317 318 317 317 317 318 317 317 317 317 316 315 313 313 313 315 315 315 315 316 316 315 313 313 313 311 310 309
319 318 317 318 318 317 318 320 318 317 317 316 316 316 318 320 319 318 317 317 316 316 316 317 316 316 316 316 316 317 317 317 316 317 317 316 315 314 313 311 310 309
315 316 317 317 317 316 317 317 315 314 315 315 315 316 317 317 315 314 316 315 316 316 315 316 317 317 317 317 318 318 318 318 318 318 318 318 316 314 312 311 310 309
314 315 316 316 315 314 314 315 314 314 315 315 314 314 315 315 315 314 315 316 315 316 316 316 317 318 318 319 319 319 319 319 319 319 319 318 315 313 312 311 310 309
313 314 313 312 312 311 312 312 313 312 313 313 314 315 315 315 315 315 315 315 315 315 315 315 315 315 315 315 315 316 317 318 319 319 318 316 315 313 313 312 310 309
311 311 310 310 310 310 309 310 310 310 310 311 312 314 314 313 313 313 313 314 315 314 314 313 313 313 312 310 310 313 315 317 318 317 316 314 313 313 312 311 309 308
310 310 310 310 309 308 308 308 309 309 309 309 310 311 312 313 312 312 311 312 314 314 314 314 314 313 312 311 311 312 314 315 315 315 314 312 312 312 311 309 308 307
310 310 309 309 308 307 307 308 309 308 309 308 308 309 310 310 311 311 311 311 312 314 315 314 314 313 312 312 312 311 311 312 312 312 311 310 309 309 308 307 306 306
309 309 309 308 307 307 308 308 308 308 307 307 307 307 308 308 309 310 311 311 312 313 314 314 314 314 313 312 311 310 309 309 309 308 308 306 305 305 305 304 304 304
308 309 308 308 308 308 308 308 308 308 307 307 307 307 307 306 307 309 311 312 312 313 313 313 313 313 312 311 311 309 308 308 307 307 306 304 304 304 303 303 303 303
307 308 308 308 308 309 308 308 307 308 307 307 307 306 306 305 306 308 311 312 312 312 312 312 313 312 311 311 310 309 308 306 306 305 304 303 303 303 303 303 303 302

ECMWFNIL_925_thetae_003.txt.gz
Theta_e
319 318 317 318 315 313 312 314 315 313 311 311 311 311 311 311 311 309 309 309 310 309 309 308 305 302 302 301 302 302 303 303 302 302 303 304 306 307 306 304 302 302
319 316 315 317 317 314 311 311 312 312 310 309 309 309 309 309 309 308 309 311 310 310 310 309 307 305 304 303 303 303 303 303 302 301 302 303 303 304 304 302 302 302
319 317 315 317 317 315 313 312 312 311 309 309 309 309 307 307 308 308 308 310 310 311 312 311 311 310 307 304 303 304 305 305 303 303 302 302 302 303 304 304 305 304
319 318 318 318 317 316 314 313 313 312 310 309 309 309 308 307 307 307 307 308 309 310 312 312 311 311 309 306 304 306 308 307 307 306 304 303 303 303 303 304 306 305
317 318 319 318 318 317 315 314 314 313 311 310 309 309 309 310 309 307 306 307 308 310 312 312 311 311 310 307 306 307 308 308 308 308 306 305 305 304 304 304 304 305
316 317 318 319 318 317 316 315 314 315 313 311 310 310 310 310 311 310 307 306 306 309 311 311 311 310 310 309 309 309 309 309 309 308 307 307 307 307 306 305 304 305
316 317 318 319 318 317 317 315 314 315 315 313 312 311 311 311 312 312 310 307 306 307 309 310 310 310 310 310 310 310 310 310 309 309 308 309 309 308 307 306 305 305
317 317 317 318 318 317 317 317 316 315 316 315 314 312 312 312 312 313 312 310 307 306 307 308 309 310 310 310 309 310 311 310 310 310 309 309 309 310 309 308 307 306
317 317 317 318 318 317 317 318 317 317 316 316 315 313 313 313 313 313 313 312 310 309 308 308 309 310 311 310 309 310 311 311 311 310 310 309 309 309 310 309 308 308
318 318 318 318 319 318 317 317 317 317 317 316 315 314 314 314 314 314 314 314 313 312 312 311 311 311 311 312 311 310 310 311 311 311 310 310 310 310 310 309 309 309
319 319 318 317 318 318 317 317 318 318 317 317 316 315 314 314 314 315 315 314 314 314 314 315 315 314 314 314 313 312 311 311 311 311 311 311 310 311 310 310 309 309
320 320 320 320 319 319 318 318 318 318 318 318 316 315 315 315 315 315 315 315 315 315 315 316 316 316 316 316 315 314 313 313 312 312 312 312 311 312 312 311 310 309
320 320 320 320 319 319 319 319 319 318 319 319 318 316 316 316 316 316 315 315 315 315 316 316 317 317 317 317 316 316 316 315 314 313 313 312 312 312 312 312 312 311
320 319 319 318 319 319 319 319 319 319 319 319 318 317 317 317 316 316 316 316 316 316 316 316 317 317 317 317 317 317 317 316 316 315 314 313 312 312 312 312 312 312
319 319 319 318 319 319 319 319 318 319 318 318 317 316 316 315 315 316 317 317 317 318 317 317 318 318 318 318 318 317 317 317 317 317 316 316 315 315 314 313 312 312
320 320 320 319 319 319 318 318 318 318 317 317 317 316 315 315 315 316 317 316 317 318 318 318 317 317 317 316 316 315 315 315 316 316 316 316 316 316 315 314 313 313
319 320 321 320 320 320 319 318 317 317 316 317 317 317 316 316 317 317 317 317 318 318 318 318 317 317 317 316 317 317 317 317 317 317 317 317 317 316 316 316 315 314
319 320 321 320 320 319 318 317 317 316 317 318 318 318 318 318 317 317 317 317 317 318 318 317 317 316 317 317 317 316 316 316 317 318 318 318 318 318 318 317 316 314
319 319 319 319 320 319 318 317 316 316 318 319 319 318 318 317 317 317 316 315 316 317 317 317 316 316 316 314 312 311 309 309 311 313 316 318 318 318 318 317 316 314
316 317 317 318 318 318 318 318 317 317 319 318 317 317 317 317 316 317 316 316 316 317 317 316 314 314 313 311 311 309 307 306 307 311 314 317 318 317 316 315 315 313
313 314 315 316 316 316 317 318 318 318 317 316 316 316 316 316 317 317 317 316 316 315 314 314 313 312 312 312 311 309 307 306 309 312 315 316 316 315 314 313 312 312
312 312 313 314 313 313 313 314 313 313 313 313 314 313 314 314 314 314 314 313 313 313 313 312 312 312 312 311 311 310 308 308 310 312 313 314 313 312 312 311 311 311
310 310 309 309 308 308 309 309 309 309 309 310 310 311 311 311 311 311 311 311 311 311 311 312 312 312 312 311 311 310 308 308 310 310 311 311 311 311 310 310 310 310
309 309 309 308 307 306 307 308 308 308 308 307 308 308 308 308 309 309 310 311 310 310 311 312 312 312 312 311 311 310 309 308 309 309 309 309 308 308 307 306 306 306
308 309 309 309 308 306 307 308 308 307 307 306 307 307 307 307 307 307 309 311 311 311 312 313 313 313 312 311 310 310 309 308 308 308 307 307 306 305 305 304 303 303
306 307 308 308 308 307 307 307 307 307 307 306 306 306 306 306 305 305 307 309 311 312 313 313 313 312 311 310 309 309 308 308 307 306 306 305 305 304 304 303 302 302

ECMWFNIL_925_thetae_006.txt.gz
Theta_e
317 316 315 314 313 313 315 317 316 316 316 314 314 313 312 311 311 308 307 309 310 309 308 308 308 308 308 310 311 309 306 304 305 306 306 307 306 305 303 302 302 301
317 317 316 315 314 314 315 315 314 314 314 313 314 313 312 312 310 308 307 307 307 305 303 302 302 303 304 305 305 304 303 303 303 303 303 304 303 301 301 300 300 299
318 317 316 314 313 314 315 314 313 313 312 312 312 312 312 311 310 309 309 308 308 306 303 302 303 304 304 303 304 304 304 303 303 302 302 303 303 302 301 301 302 301
318 317 315 313 313 314 315 314 313 313 312 311 311 311 312 311 310 310 310 310 309 308 306 305 304 303 303 303 304 304 304 303 302 302 302 303 303 303 303 302 303 303
318 317 315 313 312 314 316 315 313 312 311 310 310 311 311 311 311 311 311 311 310 310 310 308 307 304 303 304 306 305 305 304 303 302 302 303 303 303 303 302 302 303
317 318 316 314 313 314 316 316 314 313 311 309 309 310 310 310 310 311 311 311 311 311 311 311 310 308 305 306 307 307 307 306 305 304 304 303 303 303 304 303 302 303
315 317 318 315 313 314 317 317 315 314 313 311 310 309 309 309 309 310 310 311 310 311 312 311 311 310 308 307 308 308 309 309 307 306 306 305 305 304 304 304 303 303
312 315 318 318 316 315 317 317 317 316 314 313 312 311 310 308 308 310 310 310 309 310 312 312 311 311 309 308 309 309 310 309 309 308 308 308 307 307 305 305 305 305
312 313 316 319 318 317 318 318 317 317 316 314 313 312 311 310 309 310 311 311 309 309 311 311 311 311 310 309 310 310 310 310 310 309 309 309 309 308 308 306 306 306
314 314 316 318 318 318 318 318 318 318 317 316 314 314 312 311 311 311 312 313 311 309 309 309 310 311 310 310 310 310 310 310 310 310 310 310 309 309 309 308 308 307
315 316 317 317 317 317 317 318 318 318 317 317 315 314 313 312 312 312 312 313 313 311 310 309 309 310 310 311 311 311 310 310 310 310 311 310 310 310 310 309 309 309
315 315 316 317 316 317 317 318 318 318 317 317 316 315 314 313 313 313 313 314 314 313 312 312 311 311 311 311 312 312 311 311 311 310 311 311 311 310 310 310 310 310
315 316 317 318 317 317 317 317 318 318 317 317 316 316 315 314 314 314 314 314 314 314 314 314 314 314 313 313 313 312 312 312 312 311 311 311 312 312 311 311 311 311
317 317 318 319 319 318 318 318 317 317 317 317 317 316 316 315 315 315 315 315 316 315 314 315 315 314 314 315 316 315 314 314 313 314 314 314 314 313 313 312 312 312
317 318 318 319 319 319 318 318 318 317 317 317 317 316 316 316 315 315 315 315 315 315 314 314 314 314 315 317 317 317 316 315 315 315 315 315 316 315 315 315 314 314
318 319 319 319 319 318 318 318 318 318 318 317 318 317 316 316 316 315 315 315 314 313 312 313 313 314 316 316 317 316 316 317 317 316 316 315 316 316 316 316 316 316
318 319 319 319 319 318 318 318 318 318 317 317 318 317 317 316 315 314 314 315 314 312 312 313 315 315 316 317 317 316 316 315 315 315 316 316 317 317 317 317 317 317
318 318 317 318 318 317 317 317 317 317 317 317 318 317 317 316 315 314 314 315 314 312 313 315 316 316 317 317 315 313 311 309 308 310 311 314 316 317 317 318 318 317
317 317 317 317 317 317 318 317 317 317 317 318 318 317 316 316 315 315 315 314 314 314 315 316 317 317 317 314 311 310 308 306 306 310 312 314 315 315 316 316 317 317
316 317 317 317 318 317 317 317 317 317 317 317 317 316 316 316 316 315 315 316 315 316 316 316 317 316 315 312 310 310 308 305 306 310 312 313 313 314 314 314 314 314
314 316 318 318 318 317 317 317 316 316 317 317 316 316 317 317 317 317 317 317 317 316 316 316 316 315 312 311 311 310 308 306 306 308 308 309 311 311 312 312 312 312
310 313 315 316 317 316 316 316 317 316 316 317 317 318 318 318 318 317 317 316 316 316 316 316 315 313 312 311 311 310 309 308 307 307 307 307 309 309 310 311 311 311
307 309 312 314 315 315 315 316 317 317 316 317 318 318 317 316 316 317 316 316 316 316 316 314 313 312 312 311 311 310 309 308 308 308 307 307 308 309 309 309 309 309
306 308 310 311 313 314 315 315 316 316 316 317 317 316 315 315 315 315 315 315 315 314 314 313 312 312 312 311 311 310 309 308 308 308 308 307 307 307 307 307 307 307
305 306 307 308 309 310 311 311 310 311 312 312 312 312 312 313 312 312 312 313 313 312 312 312 312 312 311 311 310 310 309 308 308 307 307 307 306 306 305 305 305 304
303 304 306 307 307 307 307 307 307 307 307 308 308 308 308 309 310 311 311 312 312 312 312 312 312 311 310 310 310 309 308 307 307 307 306 306 305 304 304 303 303 302

ECMWFNIL_925_thetae_009.txt.gz
Theta_e
318 316 313 312 311 312 314 316 315 315 315 314 316 315 314 313 312 314 317 318 318 317 316 316 316 316 316 315 315 313 312 311 312 313 313 311 310 307 305 304 303 302
317 315 314 313 313 314 316 316 316 315 314 314 314 313 312 311 310 310 313 314 314 313 312 312 312 314 314 313 310 307 307 308 309 309 307 305 304 302 301 301 300 300
317 316 315 315 315 315 316 316 316 316 315 313 312 313 312 311 309 308 309 310 309 307 305 305 307 309 309 307 304 304 305 306 306 305 303 301 300 300 300 299 300 300
317 316 314 313 313 313 312 314 317 316 314 312 310 312 313 312 310 308 309 308 307 303 302 301 302 303 303 303 302 303 304 304 304 303 302 302 301 301 301 300 301 303
317 316 314 312 312 311 311 312 315 316 314 312 309 309 311 312 310 309 309 309 308 306 304 303 302 301 303 303 302 302 303 303 304 303 303 304 303 303 303 303 304 304
317 316 315 313 311 312 314 312 313 316 315 313 310 307 308 310 310 310 309 310 310 309 309 307 304 303 304 305 305 304 303 303 303 303 304 304 304 303 303 304 305 306
317 316 316 314 311 312 314 312 313 316 316 314 312 308 307 308 308 309 310 310 310 311 311 311 309 306 306 307 308 308 306 305 304 304 304 304 304 303 303 303 305 305
317 317 317 315 313 313 313 313 314 316 317 315 313 310 308 308 307 308 310 310 311 311 311 312 311 310 308 308 309 309 309 308 307 306 306 306 305 304 304 304 304 304
316 317 317 316 315 314 315 315 316 317 317 316 314 312 310 309 308 307 309 310 310 311 311 312 312 311 310 309 308 309 310 310 309 308 308 308 307 307 306 305 305 305
315 316 316 315 314 315 317 318 317 317 317 317 316 314 312 311 310 309 309 310 311 310 311 311 311 311 311 310 309 309 309 310 310 310 309 309 309 309 308 307 307 306
316 315 314 314 314 314 316 318 318 317 318 317 317 316 314 312 311 310 310 311 311 311 310 310 310 310 311 311 310 310 310 310 310 310 310 310 310 310 309 309 308 308
316 314 314 313 313 314 315 316 318 318 317 318 317 317 316 314 312 311 311 311 312 312 311 311 312 312 312 311 311 312 312 312 312 311 311 311 310 310 310 310 310 309
315 314 314 314 314 314 315 316 317 317 317 317 317 317 316 315 313 312 312 312 313 313 313 313 314 314 314 314 314 314 314 315 315 314 312 311 311 311 311 311 310 310
315 315 315 316 315 315 315 316 316 317 317 317 317 316 316 316 315 313 313 314 314 314 314 314 314 315 315 314 314 315 315 316 317 316 315 314 313 314 314 315 313 312
317 316 316 315 315 314 315 315 316 316 317 317 317 317 316 315 314 314 314 314 315 315 315 314 314 314 314 314 314 315 316 316 316 316 316 316 315 316 315 315 315 315
317 316 315 315 315 315 315 316 316 317 317 317 317 316 316 315 315 315 315 315 315 314 315 314 314 313 312 313 314 314 315 316 316 316 316 316 316 316 315 315 315 315
318 317 317 316 316 316 317 317 317 318 318 317 317 316 315 315 315 315 315 315 315 314 314 314 314 312 311 312 313 314 315 316 316 316 316 316 316 317 317 317 317 317
318 318 317 318 317 317 318 318 317 317 317 317 316 316 316 315 315 315 316 316 316 314 314 314 313 312 311 312 313 315 315 313 311 310 310 311 313 314 315 316 317 317
318 318 318 318 318 318 318 318 317 317 316 316 316 316 316 316 316 316 316 316 316 315 314 314 314 312 311 312 314 314 311 308 306 307 309 311 312 313 315 315 315 315
316 317 318 318 318 318 318 318 317 316 316 316 316 317 316 316 316 316 316 316 316 315 315 315 314 312 312 314 314 311 307 306 307 308 310 311 311 312 313 313 313 314
312 315 317 318 317 317 318 318 317 317 317 317 316 316 316 316 316 316 316 315 315 314 315 314 312 312 314 314 312 308 307 307 307 307 307 308 309 310 310 311 311 312
307 311 314 317 317 317 317 317 317 316 316 317 316 317 317 316 316 316 316 315 314 315 315 314 313 315 315 312 310 308 308 307 307 307 307 307 308 308 309 309 310 310
304 306 309 313 316 317 317 317 317 316 316 316 315 316 316 316 316 316 316 315 315 315 315 315 316 316 314 311 310 309 308 308 308 308 307 307 307 307 307 307 308 308
303 304 306 308 311 314 315 315 316 316 316 315 315 315 315 315 315 316 316 316 316 316 316 316 316 314 312 310 310 309 308 308 308 307 307 307 307 306 306 306 306 306
303 304 305 306 307 310 313 313 314 315 315 315 315 315 315 315 315 315 316 316 315 315 316 316 314 312 311 311 310 310 308 308 308 308 307 307 306 305 305 304 304 304
302 303 304 305 306 308 311 312 314 314 315 316 316 316 316 316 316 316 316 315 315 315 315 314 312 311 311 311 310 310 309 308 308 308 307 306 305 304 303 303 302 302

ECMWFNIL_925_thetae_012.txt.gz
Theta_e
325 323 323 323 322 321 320 319 318 318 319 320 320 319 319 319 320 320 320 320 320 320 320 321 321 321 320 320 320 319 320 321 320 319 319 318 318 318 317 316 314 312
321 320 321 322 321 320 319 318 318 319 319 319 319 318 318 318 318 319 319 318 317 317 318 319 319 319 318 318 317 317 317 317 317 316 316 315 315 315 315 314 314 312
320 318 318 318 319 318 315 313 314 316 319 319 317 318 318 316 316 316 317 316 314 314 315 316 316 315 315 314 314 314 314 314 314 314 314 313 312 312 312 313 314 313
319 317 315 316 317 316 314 312 310 311 316 319 317 316 317 316 315 314 314 313 312 311 311 313 314 313 312 312 312 312 312 312 311 311 311 311 311 311 311 313 314 314
318 315 315 318 316 313 314 315 311 309 313 317 317 317 316 315 315 314 313 313 311 311 310 311 311 311 311 311 311 310 310 310 310 310 310 311 311 311 312 313 314 314
318 314 315 316 314 311 312 315 313 310 309 310 312 316 316 315 315 314 314 313 312 312 310 310 310 311 311 311 311 310 309 310 311 311 310 310 311 311 312 313 313 314
318 315 314 315 314 312 312 313 313 313 312 310 312 316 317 315 314 315 314 313 313 313 312 311 311 311 312 311 311 311 311 311 311 312 310 311 310 311 312 312 312 312
319 318 318 317 316 315 316 316 315 315 315 315 315 317 317 315 314 315 315 314 314 315 315 313 312 312 313 313 313 312 312 312 312 312 311 311 311 310 311 312 312 311
322 322 321 319 318 318 321 322 319 316 315 316 317 317 316 316 316 315 315 315 315 315 316 316 314 314 314 315 315 315 314 314 314 313 313 313 312 311 310 311 311 311
324 323 322 322 320 320 322 324 322 319 318 318 319 318 316 315 316 316 315 315 315 315 315 315 316 315 315 315 315 315 315 316 315 315 315 315 314 313 312 312 312 312
324 324 323 322 322 321 323 324 323 322 321 320 320 320 318 316 316 316 315 315 314 314 314 314 315 316 315 315 315 315 315 316 316 316 316 316 316 315 314 314 314 314
324 323 323 323 323 322 323 324 323 322 322 322 321 320 320 319 317 316 316 315 315 314 314 314 315 316 316 317 317 318 318 318 318 318 317 316 316 316 316 316 315 315
324 323 323 323 323 323 323 323 322 321 322 322 321 321 321 320 319 318 317 316 316 316 315 316 317 318 319 318 319 320 320 320 320 320 319 318 318 317 316 316 316 316
324 324 323 323 323 322 322 323 322 322 322 322 321 321 321 321 320 319 318 318 318 318 319 319 319 319 318 318 319 320 320 320 321 321 321 320 320 319 318 318 317 317
324 324 323 323 322 322 323 323 322 322 321 321 321 321 321 322 321 320 319 319 320 320 320 318 317 317 316 316 317 318 318 318 318 320 320 320 320 320 319 319 318 317
324 324 324 323 323 322 322 323 322 322 321 321 320 320 321 321 321 320 320 320 320 320 319 316 315 314 314 315 316 315 315 315 316 318 318 320 320 318 318 319 319 319
323 324 324 324 324 323 322 322 322 322 322 321 321 321 320 321 321 320 320 320 320 320 318 315 314 314 314 315 315 314 313 313 315 316 317 318 319 318 318 319 319 319
322 322 323 323 323 323 323 323 322 322 323 322 321 321 320 320 321 320 320 320 319 318 317 315 314 314 314 314 314 314 313 312 314 316 315 314 316 317 317 317 317 318
321 321 321 321 322 322 322 322 322 322 322 322 322 322 320 319 319 319 319 318 317 318 317 317 317 316 315 314 315 314 313 313 314 314 313 312 315 317 316 317 317 317
317 320 320 321 321 321 321 321 321 321 321 322 322 322 320 319 319 319 318 318 318 318 318 319 319 318 316 315 314 313 313 313 314 314 314 315 315 315 315 315 315 316
313 316 318 320 320 320 320 320 321 321 321 322 321 321 321 320 319 319 319 318 319 319 319 320 319 319 317 314 312 313 312 312 313 314 314 315 314 313 313 313 313 313
309 311 314 316 318 319 320 320 320 321 321 321 321 320 320 320 319 319 319 319 320 320 320 320 319 319 317 313 312 312 311 310 313 314 313 313 313 312 312 312 312 313
308 309 310 312 314 317 319 320 320 320 321 321 321 320 320 319 319 319 319 320 320 320 319 319 320 319 316 313 313 312 309 310 313 312 311 312 311 311 311 310 309 310
308 308 309 310 312 313 316 318 319 321 321 321 321 320 320 320 319 319 319 319 319 319 318 318 318 317 315 314 313 310 309 312 312 311 311 311 310 310 309 307 307 307
306 307 308 309 310 311 313 315 317 319 320 321 320 320 320 319 319 319 319 318 318 317 317 317 316 315 315 314 311 308 309 312 311 311 311 310 309 309 307 306 305 306
305 306 307 308 308 310 311 313 314 316 318 320 320 320 319 318 318 318 318 317 316 316 316 316 316 316 314 312 309 308 310 312 311 311 311 309 308 308 307 305 304 303

ECMWFNIL_925_thetae_015.txt.gz
Theta_e
330 326 323 323 321 320 321 320 320 321 322 323 322 322 322 322 322 322 322 322 323 323 324 323 323 323 323 322 322 322 323 323 322 322 322 322 321 320 319 317 315 314
330 325 322 322 322 321 322 320 321 322 323 322 321 320 320 321 321 320 319 319 320 321 321 321 321 320 320 320 320 320 320 319 318 318 317 317 317 317 317 316 315 314
329 325 322 322 321 322 322 321 321 322 322 321 320 319 319 320 320 319 318 317 318 319 319 318 317 317 316 317 317 317 317 317 316 316 316 315 315 315 316 316 316 315
328 324 321 321 321 321 322 322 322 321 320 320 319 318 317 317 318 317 316 315 316 316 316 316 315 314 315 315 315 315 314 315 315 315 314 314 314 315 316 317 316 316
327 323 322 322 321 320 320 320 321 321 320 318 317 317 315 315 315 315 314 313 314 314 315 314 314 314 313 314 313 313 312 312 313 313 314 314 314 315 317 318 318 317
326 323 322 322 320 320 319 318 318 319 320 319 317 315 315 315 314 313 313 313 313 313 313 313 313 314 313 312 312 312 312 312 313 313 313 314 314 315 316 317 317 317
326 323 322 321 321 322 321 318 315 313 314 318 318 316 315 315 315 314 313 313 312 311 312 312 313 313 313 313 312 313 313 313 313 312 313 314 314 314 315 315 316 316
326 323 321 321 323 324 322 320 317 311 311 316 318 316 315 314 315 315 314 314 313 313 312 312 313 314 314 314 314 314 314 314 314 313 313 313 314 314 314 315 315 314
326 323 321 320 323 324 323 322 320 318 318 318 318 317 316 314 315 316 315 315 315 315 313 313 314 315 316 315 314 314 315 315 315 314 314 313 313 313 313 314 314 314
326 324 322 321 322 322 322 322 322 322 321 319 317 317 316 316 315 315 316 316 316 316 315 315 315 316 317 316 316 316 315 316 316 316 315 315 314 313 313 313 314 314
326 325 324 324 323 322 321 321 321 321 320 319 318 317 317 317 316 315 315 316 316 316 316 316 315 315 316 317 318 318 318 317 317 317 317 317 317 316 315 315 315 316
327 326 326 325 323 322 322 322 322 320 319 319 319 318 317 318 317 315 315 314 314 314 315 315 315 315 315 316 316 317 318 318 318 319 319 319 319 318 317 317 317 318
326 326 324 324 324 323 324 324 322 320 320 319 319 319 319 318 318 317 316 315 314 314 313 314 316 315 315 316 316 318 319 319 320 320 319 319 319 319 318 318 318 318
326 325 324 323 325 325 324 324 322 320 320 320 319 320 320 320 319 318 317 316 315 314 314 315 316 316 317 318 318 320 321 322 322 321 321 320 320 319 320 320 319 319
326 326 326 325 325 325 324 324 323 322 322 321 321 321 321 320 320 320 319 317 316 316 316 316 317 318 319 319 320 322 323 323 323 323 323 322 322 321 321 320 320 319
327 326 326 326 326 325 324 324 324 324 324 322 321 321 321 321 321 321 320 319 318 318 318 319 320 320 320 319 320 322 322 322 322 322 322 322 322 322 321 320 319 319
325 326 327 326 325 325 324 324 325 325 325 323 322 321 322 322 322 322 321 321 320 320 321 322 322 322 320 319 320 322 321 319 319 319 318 318 319 319 319 319 318 318
324 324 325 325 326 325 324 324 325 325 324 324 323 322 321 322 322 322 322 322 321 321 322 323 323 322 320 317 317 319 319 317 317 316 316 316 316 314 315 316 317 318
321 322 322 323 324 324 324 324 325 324 324 324 324 324 323 322 322 322 322 322 323 322 322 323 323 322 319 315 315 316 316 316 317 317 317 317 316 313 314 316 315 314
317 319 320 321 322 322 323 324 324 324 324 324 324 324 324 323 322 322 322 322 322 322 322 322 323 321 318 314 314 314 315 315 316 318 318 318 317 316 316 316 315 313
313 315 317 318 319 321 322 322 322 323 323 324 324 323 323 324 323 322 322 321 321 322 321 321 321 320 318 316 314 314 315 315 314 316 317 317 317 317 315 315 316 315
311 312 313 315 316 318 319 320 321 322 322 323 323 323 323 323 322 322 321 320 320 320 320 320 320 320 320 318 317 317 316 315 314 315 316 316 317 316 315 315 317 316
310 311 311 312 313 314 316 317 318 320 321 322 322 323 323 323 322 321 320 319 319 319 319 320 320 320 320 319 318 318 316 314 314 315 316 315 315 315 315 316 315 314
308 309 310 311 312 313 313 315 317 317 318 321 322 322 322 322 322 321 320 320 321 320 320 319 319 319 319 319 319 317 314 314 315 315 315 314 314 313 313 312 310 310
307 308 309 309 310 311 312 313 314 315 316 318 321 322 321 321 322 321 319 320 322 321 321 319 318 318 318 318 319 316 313 314 315 314 314 313 312 312 311 308 307 308
305 306 307 308 309 309 310 310 312 314 314 316 318 320 320 320 321 321 321 321 321 321 321 320 319 319 318 318 317 314 312 314 315 314 314 312 311 310 309 308 306 306

ECMWFNIL_925_thetae_018.txt.gz
Theta_e
326 323 323 322 321 321 320 321 322 322 323 323 323 323 323 324 324 324 324 324 324 324 324 324 323 323 323 324 324 324 323 324 324 323 322 321 320 318 316 314 313 313
327 324 323 322 321 321 321 321 322 323 324 323 322 322 323 322 321 321 321 322 323 324 322 322 322 322 322 322 321 320 320 320 320 320 319 318 317 316 315 314 314 314
326 323 323 322 321 322 322 322 323 323 323 322 321 321 321 321 320 318 319 320 321 321 320 319 319 319 319 319 318 318 317 317 317 316 316 316 316 315 315 315 315 314
325 323 323 323 323 322 322 322 323 323 322 321 320 320 320 320 319 318 318 318 318 317 317 316 316 317 317 317 316 316 316 316 315 314 315 316 316 316 317 317 317 317
324 322 323 323 323 322 322 322 322 321 321 320 318 318 318 318 317 316 315 316 316 316 315 315 315 315 316 315 314 314 314 314 314 314 315 316 317 318 318 317 317 317
324 322 322 321 321 320 322 322 321 320 320 318 317 316 316 315 314 314 314 314 314 314 314 314 314 314 313 313 313 312 313 314 314 315 315 316 317 318 317 317 317 316
324 323 322 320 318 317 319 320 321 321 319 317 316 315 315 315 314 313 313 313 313 313 314 314 314 313 312 312 312 313 313 313 314 314 315 315 316 317 317 317 317 317
324 323 322 319 317 317 317 318 319 320 319 318 317 315 315 315 314 313 313 312 312 312 313 314 314 314 313 313 313 314 313 313 314 315 315 315 315 316 316 316 315 316
324 323 322 320 320 320 318 316 316 315 316 318 317 315 315 315 315 314 313 313 312 313 313 314 314 314 314 314 314 315 314 314 314 314 314 315 315 315 316 315 315 314
325 323 322 323 324 323 320 317 312 310 313 316 317 316 315 315 315 315 315 315 314 313 313 314 316 316 315 314 314 315 316 315 314 314 314 314 314 314 314 314 314 314
326 324 322 323 324 323 322 320 316 314 316 318 318 317 316 315 315 315 316 316 316 315 314 315 317 317 316 315 315 315 316 316 315 315 314 314 313 313 314 314 315 315
327 326 323 323 323 324 323 322 321 320 320 319 318 317 317 316 315 315 316 316 317 317 316 316 316 317 317 317 318 317 317 317 317 316 316 316 316 315 315 315 316 316
328 327 326 325 325 324 323 322 322 322 321 320 318 317 316 316 316 315 315 316 316 316 316 316 316 316 317 318 318 318 318 318 318 318 318 318 318 318 317 317 318 318
328 328 327 326 325 324 324 324 323 322 321 320 320 318 317 317 317 316 315 315 315 314 315 316 315 315 316 316 317 317 318 319 319 319 319 319 320 320 319 319 320 319
326 327 326 325 324 324 324 324 323 322 321 320 320 319 319 319 318 317 317 316 315 314 314 314 315 315 316 316 316 318 319 321 321 320 320 320 320 320 320 321 321 320
325 325 325 324 324 325 324 324 323 323 322 321 320 320 320 320 320 319 318 317 317 316 315 314 315 316 316 316 317 318 320 322 322 322 321 321 320 320 320 321 320 319
324 324 324 324 324 323 323 323 323 323 324 323 322 322 321 321 320 320 320 319 319 317 316 316 316 316 317 318 318 319 322 323 323 322 323 322 322 321 321 321 320 319
322 322 323 323 323 323 323 322 322 323 324 324 324 324 321 320 320 321 320 320 320 319 318 318 317 317 317 318 319 320 323 323 323 323 323 323 322 321 320 320 319 318
319 321 321 321 321 322 322 323 323 323 324 324 324 324 323 322 321 322 322 321 320 320 320 320 319 319 319 320 319 320 322 323 323 322 322 321 320 319 318 317 316 317
316 317 318 319 320 320 321 322 323 323 324 324 323 324 324 323 322 322 323 322 321 322 322 321 322 322 322 321 320 320 321 322 321 321 320 319 317 317 316 315 315 315
312 313 314 315 317 318 319 320 321 321 323 323 323 323 323 323 323 323 322 322 322 322 322 321 321 320 321 322 321 320 321 321 320 319 319 318 318 317 316 315 315 316
310 311 312 312 314 314 316 317 318 319 320 321 322 323 323 323 323 323 322 322 322 322 321 321 321 320 320 320 321 320 320 319 319 318 318 318 318 318 317 317 316 315
308 309 310 310 311 312 313 314 315 316 317 319 320 322 322 322 323 323 322 322 322 322 321 321 320 320 320 319 319 320 319 317 315 316 316 316 316 317 318 317 316 315
306 307 308 309 310 311 311 311 312 313 314 315 316 318 319 321 322 323 322 322 322 322 321 321 320 320 320 319 317 317 318 316 314 314 315 315 314 315 316 317 316 315
304 305 306 307 308 309 310 310 310 311 311 312 314 315 316 318 321 321 322 321 321 321 321 320 320 319 319 319 318 317 318 317 315 315 315 314 314 315 316 316 315 315
303 303 304 305 306 307 308 308 309 309 309 310 311 313 314 316 318 319 320 321 320 321 320 320 319 319 319 319 319 319 319 316 314 314 314 314 315 315 314 314 314 313

ECMWFNIL_925_thetae_021.txt.gz
Theta_e
323 323 322 321 322 322 322 322 321 322 323 324 323 323 324 324 325 325 324 324 324 324 324 324 324 326 327 328 328 327 326 326 326 325 322 319 317 315 314 314 315 314
322 322 321 321 321 321 321 321 322 323 324 323 323 324 323 324 323 323 324 325 324 323 323 323 323 325 324 325 325 325 324 323 322 321 318 316 314 314 313 313 313 313
322 322 321 320 320 320 321 322 323 323 323 323 323 323 322 321 321 321 323 324 322 322 321 321 321 322 321 321 322 322 322 321 320 319 317 314 314 314 313 313 314 313
323 323 321 321 320 320 321 323 323 322 322 321 321 321 320 319 319 320 322 322 321 320 319 319 318 319 318 318 318 318 318 318 317 316 315 314 314 315 314 314 313 314
323 322 321 321 321 321 322 323 322 321 320 320 320 320 319 318 318 319 320 319 318 317 317 317 317 317 317 317 316 315 315 315 315 315 316 316 317 317 316 315 313 313
323 322 321 321 321 321 322 323 322 321 320 319 319 319 319 317 316 317 317 316 315 315 316 316 315 316 316 315 315 314 314 314 315 316 317 317 317 316 315 315 314 315
323 323 322 322 321 321 322 322 321 320 319 318 318 317 316 315 314 315 315 315 314 314 314 314 314 314 314 314 314 313 313 313 315 316 317 317 317 316 315 315 316 316
322 322 322 321 320 321 321 320 320 319 318 317 315 315 314 314 313 314 314 313 313 314 313 313 312 312 312 312 313 313 313 314 315 316 317 317 317 317 316 316 316 316
322 322 321 319 318 319 320 320 320 318 316 316 314 313 315 314 313 313 313 313 313 313 313 313 312 312 312 312 313 313 314 314 315 316 316 316 316 316 316 316 315 315
323 322 319 317 317 318 317 317 318 317 315 315 314 314 315 315 313 313 313 312 312 313 313 313 313 314 313 313 314 314 314 314 315 315 315 315 315 315 315 314 314 314
323 322 319 317 319 318 317 315 313 312 313 314 313 313 315 315 314 314 314 313 312 313 314 314 314 314 313 313 315 315 314 314 315 314 314 314 314 314 314 314 313 313
323 322 320 321 321 321 319 317 311 307 308 311 313 315 316 316 315 314 315 314 313 313 314 315 315 315 314 314 315 315 314 314 314 313 313 314 314 313 313 313 314 315
324 324 322 322 324 322 321 321 317 312 311 314 316 317 317 317 315 314 315 316 315 314 315 315 316 316 315 315 315 316 316 314 314 314 314 314 314 313 314 315 315 316
326 326 324 324 324 324 322 323 322 320 318 318 319 319 318 316 315 315 315 316 316 315 316 316 315 316 317 317 317 317 317 316 315 316 316 317 316 315 316 316 317 317
327 326 326 326 325 324 323 323 323 322 321 320 321 321 319 316 315 316 315 315 315 316 316 316 316 315 316 317 317 317 317 317 317 316 317 318 318 317 318 317 317 318
327 327 326 325 324 324 324 324 323 322 322 322 321 321 320 317 317 316 316 315 315 315 315 315 315 315 315 315 315 316 317 318 318 317 318 319 319 319 319 318 318 319
325 326 325 324 324 324 324 324 323 323 323 322 322 322 322 320 319 319 318 318 316 316 315 315 314 314 315 315 315 315 316 318 319 319 319 320 319 319 319 319 319 319
323 323 323 323 323 323 323 323 322 323 323 323 322 322 322 322 321 320 320 320 319 318 318 318 316 314 314 315 315 316 316 318 319 320 320 320 320 320 320 320 320 320
319 320 320 321 322 322 323 323 322 322 322 323 324 323 323 323 322 321 320 320 320 320 320 319 319 317 316 315 316 316 316 318 319 321 321 321 320 320 320 320 320 319
312 314 315 316 317 319 321 322 322 322 323 323 324 324 323 324 324 323 321 321 321 322 321 321 320 320 319 317 316 317 317 319 321 321 321 321 321 321 321 321 320 320
307 308 309 311 312 313 315 316 318 318 319 321 323 323 323 322 323 323 323 322 322 322 322 322 321 321 321 319 318 318 319 320 322 322 323 322 322 321 321 319 318 318
306 306 306 308 309 310 311 312 313 313 314 315 318 320 321 322 322 322 323 323 323 322 322 322 322 322 321 321 320 320 320 321 322 322 322 322 322 321 318 315 314 315
304 304 304 306 307 308 309 309 310 311 311 311 312 313 316 318 319 320 320 321 322 322 322 322 322 322 321 321 321 320 320 320 321 321 322 321 320 319 318 316 316 315
303 303 303 304 305 306 306 307 308 309 309 310 309 309 309 311 313 315 317 319 320 321 322 322 322 322 321 321 321 321 320 320 319 320 320 319 318 318 318 318 318 317
302 303 303 303 303 303 304 304 305 306 307 307 306 306 306 308 309 311 313 316 318 320 321 322 322 321 321 321 321 320 320 320 319 319 318 317 316 316 317 316 317 317
301 301 301 301 302 302 302 302 302 303 304 303 303 304 305 307 308 309 310 312 315 317 319 320 320 321 320 320 320 320 320 319 319 318 318 317 316 315 315 314 315 315

ECMWFNIL_925_thetae_024.txt.gz
Theta_e
321 321 320 319 320 320 322 323 323 324 324 324 323 322 324 325 324 324 323 323 324 324 324 325 326 327 328 328 328 328 328 328 328 328 327 326 325 325 326 327 327 326
322 321 320 321 322 321 322 323 323 324 324 323 323 322 324 324 324 324 323 322 323 323 324 326 327 328 328 328 327 327 328 328 327 324 322 320 320 320 322 322 321 320
322 321 321 322 322 322 322 322 322 323 323 323 323 323 324 324 324 324 323 322 323 322 323 325 326 327 327 327 327 327 327 325 321 317 315 314 314 315 316 315 315 315
322 321 321 322 321 321 321 321 322 323 323 323 323 323 323 323 323 324 323 321 321 321 323 324 324 324 325 325 325 324 323 319 315 314 313 313 313 313 313 314 314 315
321 321 320 320 320 321 321 322 323 323 323 323 322 322 320 320 322 323 323 321 319 319 321 322 322 322 323 323 323 322 320 317 314 314 314 313 313 313 313 314 314 315
321 320 320 320 320 321 322 323 323 322 322 322 320 319 318 319 321 322 322 321 319 317 318 319 319 319 319 319 320 320 319 316 315 314 314 314 314 314 313 313 314 315
322 321 320 320 321 321 322 322 322 321 321 320 319 318 318 318 319 320 320 320 317 316 317 317 317 317 316 316 317 316 316 315 315 316 316 316 315 314 313 313 313 314
322 321 320 321 321 322 322 321 321 320 320 319 319 318 317 316 316 316 317 317 315 315 315 315 316 316 316 315 315 314 314 315 317 317 316 316 315 314 315 315 314 315
322 321 321 321 321 321 321 320 320 319 318 318 317 316 314 314 313 313 314 314 314 314 314 314 314 314 314 314 313 313 313 315 317 316 316 315 314 315 316 316 316 315
322 322 322 321 321 321 321 320 319 319 317 316 315 314 314 313 313 313 312 312 313 313 313 312 312 312 312 313 312 312 312 314 316 316 316 315 315 316 316 315 316 315
322 322 322 321 321 321 320 319 319 317 315 314 314 314 314 313 313 313 312 312 313 313 312 312 311 312 312 312 312 313 313 315 316 317 317 316 316 316 316 315 316 315
322 321 321 320 319 318 317 317 317 316 314 312 313 315 315 314 313 313 312 312 312 313 312 313 313 313 312 313 313 313 314 315 315 316 316 315 315 315 315 315 315 315
321 320 319 317 317 317 315 314 314 314 314 313 313 314 315 315 314 313 313 312 313 313 313 313 314 313 313 314 314 314 314 315 315 315 315 315 314 314 314 313 313 313
320 319 319 318 318 319 319 317 313 311 311 312 313 314 316 316 314 314 315 313 312 313 314 314 314 314 313 313 314 314 314 314 314 314 314 314 314 314 313 312 312 311
320 321 322 322 321 321 321 321 316 312 312 314 316 318 319 318 315 314 315 315 313 313 314 314 315 315 313 313 314 315 314 314 314 313 313 314 314 313 313 313 313 313
322 323 324 323 323 322 322 321 319 318 318 319 319 320 321 319 316 314 314 315 315 315 314 315 315 315 315 314 314 315 315 315 313 313 314 315 314 313 313 314 315 315
323 323 323 322 322 322 322 322 321 321 322 322 322 321 321 320 317 315 315 315 315 315 315 315 315 315 316 315 315 315 316 316 315 314 315 317 316 315 314 315 315 316
321 321 321 321 321 321 322 323 322 322 322 322 323 322 322 321 319 318 317 317 315 315 315 315 316 316 315 315 314 314 315 316 316 316 315 316 317 317 317 316 316 317
312 314 316 318 319 320 321 322 322 322 322 322 322 323 323 323 322 322 321 320 319 318 318 318 318 317 317 315 314 314 314 315 315 315 316 316 316 317 318 318 318 318
306 308 309 310 312 315 316 317 317 318 320 322 322 323 323 323 323 322 322 321 321 320 321 321 320 320 319 318 316 315 314 315 315 315 316 317 317 317 318 319 319 319
304 304 305 306 307 308 309 309 310 311 313 315 316 319 321 321 322 322 322 322 322 321 321 321 321 321 321 320 319 317 316 315 315 315 316 317 318 318 319 320 320 320
303 303 303 304 304 305 305 305 305 306 306 307 308 310 312 314 315 316 317 318 320 321 321 322 321 321 321 321 321 320 319 317 315 315 316 318 320 320 320 320 320 320
302 302 302 302 302 303 303 303 303 303 303 304 304 305 305 305 307 308 309 312 314 317 319 321 321 321 321 321 321 321 321 319 318 317 318 320 321 321 321 321 321 321
300 301 301 301 301 301 301 301 302 302 302 302 302 302 303 302 303 305 306 307 308 310 313 316 318 320 320 321 321 321 321 321 320 319 319 319 321 321 321 321 321 321
300 300 300 300 300 300 300 300 301 301 301 301 301 301 302 302 302 303 304 305 305 306 307 309 312 315 318 320 320 320 320 320 320 320 319 319 319 320 320 321 321 320
300 300 300 300 300 300 300 300 300 300 300 300 301 301 301 301 302 302 302 303 303 304 304 304 305 308 312 316 318 319 319 319 320 320 319 319 319 319 319 319 319 319

ECMWFNIL_925_thetae_027.txt.gz
Theta_e
324 323 322 322 323 324 325 325 324 324 324 324 323 323 323 324 324 324 323 324 325 325 325 325 325 324 325 327 328 328 329 328 328 328 327 327 327 326 327 328 328 328
322 322 321 322 323 323 324 324 324 324 324 323 322 321 323 324 324 323 323 323 323 324 324 324 325 325 327 328 328 329 329 328 328 327 327 327 327 326 327 328 328 328
322 320 320 320 321 322 322 323 323 324 324 323 322 322 323 324 324 323 323 323 323 323 324 326 326 328 328 328 329 328 328 328 327 327 327 325 324 324 326 327 327 326
321 319 319 320 320 321 322 323 323 324 323 322 322 323 323 323 323 323 322 322 323 323 325 327 328 328 328 327 328 328 328 327 325 323 321 319 319 321 321 321 320 319
321 320 321 321 321 321 322 322 323 323 323 323 323 324 323 324 323 323 321 321 322 323 324 326 327 327 327 327 327 327 325 322 318 315 315 315 316 317 316 316 315 315
321 321 322 322 322 321 321 321 322 323 323 323 323 323 322 323 323 322 321 320 321 323 323 324 325 325 325 325 325 322 318 315 314 313 313 313 314 314 315 315 315 315
321 321 321 321 321 320 321 321 322 323 323 322 322 321 320 320 322 322 320 319 319 322 323 322 323 323 323 323 322 319 316 314 314 313 313 313 314 314 315 316 315 315
321 321 320 320 320 320 321 322 322 322 322 322 320 318 317 319 321 321 321 319 317 318 320 319 319 319 320 321 321 320 317 315 314 313 313 313 313 313 313 315 316 315
321 320 320 320 320 321 321 322 322 322 321 320 319 317 318 318 318 319 319 318 316 316 317 317 317 316 317 318 318 318 316 315 315 315 314 314 313 312 312 314 316 315
321 320 320 320 320 321 322 322 321 321 320 319 317 317 316 315 314 315 316 315 314 315 315 315 316 315 315 315 315 315 314 315 316 316 315 315 314 313 313 314 315 315
321 320 321 321 321 321 321 320 320 320 319 318 316 315 313 313 312 312 313 313 313 314 314 313 313 314 314 314 314 313 312 314 316 316 315 315 314 315 315 315 315 315
321 321 321 321 320 320 320 320 319 318 318 317 315 313 313 313 313 312 311 312 313 313 313 312 311 312 312 313 313 313 312 313 315 316 315 314 315 316 316 315 315 315
321 320 321 321 320 319 319 319 319 317 316 316 314 313 314 314 312 312 312 312 313 312 312 312 311 312 312 312 312 313 312 314 315 316 316 315 315 316 315 315 315 315
320 321 320 319 318 318 318 318 318 316 315 314 314 314 315 314 313 313 312 311 312 312 312 312 312 312 312 311 312 313 313 314 315 316 316 316 315 315 315 315 315 315
319 320 318 316 316 317 317 316 316 316 315 314 314 313 314 315 316 315 313 312 312 312 312 313 313 313 313 312 313 314 314 314 315 315 315 316 315 314 315 315 315 314
320 319 317 316 317 317 317 316 314 313 314 314 314 314 316 318 318 316 314 314 313 312 312 313 314 314 313 312 312 313 314 313 314 315 315 315 315 314 314 314 313 313
320 320 319 319 319 318 319 318 316 315 316 317 317 318 319 320 320 317 315 314 314 313 313 313 314 314 314 313 312 313 313 314 314 314 314 314 314 314 313 313 313 312
321 321 321 320 320 320 320 320 320 320 321 321 322 322 321 321 320 318 316 315 314 314 313 313 314 314 315 315 314 313 313 313 313 313 313 313 313 313 313 314 313 313
316 317 317 318 318 319 319 320 320 321 322 322 322 323 323 322 322 321 320 319 318 317 316 315 314 314 315 315 315 315 314 314 314 314 314 314 313 313 314 315 314 313
307 308 308 309 310 312 313 314 314 315 316 317 318 319 321 321 321 321 321 321 321 321 320 319 318 317 316 316 315 315 315 315 315 315 315 315 315 314 314 315 315 315
302 302 302 303 303 304 306 306 307 308 309 309 310 312 313 314 315 316 316 318 319 320 321 321 321 320 320 319 318 318 317 316 316 316 316 316 316 316 315 315 315 315
300 301 301 301 301 301 302 302 303 304 304 304 305 306 307 308 309 310 311 312 313 315 317 319 320 320 320 321 321 321 320 320 318 317 316 316 316 316 316 316 316 316
299 299 300 300 300 300 300 300 301 301 302 302 303 304 304 304 305 304 305 306 307 309 311 314 316 317 317 319 320 320 320 321 320 320 320 318 317 316 315 315 316 317
299 299 299 299 299 299 299 299 299 300 300 300 300 301 301 301 302 302 302 303 304 305 306 308 310 311 312 313 316 317 318 319 320 320 320 320 320 319 318 317 316 317
299 299 299 299 299 299 299 299 299 299 299 299 299 299 300 300 300 300 301 301 302 302 302 303 305 306 306 308 309 311 314 316 318 318 319 320 320 320 320 319 318 318
299 299 299 299 299 299 299 299 299 299 299 299 299 299 299 299 299 299 300 300 300 301 301 301 302 303 303 304 305 306 307 309 312 314 315 317 318 319 319 319 319 319

ECMWFNIL_925_thetae_030.txt.gz
Theta_e
327 326 326 326 326 325 325 325 324 323 324 324 324 324 324 324 323 323 323 324 324 325 326 326 326 326 325 326 328 329 329 328 328 328 328 327 327 327 327 327 327 327
328 327 326 326 326 325 325 325 324 324 324 324 324 324 323 324 323 323 323 323 324 325 325 325 325 325 325 326 327 328 329 328 328 328 328 327 327 326 326 327 327 327
327 326 325 324 324 325 325 324 324 324 323 323 322 322 323 323 323 323 322 322 323 323 324 324 325 326 327 327 328 328 328 328 328 328 328 327 327 326 326 327 327 328
326 325 324 322 323 324 325 324 324 324 323 322 322 321 323 323 323 323 322 322 322 322 323 324 326 327 327 328 328 328 328 328 327 327 327 326 325 324 326 327 327 328
325 324 322 322 323 324 324 324 323 323 323 322 322 322 323 323 323 323 322 321 322 322 324 326 327 328 328 327 328 328 328 327 325 324 323 322 322 323 325 326 325 326
323 321 321 321 322 322 323 323 323 323 323 322 322 322 323 323 323 323 321 320 321 322 323 325 326 326 326 326 327 326 325 322 319 317 317 317 319 320 320 319 319 319
321 320 320 320 320 321 322 323 323 323 322 322 322 323 323 323 322 322 320 319 321 322 322 323 324 324 325 325 324 321 318 316 313 313 314 315 316 316 315 314 315 315
320 320 320 321 321 321 321 322 322 322 322 322 322 321 321 322 322 321 319 319 320 322 323 322 322 323 323 323 321 317 314 313 313 313 313 314 314 314 314 314 315 314
320 320 321 322 321 321 321 321 322 322 322 322 321 319 318 320 321 320 319 319 318 320 321 320 320 320 320 321 320 319 317 315 314 313 313 313 314 314 315 315 315 314
321 321 321 321 320 320 321 321 322 322 322 320 318 317 318 319 319 319 319 318 317 317 317 317 317 316 316 318 319 319 318 316 315 314 313 313 313 313 314 315 315 315
320 320 320 320 320 320 321 322 322 321 320 319 317 317 317 316 316 316 316 316 315 315 315 315 315 315 315 315 316 315 314 314 315 315 314 314 313 312 312 314 315 315
320 320 320 320 321 321 321 321 321 320 319 318 316 315 314 313 313 313 313 314 314 313 314 313 313 313 313 313 314 313 313 313 315 316 315 314 314 313 313 314 315 315
320 320 320 321 321 321 321 320 320 319 318 317 315 313 312 312 312 312 312 312 313 313 313 312 311 311 312 312 312 312 312 312 314 315 315 314 314 315 314 314 314 314
321 321 320 320 320 320 319 319 319 318 317 317 314 312 313 313 313 312 312 311 312 312 312 312 311 311 312 311 312 312 312 312 313 314 315 315 315 315 315 315 314 314
320 321 320 319 319 319 318 318 317 317 316 315 314 313 314 314 313 314 313 312 311 312 312 311 311 312 313 312 311 312 313 313 313 314 315 316 316 316 315 315 315 314
320 320 319 318 318 318 317 317 316 316 316 315 314 314 313 314 316 317 316 314 313 312 312 312 312 313 313 313 312 312 312 313 313 314 315 315 315 315 315 315 314 314
319 319 318 317 317 317 317 317 317 316 315 315 315 315 315 316 319 319 317 314 314 313 313 312 312 313 313 313 313 312 312 312 313 313 314 314 314 315 314 314 314 314
317 317 316 316 317 317 318 318 319 318 318 319 318 318 318 319 319 319 317 315 314 314 313 312 312 312 312 313 314 313 313 312 313 313 313 314 314 314 314 314 314 314
312 312 311 311 313 315 317 318 318 318 318 318 319 320 320 319 319 319 319 318 317 316 316 316 315 314 314 313 314 314 314 313 313 313 313 313 313 314 314 313 313 313
306 306 305 305 306 308 311 311 310 309 309 311 313 314 315 316 316 317 318 319 319 319 319 319 319 318 318 317 317 316 316 315 315 314 314 314 314 314 314 314 314 314
303 303 302 301 302 303 304 304 304 303 303 304 305 306 307 308 309 310 312 314 315 317 318 318 317 318 319 320 319 319 319 318 318 317 317 316 316 316 315 315 315 315
302 302 302 302 301 301 301 301 301 301 301 301 302 303 303 303 304 305 305 306 308 310 312 311 311 313 315 317 318 319 320 320 320 320 320 320 319 319 318 318 317 316
301 302 302 302 303 303 301 300 300 299 299 300 300 301 301 301 301 301 302 303 304 305 305 305 305 306 308 310 312 314 316 318 319 320 320 320 320 320 320 320 320 319
299 300 300 300 302 303 301 301 302 301 300 299 299 299 299 299 299 300 300 300 301 301 302 302 302 302 303 304 305 307 308 310 312 314 316 318 319 320 320 320 320 320
298 298 299 299 299 300 299 300 301 301 300 300 299 298 299 298 298 299 299 299 299 299 300 300 300 300 300 301 301 302 303 304 305 306 308 310 312 314 317 318 319 319
298 298 298 298 298 298 298 298 298 299 299 299 298 298 298 298 298 298 298 298 298 298 299 299 299 299 299 299 300 300 300 301 301 301 302 303 305 306 309 312 314 316

ECMWFNIL_925_thetae_033.txt.gz
Theta_e
328 325 325 325 325 324 323 323 323 323 323 323 323 324 324 324 323 323 323 324 324 324 326 327 327 327 328 329 330 331 330 329 329 329 329 328 328 328 328 329 329 329
328 325 324 324 323 323 323 323 323 323 323 323 324 324 324 324 323 323 324 324 325 325 326 327 326 326 326 327 328 329 330 329 328 328 328 327 327 327 327 327 328 328
328 325 324 324 324 324 324 324 324 323 323 324 324 323 323 324 323 323 323 323 323 324 325 325 325 325 325 326 327 328 329 328 327 328 328 327 327 327 326 327 327 327
329 326 325 325 324 324 324 325 324 324 324 324 323 322 322 323 323 322 322 322 322 323 323 324 324 325 326 327 328 328 328 328 328 328 327 327 327 326 326 326 327 327
329 327 326 326 325 325 325 325 324 324 324 323 322 321 322 323 323 322 322 321 322 323 324 325 326 327 327 327 328 328 328 327 327 327 327 326 326 325 325 326 327 327
328 328 326 326 325 324 325 325 324 324 323 322 321 322 322 323 323 322 321 320 321 323 325 327 327 327 327 327 327 327 327 326 325 325 325 324 323 323 325 327 327 327
328 328 327 325 324 323 324 324 324 323 323 322 322 322 323 323 323 322 320 320 321 323 325 326 326 326 326 327 326 325 323 321 319 318 318 319 320 322 324 325 325 326
327 326 325 323 323 323 324 324 323 323 323 322 322 323 323 323 322 321 319 320 322 323 323 324 324 324 324 322 319 317 316 314 313 313 314 316 317 318 318 319 319 320
324 324 322 321 322 322 323 323 323 323 322 322 323 323 323 322 322 320 319 319 322 323 322 322 322 322 321 318 315 315 314 313 312 313 314 315 315 315 315 315 315 315
322 321 320 320 320 321 322 322 322 322 322 322 322 321 321 321 321 320 319 318 319 320 320 319 318 319 319 318 318 318 318 315 313 313 314 314 314 314 314 315 314 314
320 320 320 320 320 321 321 321 322 322 322 321 319 318 319 320 319 319 318 318 317 317 317 316 316 316 316 317 318 317 317 316 314 313 313 313 313 313 314 314 315 315
320 320 320 321 320 320 321 321 322 322 321 319 317 317 317 316 316 316 316 316 316 315 315 315 314 314 314 315 316 315 314 314 315 314 313 314 313 313 312 313 315 315
320 320 320 320 321 321 321 322 322 321 319 317 316 315 314 313 313 313 314 314 314 314 313 313 312 312 312 313 314 313 312 313 315 315 315 314 314 313 313 313 314 315
320 320 320 320 320 321 321 320 320 319 318 317 316 314 312 313 313 312 312 313 313 313 313 312 311 311 311 312 312 312 312 312 313 315 315 314 314 314 314 314 314 314
319 320 320 320 320 320 319 318 318 318 317 317 316 313 313 314 313 313 313 312 312 312 312 312 312 312 312 312 312 312 313 312 312 313 315 315 315 315 315 315 315 314
319 319 320 320 320 319 318 316 316 316 316 316 315 314 314 313 314 315 316 315 313 312 311 311 312 312 312 312 312 312 313 313 313 313 314 315 315 316 316 315 315 315
318 318 318 318 318 318 317 316 316 315 315 315 315 314 314 314 316 318 318 316 314 312 311 311 311 312 312 312 312 313 312 313 313 313 314 314 315 315 315 315 315 315
315 316 316 316 316 316 316 316 316 316 316 316 316 316 316 317 318 318 316 314 314 314 313 313 313 313 312 312 312 313 313 313 313 313 313 313 313 314 314 314 314 314
312 313 313 313 313 313 314 315 315 315 315 315 315 316 317 318 318 318 317 316 315 315 314 314 315 315 315 314 314 314 314 314 314 314 314 314 314 314 313 313 313 313
308 309 308 308 307 308 309 310 311 309 309 310 311 312 313 313 314 315 316 316 315 314 314 314 314 315 317 317 316 316 316 315 315 315 315 315 315 314 315 314 314 315
305 305 304 304 304 305 304 304 304 303 304 305 306 306 306 306 307 308 309 310 311 311 312 312 311 312 314 316 317 318 318 318 318 318 318 318 317 317 317 316 316 316
304 304 304 304 304 304 303 302 301 301 301 301 302 302 302 302 302 302 302 303 304 306 307 307 306 307 310 312 313 315 316 317 318 318 319 319 319 319 319 319 319 319
303 303 304 304 305 306 305 304 304 303 302 301 300 301 300 300 299 299 300 300 300 302 303 303 303 304 305 306 308 309 311 312 312 313 314 315 315 316 317 317 318 319
300 300 301 301 302 304 304 304 305 306 304 303 301 300 300 299 299 298 299 299 299 299 299 300 300 301 301 302 303 304 305 306 306 306 307 308 309 310 311 311 313 314
299 300 300 299 298 299 300 300 302 303 304 304 303 302 302 301 300 300 299 298 298 298 298 299 298 299 299 300 300 301 301 302 302 302 302 303 304 305 306 306 307 308
298 299 299 298 298 298 298 298 298 299 300 301 300 301 301 302 302 302 300 298 298 298 297 298 298 298 298 298 298 299 299 299 299 299 299 300 300 301 302 303 303 304

ECMWFNIL_925_thetae_036.txt.gz
Theta_e
333 333 333 332 332 332 331 330 330 329 329 328 328 328 328 328 328 328 327 327 328 329 329 330 332 333 332 332 332 332 331 331 332 332 332 332 332 332 331 331 329 327
333 332 332 331 331 330 330 329 329 329 328 328 328 328 327 327 327 327 327 327 327 329 329 329 330 331 332 332 331 331 331 331 331 331 332 333 332 331 330 330 329 328
332 331 330 330 330 330 329 328 328 328 328 328 328 327 327 327 326 326 326 326 326 328 329 329 329 329 330 330 331 332 331 330 330 331 332 332 330 329 329 330 331 330
332 331 330 329 329 329 328 328 328 328 327 327 326 326 326 326 326 325 325 325 325 327 328 328 329 328 328 328 330 331 330 329 330 331 332 332 330 329 330 331 331 331
332 331 329 329 328 328 328 327 327 327 327 327 326 325 325 325 325 325 325 325 324 325 326 327 328 328 328 328 328 330 331 331 331 331 332 332 330 330 331 331 332 331
332 331 329 329 328 328 328 327 327 327 326 326 325 325 325 325 324 324 324 324 324 325 326 326 327 327 328 328 327 329 330 330 330 331 330 329 329 329 330 330 332 332
331 331 330 329 328 328 328 327 327 326 326 326 325 325 324 324 324 324 323 323 324 324 326 326 327 327 327 327 327 328 328 327 327 327 326 325 326 327 328 330 331 331
332 331 330 329 328 328 327 327 327 326 326 326 325 325 324 324 323 323 322 323 323 324 325 325 325 326 326 326 325 325 325 325 325 324 323 324 325 325 326 329 330 330
331 331 330 329 328 327 327 327 327 326 326 325 325 325 324 323 322 321 322 323 323 323 323 324 324 324 324 323 322 322 322 322 322 323 323 323 323 323 322 324 325 326
331 330 329 328 327 327 327 327 326 326 326 325 325 324 323 322 321 320 321 323 322 322 323 323 323 323 323 322 321 320 319 319 320 322 322 321 321 320 319 320 321 322
330 329 328 327 327 327 327 326 326 326 325 325 324 323 321 321 319 319 320 321 322 321 321 321 321 321 322 322 322 321 320 318 318 319 320 320 319 319 319 320 321 321
329 329 328 327 327 327 327 326 325 325 325 324 322 321 320 319 318 317 318 320 320 319 319 319 319 320 320 321 321 321 321 320 319 318 319 319 318 318 319 319 320 321
328 327 325 325 325 325 325 325 325 325 324 322 320 320 319 317 316 316 317 318 319 319 319 318 317 318 319 320 320 320 321 321 321 320 319 319 319 318 318 318 319 320
325 325 323 322 322 322 323 324 325 324 322 320 319 318 317 316 315 316 317 318 318 318 317 317 317 317 317 318 318 318 318 320 321 321 320 320 319 319 318 318 318 319
322 323 323 322 321 321 322 322 322 322 321 319 318 318 317 317 316 315 316 316 316 317 318 318 318 317 316 317 318 318 316 316 319 320 321 320 319 318 318 317 317 318
320 321 321 321 320 320 321 320 319 321 321 320 320 319 319 318 318 317 317 316 316 318 318 316 315 313 313 314 316 318 318 317 317 318 320 319 318 318 318 318 317 318
319 319 320 320 320 320 319 318 318 318 320 321 321 321 321 320 320 320 319 319 319 318 315 312 311 312 312 312 313 314 317 319 318 318 319 319 319 319 319 318 318 318
319 318 318 319 319 319 317 316 317 317 317 317 317 319 321 321 321 321 321 320 319 316 313 312 313 312 312 312 312 312 314 317 318 318 318 319 319 319 319 319 319 320
317 316 316 316 317 316 315 315 316 315 316 316 315 316 318 319 319 320 318 317 315 313 313 313 314 314 314 314 314 313 313 315 318 318 318 319 319 319 319 319 320 320
314 314 313 314 314 313 314 314 314 314 314 314 315 315 316 316 316 315 314 313 311 310 310 311 312 314 316 316 316 316 315 316 320 320 320 320 320 320 320 320 320 320
309 309 309 309 309 309 310 310 311 312 311 311 311 312 312 312 312 312 312 311 310 308 306 306 307 309 312 315 316 317 317 318 321 322 321 322 322 322 322 322 322 322
306 306 306 306 306 306 306 306 307 307 307 308 308 308 308 308 309 309 309 309 309 308 306 304 304 305 308 310 312 315 316 317 319 321 321 322 323 322 322 323 323 323
304 304 305 305 305 305 304 304 304 304 303 304 304 303 303 303 304 304 305 305 305 306 305 303 302 303 304 306 307 310 312 314 315 317 318 318 319 319 320 321 321 320
305 305 305 305 305 305 304 304 304 303 302 302 302 301 300 300 300 300 301 301 301 302 303 302 301 301 301 302 303 304 306 309 311 312 314 314 314 315 316 317 317 315
302 303 303 304 304 304 304 304 303 303 304 306 306 305 303 302 302 301 300 300 299 298 299 300 300 300 299 299 300 300 301 304 307 309 310 310 310 310 311 312 313 312
300 300 300 300 300 300 301 301 302 303 304 305 306 305 304 303 304 304 302 302 301 300 300 299 298 298 298 298 298 298 298 300 304 307 306 307 307 307 307 308 309 310

ECMWFNIL_925_thetae_039.txt.gz
Theta_e
334 334 333 332 332 331 332 333 332 331 331 330 330 330 329 330 330 329 329 330 331 331 332 334 334 334 334 333 333 333 332 333 333 333 333 333 333 331 330 330 331 332
334 333 332 333 332 331 332 332 331 330 330 330 330 330 330 329 329 329 328 329 329 329 330 332 334 334 334 333 334 333 333 333 333 333 333 333 333 333 332 331 332 332
333 332 332 333 333 332 331 331 330 331 330 330 330 330 330 329 328 328 328 327 326 327 329 331 331 333 333 333 334 334 333 334 334 333 333 332 332 333 333 333 333 330
333 332 332 333 332 331 331 331 330 331 330 330 329 329 329 328 328 328 327 327 326 327 329 330 330 330 330 331 332 333 334 334 334 333 332 331 332 333 333 332 330 328
332 332 331 332 331 330 330 330 330 330 329 329 328 327 327 327 327 327 326 327 326 327 328 329 329 329 328 328 329 330 332 333 333 333 332 331 332 332 332 330 328 329
330 330 329 329 330 329 329 329 329 329 328 328 326 326 326 327 326 325 325 326 326 326 327 327 328 329 329 328 327 329 330 330 331 331 329 330 330 330 330 329 327 329
330 330 328 328 329 329 329 329 328 328 328 327 326 326 326 326 325 325 325 324 324 324 325 326 326 328 328 327 327 329 329 329 329 329 328 328 329 327 328 328 328 329
330 330 329 328 329 328 329 329 328 328 327 327 326 325 325 325 325 325 324 323 323 323 324 325 325 326 327 327 327 328 329 328 328 327 326 326 327 326 327 329 329 329
329 328 328 329 329 329 329 328 328 328 327 326 326 325 325 325 324 323 322 322 323 323 324 325 325 326 327 326 326 326 326 326 326 325 324 325 326 325 326 329 330 328
329 328 329 329 328 329 329 328 328 327 326 326 326 324 324 324 322 321 321 323 323 324 324 325 325 326 326 325 324 324 324 324 324 324 324 324 324 323 323 325 326 326
329 328 329 329 328 328 329 328 327 326 326 326 325 325 323 322 320 320 321 322 323 323 323 324 324 324 324 323 323 323 322 322 322 323 323 323 322 321 320 322 323 323
329 328 328 328 327 328 328 328 327 326 326 326 325 324 322 321 320 319 320 321 322 321 321 321 322 323 323 323 323 323 322 321 322 322 322 321 321 320 320 321 322 321
328 328 327 327 328 328 328 327 327 326 326 325 324 322 321 320 319 319 319 320 320 320 320 320 320 320 321 322 323 323 323 322 322 322 321 321 320 320 320 321 321 322
328 327 327 327 328 327 327 327 326 325 325 324 322 321 320 319 318 318 319 320 320 320 319 319 320 320 320 320 321 321 322 322 322 322 321 321 321 320 321 321 321 321
329 328 328 327 327 327 326 326 325 324 322 321 321 319 318 318 317 317 318 320 320 319 319 321 321 319 318 319 319 319 321 321 322 322 322 321 321 321 321 321 320 321
329 328 327 327 326 326 326 326 324 322 321 320 320 319 319 318 317 317 317 318 318 320 322 321 318 316 315 317 318 318 320 320 321 321 321 321 321 320 320 320 319 320
327 327 327 327 326 326 325 324 323 321 322 322 321 320 320 319 318 318 318 318 319 321 319 316 313 313 313 314 316 318 320 320 320 320 320 320 319 319 319 319 318 319
325 324 324 324 324 323 322 321 320 321 323 323 323 322 321 321 321 320 320 321 320 318 314 312 312 312 312 312 313 314 316 318 320 320 320 319 319 319 319 318 317 319
321 321 321 320 320 319 318 318 319 320 321 322 322 323 323 323 322 322 321 319 317 314 312 312 312 312 312 313 313 312 313 316 319 319 318 319 319 319 320 320 319 320
318 318 318 317 317 316 316 317 317 318 318 318 318 320 322 322 320 319 317 315 313 312 313 313 313 314 313 313 313 313 313 315 319 320 319 320 320 320 321 322 321 321
316 316 315 315 316 315 315 315 315 315 316 316 316 317 318 318 317 316 314 312 311 311 312 312 313 314 315 315 314 314 314 316 320 321 320 321 322 322 322 322 322 322
312 313 313 313 314 314 313 312 312 313 313 313 314 314 315 316 315 315 314 313 311 310 309 309 310 312 313 315 316 316 316 318 320 320 321 322 323 323 322 322 323 323
310 310 310 310 311 311 310 309 309 309 309 310 311 311 311 312 312 312 312 312 312 311 307 305 305 308 309 311 314 316 317 318 318 319 320 321 322 322 322 322 323 322
307 308 308 308 308 308 308 308 308 307 307 308 308 308 307 307 308 308 308 309 309 309 308 305 303 302 303 305 307 310 313 315 315 316 318 319 319 319 319 320 321 318
305 305 306 306 306 306 306 306 306 306 306 306 307 306 306 305 305 306 305 304 303 303 305 306 303 300 299 300 300 302 304 308 311 313 314 315 315 314 315 316 317 316
303 303 303 304 304 305 305 305 306 306 306 306 306 306 306 305 306 305 305 304 303 302 303 304 303 301 301 300 300 300 299 302 308 311 309 309 309 309 309 310 312 314

ECMWFNIL_925_thetae_042.txt.gz
Theta_e
332 332 332 333 334 333 333 332 332 333 333 333 332 331 331 331 331 331 331 331 332 332 334 334 334 334 333 332 332 331 331 330 330 331 330 329 329 329 329 330 330 329
332 330 332 333 333 332 332 332 332 332 332 331 331 330 331 330 330 330 330 331 331 331 332 332 333 333 332 332 332 330 330 331 330 331 331 329 328 329 329 330 330 331
333 332 332 332 332 332 332 332 331 331 331 331 331 330 330 330 329 329 329 329 329 330 330 331 332 333 331 331 331 330 330 331 330 330 330 329 328 329 330 330 330 331
333 331 331 331 331 331 332 331 331 331 331 331 331 330 330 329 329 328 328 328 328 329 330 330 330 331 330 330 331 331 331 330 329 329 329 329 329 329 329 329 330 329
332 330 330 330 330 331 331 332 332 331 331 330 330 329 329 328 328 328 327 327 327 328 330 330 330 329 329 329 330 331 331 330 328 329 329 328 328 329 329 330 330 330
331 331 331 331 331 331 331 331 331 331 330 329 328 328 327 327 327 327 327 327 327 327 328 329 329 329 329 328 329 329 331 331 330 330 330 328 327 328 329 330 331 331
331 331 332 332 331 331 331 331 330 329 328 327 327 327 327 326 326 326 326 326 325 326 327 327 328 329 329 328 328 328 329 331 330 330 330 330 328 328 330 330 331 331
330 331 331 331 331 330 330 330 329 328 327 326 327 326 326 326 326 325 324 324 324 324 325 326 326 328 328 327 327 328 328 329 329 328 328 328 328 330 330 330 330 331
330 330 330 330 330 330 330 329 329 328 327 327 326 326 326 326 325 323 323 323 323 324 325 326 326 327 327 327 327 328 328 328 327 326 326 325 326 329 329 328 329 330
330 328 328 329 329 330 329 329 328 327 327 326 325 325 326 324 322 322 322 323 324 324 325 326 327 327 326 326 326 326 327 326 325 325 325 325 325 326 328 328 328 329
330 329 328 328 329 329 329 329 328 327 327 325 324 325 325 323 321 321 322 323 324 324 325 325 325 325 325 324 324 324 324 324 325 324 324 325 324 324 326 328 327 328
329 329 329 329 329 329 329 329 328 326 326 326 325 324 323 321 321 321 322 322 322 322 323 323 324 324 323 324 324 323 323 322 323 323 323 323 322 322 324 324 325 327
329 329 329 329 329 329 329 328 327 327 326 326 325 323 322 321 320 320 321 320 321 321 321 320 320 321 322 323 323 323 322 322 322 322 322 321 321 321 322 322 322 324
329 329 329 329 330 329 329 328 327 327 326 325 323 322 321 320 319 320 320 320 321 322 320 319 319 320 320 321 321 323 323 323 323 322 321 321 321 321 321 321 322 322
329 329 329 329 329 329 329 328 327 326 325 323 322 321 320 319 319 319 320 320 322 321 320 319 318 318 319 319 320 321 322 323 323 322 322 322 321 321 321 321 321 321
327 327 328 328 329 329 327 327 326 325 324 322 320 319 318 318 318 318 320 321 322 321 320 319 317 317 317 318 318 319 320 322 322 322 322 322 321 321 321 321 321 321
326 326 326 327 328 328 327 326 325 323 321 320 319 319 318 317 318 319 321 321 321 320 319 318 316 315 315 316 318 318 319 321 322 321 321 321 320 320 320 319 320 320
327 326 326 326 327 327 326 326 324 323 321 320 320 319 318 319 320 321 321 320 319 318 316 315 314 313 313 314 316 317 318 320 320 320 320 320 319 319 319 319 319 320
327 326 326 326 326 326 325 325 324 324 323 322 322 321 321 322 322 320 319 318 316 314 312 312 312 312 312 312 313 315 316 317 319 320 320 320 320 320 320 320 319 320
324 324 325 325 324 324 324 323 323 324 324 324 324 323 322 321 320 319 317 316 313 311 312 312 312 312 312 312 312 312 313 316 320 321 320 320 320 321 322 321 321 321
319 319 320 320 320 320 321 321 321 321 322 322 322 321 319 318 317 316 315 313 311 311 311 311 311 313 313 313 313 312 313 316 320 321 320 321 322 322 322 322 322 322
315 315 315 316 316 317 317 317 317 318 318 319 319 318 317 316 315 314 312 311 310 310 310 309 310 312 313 314 314 314 316 319 320 320 321 322 323 322 322 323 323 322
311 312 312 312 313 313 313 314 314 315 315 316 316 316 315 315 314 313 311 310 309 308 307 308 307 308 310 313 314 316 318 318 318 319 321 322 322 322 321 323 323 321
308 308 309 309 309 309 310 310 311 312 312 313 313 313 313 313 313 313 311 310 308 306 305 305 305 304 306 309 312 314 315 315 314 316 318 318 317 318 320 321 320 318
305 306 306 307 307 307 307 308 308 308 309 309 310 310 309 309 310 310 309 308 308 307 304 302 302 302 302 304 305 307 310 312 313 313 313 312 311 312 315 317 316 313
304 304 305 305 306 306 306 307 307 307 307 307 307 307 307 307 307 306 305 305 305 306 305 304 304 304 304 304 304 303 304 307 309 309 308 307 306 307 310 312 312 310

ECMWFNIL_925_thetae_045.txt.gz
Theta_e
334 333 333 332 332 332 332 332 332 331 332 332 333 333 333 333 332 332 333 334 334 333 334 333 330 330 330 330 331 332 332 333 333 331 331 331 331 330 330 331 329 328
332 333 334 333 332 333 332 332 332 332 332 333 333 333 332 332 331 331 331 332 332 333 333 333 331 331 330 330 330 331 332 332 332 332 331 330 330 330 330 331 330 328
332 333 334 332 333 332 332 332 332 333 333 332 332 331 331 331 331 330 330 331 331 332 332 332 332 331 330 330 330 330 330 330 331 331 330 330 330 330 330 330 329 328
332 333 333 333 333 333 332 332 332 332 332 331 331 330 330 330 330 330 329 330 331 331 331 331 332 331 330 330 330 329 329 329 330 331 330 329 329 329 329 329 329 329
332 333 333 333 333 332 332 332 332 331 331 331 330 330 329 329 329 328 328 329 330 330 330 330 330 330 330 330 330 330 330 330 330 330 330 328 328 328 329 329 329 330
332 333 333 332 332 332 332 331 331 331 330 330 329 329 328 328 327 327 328 329 329 329 329 329 329 330 330 329 329 329 330 330 330 329 330 329 328 328 329 329 330 330
332 332 332 332 331 331 331 331 331 330 330 329 328 328 328 327 327 327 326 327 328 329 329 329 328 329 329 328 328 329 330 330 329 329 329 329 328 329 329 329 330 330
331 331 331 331 332 331 331 331 330 330 328 328 327 327 327 327 326 326 326 326 327 328 328 329 329 328 329 328 328 329 330 330 329 329 329 329 329 329 329 330 331 329
330 330 330 331 332 331 331 330 329 328 327 327 326 326 326 326 325 325 325 325 325 326 327 328 328 328 328 328 328 329 329 329 329 329 329 329 329 329 330 330 331 330
331 331 331 331 331 331 330 329 327 327 326 326 325 326 326 325 324 323 323 324 324 325 326 327 327 327 327 327 328 329 328 328 328 327 327 328 328 329 330 330 330 330
331 331 331 331 330 330 329 328 327 326 326 325 325 326 325 323 322 322 323 324 324 324 326 326 326 326 327 327 327 327 327 327 327 326 326 326 328 329 330 329 329 330
329 331 331 330 329 329 328 327 327 326 325 325 325 325 323 321 321 322 323 323 324 325 326 326 325 325 325 325 325 325 325 325 326 325 325 326 326 328 328 328 328 330
327 329 330 330 329 328 328 327 327 326 324 325 325 324 322 321 321 322 323 323 324 325 325 324 324 324 323 323 324 324 324 324 324 324 324 325 325 326 327 327 327 328
327 327 329 330 329 328 327 327 327 325 324 324 324 322 320 320 321 321 321 321 322 322 323 323 323 323 323 323 323 323 323 323 322 322 323 324 324 324 325 326 326 325
327 327 328 329 329 328 327 327 326 325 324 324 323 321 320 320 321 321 320 320 320 320 320 321 322 322 322 322 322 322 322 322 321 321 322 322 323 323 324 325 324 323
327 328 327 327 328 328 327 326 326 325 324 323 321 319 319 320 320 320 320 318 318 318 318 319 319 320 321 321 322 322 322 322 321 321 321 321 321 322 322 323 322 321
327 327 327 327 327 327 327 326 325 324 322 321 320 318 318 320 321 320 319 318 318 317 317 317 317 318 319 320 320 321 322 322 321 321 321 321 320 320 321 321 321 322
326 326 326 326 326 326 326 326 324 323 321 319 318 318 319 320 320 320 318 318 317 317 316 315 316 316 317 318 319 320 321 321 321 321 320 320 320 320 320 320 319 319
325 325 325 325 325 325 325 324 322 321 320 319 318 319 319 319 319 318 317 317 317 317 315 313 313 314 315 317 318 318 319 320 321 320 320 321 321 320 319 318 317 316
325 325 325 325 324 324 324 323 321 321 320 320 320 319 318 318 318 316 315 314 314 314 313 312 312 312 313 315 316 316 318 320 320 320 321 321 321 321 319 318 318 318
321 323 324 323 322 323 322 322 321 321 320 320 319 318 317 317 315 313 311 311 310 311 311 311 311 311 312 313 313 314 318 321 321 321 322 322 322 322 321 320 319 319
312 315 318 318 318 320 320 318 318 318 318 318 317 316 315 314 312 310 309 308 309 310 310 310 310 311 312 313 314 316 318 320 322 322 322 322 322 322 321 321 321 321
307 309 311 312 313 314 315 315 314 314 315 316 315 313 312 310 308 307 307 307 308 308 309 309 309 310 312 314 315 317 319 320 321 321 321 321 322 321 321 321 319 320
306 306 307 309 309 310 310 311 312 312 312 314 314 312 310 308 307 305 305 305 306 306 306 307 306 307 311 313 314 315 317 318 319 319 319 319 319 318 318 317 315 313
306 305 306 307 308 308 308 309 309 309 310 311 312 311 310 309 308 306 304 303 303 303 304 305 304 304 306 310 311 312 313 313 313 314 315 314 314 313 312 312 310 309
304 305 305 306 307 307 307 307 307 308 308 309 309 309 309 308 307 306 304 303 303 303 303 304 304 304 304 305 307 308 309 308 308 309 310 311 311 310 309 309 308 308

ECMWFNIL_925_thetae_048.txt.gz
Theta_e
334 333 332 332 331 331 331 332 331 331 330 331 331 331 332 333 334 333 332 333 333 332 332 331 331 331 330 330 330 330 329 330 331 332 332 331 331 330 330 330 330 328
333 334 333 332 331 331 331 331 331 330 330 331 331 331 333 333 332 332 332 333 333 332 332 331 331 330 330 330 330 330 330 330 331 332 332 331 331 331 330 330 329 329
329 331 333 332 331 331 331 331 331 331 330 331 332 332 333 333 332 332 333 333 332 332 332 331 331 331 330 330 330 330 330 330 331 332 332 332 331 332 331 330 329 329
327 328 331 332 331 331 331 331 331 331 331 331 332 333 333 333 332 332 333 332 332 332 332 332 332 331 330 330 330 331 330 331 332 332 332 331 331 331 331 330 330 329
328 328 331 332 332 331 331 331 331 331 331 332 333 332 332 332 331 332 333 332 332 332 332 332 332 331 330 330 330 331 331 331 332 332 331 331 330 330 330 331 330 329
330 330 330 330 331 332 331 332 332 331 332 332 332 332 331 331 331 331 332 332 332 332 332 332 331 331 330 330 330 330 331 331 331 331 331 330 330 329 329 331 330 329
329 330 329 327 329 331 332 332 332 332 332 332 332 331 331 331 330 330 330 330 331 331 331 331 330 331 330 330 330 330 329 329 329 330 331 329 329 329 329 330 330 329
327 329 329 327 326 329 332 331 332 333 333 331 330 329 330 329 328 329 330 330 330 330 329 329 329 329 330 329 329 329 329 329 329 329 330 329 328 328 329 329 329 329
327 328 329 328 326 327 330 331 331 332 331 330 329 329 328 328 327 328 329 329 329 329 328 328 328 328 328 328 328 329 329 329 329 329 329 329 328 327 328 329 329 329
328 328 329 328 326 326 329 331 331 330 330 329 328 327 327 326 327 327 328 328 328 329 328 328 328 328 327 328 328 328 329 329 329 329 329 329 328 328 328 328 329 329
329 329 328 328 327 326 327 330 331 329 328 326 326 327 326 326 326 326 327 328 328 329 328 328 328 328 328 328 327 328 328 328 328 328 329 329 328 328 328 328 329 329
330 329 328 327 327 326 325 328 329 328 326 326 326 326 326 325 325 325 326 327 327 328 328 328 327 327 327 327 327 328 328 328 328 328 328 328 328 328 329 329 329 329
329 329 328 328 328 327 325 326 327 327 326 326 325 325 325 324 323 324 325 325 326 328 328 327 327 327 327 327 327 327 327 327 327 326 326 327 328 328 329 329 329 329
327 327 327 328 328 327 326 325 326 326 325 325 325 325 324 322 323 324 324 325 326 327 327 326 326 326 326 326 326 327 327 327 326 326 325 326 327 327 328 329 329 329
326 326 327 327 327 326 326 325 326 325 325 325 324 323 321 322 323 323 323 324 326 326 325 325 324 324 324 324 325 325 325 325 325 325 325 325 326 326 327 328 328 328
325 325 326 327 326 326 325 325 325 325 325 324 322 321 321 322 323 323 323 324 325 324 323 323 323 322 322 322 323 323 323 323 323 323 324 324 324 325 327 328 328 328
325 325 326 326 326 326 326 325 325 325 323 321 321 320 321 322 322 323 324 324 323 323 322 321 322 322 322 322 322 321 321 321 321 322 323 323 323 324 325 327 327 326
324 325 325 326 326 326 325 325 324 323 321 320 320 320 320 320 320 321 321 321 321 321 321 321 321 321 321 321 321 322 321 321 321 321 322 322 323 323 324 325 325 324
323 325 325 326 326 325 325 324 323 321 320 320 319 318 318 318 318 318 318 318 319 319 319 319 320 319 320 320 320 321 321 321 321 320 321 321 322 322 323 323 322 322
320 323 324 325 325 324 324 323 321 319 318 318 317 317 316 316 316 316 316 316 317 318 317 318 318 318 318 319 320 320 320 321 320 320 320 321 321 321 321 320 319 318
315 318 321 322 323 324 323 321 320 318 315 314 314 314 314 314 314 314 314 314 314 315 315 315 316 316 316 319 320 320 320 320 320 320 320 319 318 319 318 317 317 317
308 311 315 316 318 321 321 318 317 316 313 311 311 311 311 312 311 311 312 311 311 312 313 313 313 313 315 318 321 320 320 320 320 320 319 317 317 317 317 316 316 317
306 307 309 310 311 313 315 314 313 311 310 309 309 307 307 307 307 307 307 308 309 311 312 312 313 313 315 319 321 321 321 321 321 319 318 317 316 316 316 315 315 316
306 306 306 307 307 308 309 310 309 308 307 307 306 305 303 303 304 304 304 305 306 308 309 311 312 313 315 319 321 321 321 321 321 320 318 317 315 314 314 314 314 313
306 306 306 306 306 306 307 307 307 306 305 305 304 304 302 302 302 302 302 302 302 303 305 307 308 309 313 317 320 321 321 321 321 320 317 314 313 311 311 311 311 310
304 305 306 306 306 306 306 306 306 305 305 304 303 302 301 301 301 301 301 300 300 301 301 301 302 303 308 313 317 319 320 321 321 320 316 312 310 309 309 308 308 308

ECMWFNIL_925_thetae_051.txt.gz
Theta_e
328 328 329 331 331 331 331 329 328 329 329 329 330 331 331 331 330 330 330 331 332 332 332 332 331 331 331 332 331 331 331 330 329 330 330 331 332 331 331 330 330 330
329 329 330 332 332 332 331 330 329 329 329 330 330 331 331 330 329 329 330 331 332 332 332 331 331 332 332 331 331 330 330 329 329 330 330 330 331 331 331 330 330 330
328 329 329 331 332 332 332 331 330 330 330 331 331 331 331 330 329 329 330 332 332 332 332 332 332 332 331 330 330 330 330 329 329 330 330 330 330 331 331 331 330 330
327 328 328 330 332 332 332 331 331 331 330 331 331 331 330 330 329 330 331 332 332 332 332 333 332 331 330 330 329 329 330 329 329 330 331 331 331 331 331 330 330 330
326 327 326 329 331 332 332 331 330 331 331 331 331 330 330 330 330 331 332 332 332 332 332 333 332 330 330 329 328 329 330 329 329 330 331 331 331 331 331 330 330 330
327 327 327 328 331 331 331 331 330 330 331 331 331 330 330 330 331 332 332 332 332 332 332 332 331 330 329 329 329 329 329 329 329 329 330 331 331 331 331 331 330 330
326 327 328 327 329 331 331 330 330 330 330 330 331 330 330 331 332 332 332 332 332 332 332 332 331 331 330 329 329 329 329 330 329 329 330 332 331 331 331 331 331 330
326 327 327 327 328 330 330 329 329 329 330 330 330 331 331 331 332 332 331 331 332 331 331 331 331 331 330 330 329 329 329 330 330 329 330 331 331 330 330 330 330 330
326 326 327 328 329 329 330 329 329 329 329 329 329 330 332 332 332 331 330 330 331 330 330 331 331 331 330 330 330 329 329 330 330 330 330 331 330 330 329 329 330 330
326 326 327 328 329 330 330 330 329 328 329 328 326 327 331 332 331 331 330 330 330 329 329 330 330 330 330 330 330 329 329 330 329 329 329 330 330 329 328 328 329 330
326 325 327 328 329 330 330 330 329 328 328 328 325 324 329 332 331 330 330 329 329 329 329 330 329 329 329 328 329 329 329 329 329 329 329 329 329 329 328 328 328 329
326 325 327 327 328 329 329 329 329 327 327 328 326 324 328 331 330 329 329 329 329 329 329 329 328 328 328 327 328 328 328 329 329 329 329 329 329 329 328 327 327 328
326 326 326 326 327 328 329 329 328 327 327 326 326 325 327 329 328 328 328 328 329 329 328 328 328 328 327 327 327 327 328 329 328 328 329 328 329 328 328 327 327 327
326 326 326 326 327 327 328 327 327 327 327 326 326 326 326 327 327 327 327 328 328 328 328 328 328 328 328 327 327 327 328 328 328 328 328 328 328 328 327 328 328 328
325 326 326 326 327 327 328 327 327 327 327 325 326 326 326 326 326 326 327 328 328 328 328 328 328 327 327 327 327 327 327 328 328 327 327 327 328 328 327 328 328 328
323 325 326 326 327 327 327 327 327 327 326 325 325 326 326 326 326 325 325 326 327 327 327 327 327 326 326 326 326 326 326 327 327 327 326 326 326 327 327 328 328 329
321 324 325 326 327 327 327 327 327 326 325 324 325 325 325 324 324 324 324 324 325 326 326 327 326 325 325 325 325 325 325 325 325 326 325 325 325 326 327 328 328 329
319 323 324 325 326 326 326 326 326 326 325 325 325 325 323 322 322 323 323 324 325 325 325 325 324 323 323 322 323 323 323 324 324 323 324 325 325 325 325 326 327 328
317 321 322 323 325 326 326 325 325 325 324 323 323 324 322 321 321 322 322 323 324 324 324 323 322 322 322 321 321 321 321 322 322 322 323 324 324 324 325 326 326 326
313 315 317 319 322 325 325 324 323 323 322 321 320 320 319 319 319 320 320 320 321 321 321 321 321 321 321 321 321 320 320 321 321 322 322 323 324 324 325 324 323 324
310 311 313 314 318 321 323 323 322 320 319 318 317 316 315 316 316 316 316 316 316 317 318 318 319 320 321 321 321 321 320 320 321 321 322 322 322 322 322 321 320 320
307 309 310 310 312 316 319 320 319 317 316 316 315 312 311 311 311 311 311 312 312 313 314 316 318 319 320 320 320 320 320 320 320 320 320 320 319 318 318 317 317 316
305 307 308 307 308 309 311 311 312 312 312 313 312 310 307 306 306 306 307 309 310 311 312 314 316 319 320 319 320 320 320 320 319 318 318 317 316 316 316 316 315 315
304 305 306 306 305 306 306 306 306 306 306 307 308 307 304 303 302 302 304 306 308 309 310 313 316 318 319 319 319 319 319 319 319 317 316 315 314 313 313 313 312 313
303 304 305 305 305 304 304 303 303 302 302 302 304 305 304 303 302 300 301 303 305 306 308 311 314 315 317 317 316 316 316 317 317 316 314 312 311 310 310 309 309 309
303 303 304 304 304 304 303 302 301 300 300 299 300 302 303 303 302 301 300 300 301 303 306 308 310 312 313 313 312 312 312 312 313 313 312 310 310 309 308 307 306 306

ECMWFNIL_925_thetae_054.txt.gz
Theta_e
331 329 328 328 328 328 328 329 328 328 326 327 329 329 328 329 330 330 330 330 331 331 331 331 331 332 331 331 330 330 331 331 331 331 330 330 330 330 330 330 329 330
329 327 327 327 327 328 329 330 329 328 328 328 328 328 328 328 329 331 332 331 331 331 331 331 332 332 332 331 331 331 331 331 331 331 330 329 329 330 331 330 329 329
327 327 327 327 328 328 330 331 330 329 329 329 328 328 328 328 329 330 332 331 331 331 331 332 332 332 332 331 331 331 331 331 331 330 330 329 329 330 331 330 329 329
326 327 328 328 328 329 330 330 329 329 330 330 329 328 328 329 329 330 331 331 331 331 331 332 332 332 331 331 331 331 331 330 330 330 329 329 329 329 330 331 329 329
326 326 327 328 328 328 329 329 329 330 331 331 329 328 328 330 330 330 331 331 330 331 331 332 332 331 331 331 331 331 330 330 329 330 329 328 329 329 330 330 330 330
326 326 326 326 326 327 327 328 329 331 331 331 330 329 329 330 330 330 331 330 330 330 331 332 332 331 331 332 331 330 329 329 329 329 329 328 329 330 330 330 330 330
326 326 326 326 325 326 327 328 330 331 331 331 330 330 330 329 329 330 330 330 330 330 332 332 332 331 331 331 330 329 329 328 328 329 329 328 328 329 330 330 330 330
326 326 325 325 325 326 327 328 330 331 331 330 330 330 330 330 330 330 329 330 330 331 331 332 332 331 331 331 330 329 328 328 328 328 328 327 327 329 330 330 330 330
326 326 325 325 325 326 326 327 328 330 330 330 330 330 330 330 330 330 330 330 330 331 331 331 332 331 331 331 330 329 329 328 328 327 327 327 327 328 329 330 330 330
326 326 325 325 325 326 326 327 328 328 328 328 329 330 330 330 330 330 331 331 331 331 331 331 331 331 331 331 330 329 329 329 328 327 327 327 327 328 329 329 329 330
325 325 325 325 325 325 325 326 327 328 327 328 329 329 329 329 329 329 331 331 331 331 331 331 331 330 330 331 330 330 329 329 329 328 328 327 327 328 329 330 330 329
322 324 325 325 325 325 325 325 327 327 327 327 328 329 328 327 327 328 330 331 331 331 330 330 330 330 330 330 330 330 329 329 329 329 329 329 328 328 329 330 329 328
321 322 324 325 325 325 325 325 326 327 327 327 328 328 328 326 325 326 328 330 330 330 330 330 330 329 329 329 329 329 328 329 328 328 329 329 328 328 329 329 329 328
318 321 323 325 326 326 326 325 325 326 327 327 327 327 327 325 324 325 328 329 330 330 330 329 329 329 329 328 328 328 328 328 328 328 328 328 328 328 328 329 329 328
315 319 322 324 326 326 326 327 326 326 327 326 326 327 327 325 325 326 328 329 329 329 328 328 328 329 328 328 327 327 327 327 327 328 328 328 328 328 328 328 328 327
311 315 319 322 324 325 326 327 326 326 326 325 326 327 327 326 327 328 328 328 329 328 327 327 328 328 328 328 327 327 327 327 327 327 328 328 328 328 328 327 327 327
309 312 315 318 321 323 325 326 326 326 326 325 326 326 326 326 327 327 327 327 327 327 327 327 328 328 327 327 327 327 326 327 327 327 328 327 327 327 328 327 327 327
306 310 313 316 318 320 322 324 325 325 325 325 325 325 325 326 326 326 325 325 326 326 327 327 327 327 327 327 327 326 326 326 326 327 327 327 327 327 327 327 327 327
305 307 310 313 315 318 320 323 324 325 325 324 324 324 324 325 324 323 323 324 325 325 325 326 326 326 326 326 326 325 324 324 325 325 326 327 327 327 326 326 326 327
304 305 307 309 312 316 318 320 321 322 323 322 321 321 322 322 321 320 320 321 322 323 323 323 324 324 325 325 324 323 322 323 323 324 325 325 326 326 325 325 326 326
303 304 305 306 309 312 314 315 316 317 317 317 317 317 318 319 318 317 317 317 318 319 320 320 321 322 323 322 322 321 321 321 322 322 322 323 324 324 324 324 325 325
302 303 303 304 305 307 308 309 309 310 310 310 310 311 312 313 314 314 313 313 314 315 316 317 318 320 320 320 320 320 319 320 320 320 321 322 323 323 323 324 324 324
302 302 302 302 302 304 304 304 304 304 304 305 305 305 305 307 308 310 310 310 311 312 313 314 316 318 319 319 319 319 319 319 319 319 320 320 321 321 321 321 321 322
302 302 302 301 301 301 302 302 302 302 301 301 302 301 301 302 303 305 307 308 309 310 311 313 314 315 316 318 318 318 318 318 318 318 317 317 317 317 317 317 317 318
302 302 301 301 301 301 301 301 301 301 300 301 300 300 300 300 300 302 305 307 308 308 309 310 311 311 313 315 316 316 317 316 316 316 315 313 312 312 312 313 314 315
302 302 301 301 301 301 301 300 301 301 301 301 301 300 300 300 299 299 301 304 306 307 307 307 307 308 309 311 312 314 314 314 314 313 311 309 308 308 307 307 308 310

ECMWFNIL_925_thetae_057.txt.gz
Theta_e
327 328 328 328 328 327 327 328 330 330 330 330 330 330 331 331 331 330 330 330 330 330 330 329 330 329 330 330 329 329 331 331 331 331 330 330 330 330 329 329 329 330
326 326 327 327 327 327 327 328 329 329 330 330 330 330 330 330 330 330 330 330 330 330 330 330 330 329 329 330 330 330 331 331 331 330 330 330 330 330 330 329 329 329
327 326 326 327 327 327 327 327 327 327 328 330 330 330 330 330 330 329 329 329 329 330 330 330 331 330 330 330 331 330 330 330 330 330 330 330 330 330 330 329 329 329
326 327 327 327 327 327 327 327 327 327 328 329 330 330 330 329 329 329 328 329 329 329 330 331 331 330 330 331 331 330 329 330 330 330 330 330 330 330 330 329 329 329
326 326 327 327 327 327 327 328 327 327 328 329 330 330 329 329 329 329 329 329 329 330 330 331 331 330 330 330 330 329 328 329 330 330 329 329 329 329 330 329 329 329
325 326 326 326 326 327 327 327 328 328 329 329 329 329 329 329 329 329 329 329 330 330 331 331 330 330 330 330 329 328 328 330 330 329 329 329 329 329 329 329 329 329
323 325 326 326 326 326 326 326 327 328 328 328 329 329 329 329 329 329 329 330 330 331 331 331 330 330 331 330 329 329 328 329 329 329 329 329 329 329 329 329 329 330
321 324 326 326 326 326 325 326 326 327 328 328 329 329 329 329 329 329 330 330 330 331 331 330 330 330 331 330 329 329 329 329 329 329 329 329 329 329 329 329 329 329
318 321 324 326 326 326 325 325 326 327 327 328 329 329 329 329 329 330 330 330 330 330 331 330 330 330 330 330 329 329 329 329 329 329 329 329 329 329 329 329 329 329
315 317 321 323 325 326 326 325 326 327 327 327 328 329 329 329 329 330 330 330 330 330 330 330 330 330 330 331 330 329 329 329 328 329 329 329 329 329 329 329 328 329
313 315 317 320 323 324 325 325 325 325 325 325 327 328 329 329 329 330 330 330 330 330 330 330 330 330 330 331 330 330 329 328 328 329 329 329 329 329 329 329 329 329
311 313 315 318 321 323 324 325 324 324 325 325 326 327 328 328 328 329 329 330 330 331 331 331 331 330 330 330 330 330 329 328 329 329 329 329 329 328 328 328 329 329
309 311 312 315 319 321 323 324 324 324 324 325 326 328 327 327 327 328 329 329 330 331 331 331 330 330 330 329 329 330 330 329 328 328 328 328 328 328 328 328 328 328
307 309 310 312 316 320 322 323 324 324 325 325 325 327 327 326 326 327 327 328 330 331 331 331 330 329 329 329 328 329 329 329 328 328 327 327 327 327 327 327 328 327
306 308 309 310 314 318 320 322 323 324 325 325 325 326 326 326 325 325 326 327 329 330 330 330 330 329 329 329 328 328 328 328 327 327 327 326 326 326 326 327 327 327
306 307 307 308 311 315 318 320 322 323 324 324 325 325 325 325 324 324 325 326 328 329 330 330 329 329 328 328 328 328 327 328 327 327 327 326 326 326 326 326 327 327
305 306 306 307 308 311 315 317 320 323 323 324 324 325 325 324 324 323 324 325 327 328 329 328 328 328 327 328 328 328 327 328 328 327 327 327 327 326 326 326 327 327
304 304 305 305 306 308 310 313 316 319 321 322 323 323 323 324 323 322 322 324 325 326 327 327 327 327 327 327 327 327 327 327 327 327 327 327 327 327 326 326 326 327
303 304 304 304 304 305 307 310 312 314 315 317 318 320 320 321 321 321 321 322 323 324 325 325 325 326 326 327 326 326 326 327 326 327 327 327 327 327 327 326 326 326
303 303 303 303 303 303 304 305 307 309 310 311 313 314 314 314 315 316 317 318 320 321 323 323 324 325 326 326 326 326 326 326 325 325 325 326 327 327 326 326 326 325
303 302 303 303 302 302 302 302 303 305 306 307 307 308 308 308 308 310 311 313 315 316 319 320 321 322 324 325 325 325 326 326 324 323 323 324 325 326 326 326 326 326
302 302 302 302 302 302 302 302 302 302 303 304 305 305 305 305 306 306 307 308 310 311 313 316 318 320 321 323 324 325 325 324 323 322 322 323 324 325 326 326 326 325
302 302 302 302 302 302 302 302 301 301 302 303 304 304 304 304 304 303 304 305 307 308 310 311 314 317 319 320 321 323 323 322 321 321 321 322 323 324 325 325 325 325
302 302 302 302 302 302 302 301 301 301 301 301 302 302 302 303 303 303 303 303 303 304 306 308 310 313 316 318 318 320 321 320 320 320 320 320 320 321 322 322 323 324
302 302 302 302 302 302 302 302 301 301 301 301 301 301 301 301 302 302 302 302 302 302 302 304 305 307 311 315 316 317 318 318 319 319 318 317 316 316 317 317 318 319
301 302 302 302 302 302 302 302 301 301 301 300 300 300 300 300 300 300 300 300 301 301 301 301 301 302 306 310 313 314 315 316 317 318 316 313 311 311 311 311 311 312

ECMWFNIL_925_thetae_060.txt.gz
Theta_e
329 329 329 329 330 330 330 331 331 331 332 332 333 333 333 333 333 333 332 332 332 332 332 332 332 333 332 331 331 331 332 332 330 330 330 330 331 331 331 332 333 332
327 328 329 329 329 330 329 330 330 330 331 332 332 332 332 332 333 333 333 332 332 333 333 333 333 332 331 331 331 331 332 331 331 330 330 330 330 330 331 332 333 332
325 327 328 329 330 330 330 330 330 330 330 331 331 332 332 332 332 333 333 333 332 332 333 333 333 331 330 331 331 331 331 331 331 331 331 331 330 330 332 332 333 331
322 324 326 328 329 329 330 330 330 330 329 330 330 331 332 332 332 332 333 333 332 332 332 333 332 331 331 331 331 331 331 331 331 331 331 332 332 331 332 331 331 331
320 321 323 326 328 329 329 329 330 330 329 330 330 331 332 332 332 331 332 332 331 331 332 333 332 331 331 331 331 332 332 332 332 332 332 333 332 332 331 331 330 331
317 319 321 323 327 328 329 329 329 329 329 330 330 330 331 332 331 331 331 331 331 331 332 332 333 332 331 331 331 332 332 332 332 332 332 332 332 332 332 331 331 332
316 317 318 321 324 326 329 329 329 329 329 329 330 330 331 331 331 331 330 331 330 331 332 332 333 333 331 331 331 331 332 332 332 332 332 332 332 332 332 331 332 332
315 315 316 318 321 324 327 328 328 328 328 328 329 329 330 331 331 330 330 330 331 331 332 332 332 332 331 331 331 331 332 332 332 333 332 332 332 332 332 332 332 332
314 314 314 316 318 321 324 326 327 328 328 328 328 328 329 329 330 331 330 330 331 331 330 330 331 332 331 332 332 332 332 332 332 333 332 332 332 332 332 331 332 332
313 313 313 314 316 318 321 324 326 327 328 327 326 327 328 328 329 330 330 330 331 331 330 330 331 332 332 332 332 332 332 332 332 332 332 332 332 331 332 331 332 332
312 312 312 312 313 315 318 322 325 327 327 326 325 324 325 327 328 329 330 330 330 329 329 330 331 332 332 332 332 332 332 332 332 332 332 332 332 331 331 331 332 332
311 311 311 311 312 313 315 319 324 326 326 325 324 323 324 326 328 329 329 329 329 329 328 329 331 332 332 332 332 332 332 332 332 332 332 331 332 331 331 331 331 331
310 310 311 311 311 312 314 317 322 325 325 324 324 324 325 327 327 328 329 329 329 329 329 330 332 333 333 332 332 332 331 331 332 331 331 331 332 332 331 331 331 331
309 310 310 310 310 310 312 314 318 323 324 324 324 324 325 326 326 327 328 329 329 330 329 330 330 331 332 332 332 331 331 331 332 331 331 331 331 331 331 331 331 331
309 309 310 310 309 309 310 311 314 319 322 323 324 324 324 324 325 327 327 328 329 329 328 328 328 329 332 332 331 331 330 330 331 331 331 331 330 330 330 330 330 331
308 308 309 309 309 308 308 308 310 314 318 320 322 324 323 323 324 325 326 327 329 329 328 328 327 329 331 331 330 330 329 330 330 330 330 330 330 330 330 329 330 330
308 308 308 308 308 308 308 307 307 309 312 315 318 320 321 322 323 324 325 326 327 328 328 328 329 330 331 330 329 329 330 330 330 329 329 329 329 329 329 329 329 330
307 308 308 307 307 307 307 306 306 306 307 309 312 314 316 318 319 320 322 324 325 325 326 326 327 329 330 330 329 328 329 329 330 330 329 329 329 329 329 329 329 330
307 307 307 307 307 306 306 306 305 305 305 306 307 308 311 312 313 315 317 318 319 321 322 323 323 324 326 328 328 328 328 328 329 329 330 329 330 330 329 329 329 330
307 307 307 307 306 306 306 305 305 304 304 305 305 305 306 308 309 310 311 312 314 316 318 319 320 321 322 325 327 328 328 327 327 328 329 329 330 330 330 330 330 330
306 306 306 306 306 306 305 305 305 304 304 304 304 304 304 305 306 307 308 309 310 311 313 313 314 317 319 322 324 325 326 326 326 327 328 328 329 330 330 330 330 330
305 305 306 306 305 305 305 305 305 304 303 303 303 303 303 303 303 304 304 305 307 308 310 310 310 312 315 318 320 322 323 323 324 326 327 327 328 329 329 330 329 329
305 305 305 305 305 305 305 305 304 304 304 303 303 303 302 302 302 302 302 303 303 304 306 308 308 310 312 314 316 318 319 320 322 324 326 326 327 327 327 328 328 329
304 304 304 304 305 305 304 304 304 304 304 303 303 303 302 301 301 301 301 301 301 301 302 304 305 307 309 312 314 315 317 318 320 323 324 325 325 325 324 324 325 327
303 303 303 304 304 304 304 304 304 304 304 303 303 303 302 302 301 301 300 300 300 300 300 301 302 304 306 309 311 313 314 314 317 321 323 322 321 321 320 318 319 323
302 303 303 303 303 303 304 304 303 303 303 303 303 303 303 302 302 301 301 300 300 300 299 299 299 300 302 305 307 310 311 310 312 315 317 318 317 318 317 315 314 317

ECMWFNIL_925_thetae_063.txt.gz
Theta_e
327 328 329 330 331 332 332 332 332 333 333 333 334 334 333 334 335 335 336 336 334 334 335 334 333 334 334 333 334 333 332 333 332 332 331 330 331 331 331 331 332 332
325 326 326 328 329 331 332 332 332 332 333 333 333 334 334 335 334 334 335 335 335 335 335 334 333 334 334 333 334 334 333 333 333 332 332 331 332 333 332 331 331 332
323 324 325 326 327 328 330 331 332 332 332 332 333 333 334 335 334 333 332 333 334 334 333 333 334 334 334 333 334 333 333 333 333 333 332 332 332 333 333 332 331 332
321 322 324 324 325 326 328 330 331 332 332 332 332 332 333 333 333 332 332 333 333 333 332 333 334 334 333 333 333 333 333 334 334 333 332 332 332 332 332 332 332 331
320 321 322 322 323 324 326 328 330 331 332 331 332 332 332 332 332 332 331 331 332 333 332 331 333 334 333 332 333 333 333 333 334 333 333 333 332 331 332 332 331 331
318 319 320 320 321 322 324 326 328 330 331 331 331 331 332 331 331 331 331 331 331 332 331 331 333 333 332 332 332 332 332 332 333 333 333 333 333 332 332 331 331 331
317 318 318 318 319 320 322 324 326 328 329 330 331 331 331 331 331 331 331 330 330 331 331 331 333 333 332 332 332 331 331 331 332 333 333 332 332 332 332 332 331 331
316 316 317 317 317 318 319 321 322 324 326 328 330 330 330 330 330 330 330 330 330 330 330 331 332 332 331 331 331 331 330 331 332 333 332 332 332 332 332 332 332 333
315 315 316 316 316 316 317 318 319 321 324 327 329 329 330 329 328 328 328 329 329 329 329 331 331 331 330 331 331 330 330 331 333 333 333 332 332 332 332 332 333 333
314 314 315 315 315 315 315 315 317 319 321 324 327 328 328 328 328 326 326 327 329 329 330 331 331 330 331 330 330 330 330 332 332 332 332 332 332 332 332 332 332 331
313 313 314 314 314 314 314 313 314 316 318 321 325 328 328 327 327 326 325 326 328 329 329 329 329 330 330 329 329 330 330 329 331 332 333 333 333 332 332 331 331 331
313 313 313 313 313 313 313 312 312 313 315 318 321 325 326 326 325 325 325 326 328 329 329 329 329 330 330 328 328 329 329 329 330 331 332 333 333 332 332 331 331 331
312 312 312 312 313 312 312 312 311 311 313 315 317 320 322 323 323 325 326 327 328 329 329 329 329 330 329 328 328 328 329 330 329 327 330 333 333 333 332 332 332 332
312 312 312 312 312 312 311 311 310 309 310 312 314 316 317 319 320 322 324 327 328 328 329 328 328 329 328 328 328 328 329 329 327 327 331 333 333 333 333 332 331 331
311 311 311 311 311 311 311 310 310 308 308 309 310 311 313 315 317 318 320 324 326 326 327 327 327 327 327 326 327 328 328 328 328 330 333 333 332 333 332 331 331 331
310 311 311 310 310 310 310 310 309 308 308 307 308 309 309 311 313 314 315 318 322 324 326 326 326 325 326 326 326 327 328 328 327 329 331 331 332 332 332 331 331 332
309 310 310 310 310 309 309 309 309 308 307 307 307 307 307 308 309 310 310 312 317 321 323 324 323 323 324 325 326 326 327 327 327 327 328 330 332 332 332 332 332 332
309 309 309 309 309 309 309 308 308 308 307 306 306 306 306 306 307 307 307 308 311 315 317 318 318 319 321 322 324 325 325 327 327 327 327 329 330 331 330 331 331 331
307 308 308 308 308 308 308 308 307 307 307 306 306 305 304 305 305 306 305 305 307 309 311 312 312 314 316 317 320 322 325 327 328 327 327 328 328 328 329 330 331 331
306 307 307 307 307 307 307 307 307 307 306 306 306 305 304 303 304 304 304 304 304 304 306 307 308 309 311 313 315 318 321 325 327 328 327 328 327 327 327 329 330 331
306 306 306 306 306 306 307 306 306 306 306 306 306 305 305 304 303 303 303 302 302 302 302 304 304 305 307 310 313 316 319 322 324 326 327 328 328 326 327 328 329 330
305 305 305 306 306 306 306 306 306 306 306 305 306 306 305 304 304 303 302 302 302 301 300 301 301 301 304 307 310 313 316 318 320 321 324 327 328 327 326 326 327 328
305 305 305 305 305 305 305 305 305 305 305 305 305 305 305 305 304 304 303 302 301 300 300 299 299 299 301 304 307 309 312 314 316 318 322 325 327 326 325 325 326 327
304 304 304 304 304 304 304 304 304 305 305 305 305 305 305 305 305 304 304 303 302 301 300 299 298 298 300 302 304 306 309 311 312 314 318 322 325 326 325 324 324 325
303 303 304 304 304 304 303 304 304 304 304 304 304 304 304 304 304 304 304 303 302 301 300 299 298 297 298 300 302 304 306 309 310 312 314 317 321 324 325 323 320 322
303 303 303 303 303 303 303 303 303 303 303 303 303 303 303 303 303 303 303 303 303 302 301 300 298 297 297 298 301 302 304 306 307 309 311 313 315 318 318 315 314 316

ECMWFNIL_925_thetae_066.txt.gz
Theta_e
324 324 325 326 327 327 327 328 329 331 333 333 333 333 334 334 334 334 334 334 334 334 334 334 334 333 332 332 331 332 333 333 332 333 333 333 333 332 332 331 331 331
321 322 323 324 325 325 325 325 326 328 330 332 333 333 333 333 333 334 334 334 334 334 333 333 333 333 332 332 331 331 333 332 331 332 332 332 332 332 332 331 331 330
319 320 321 322 322 323 323 324 325 326 328 330 332 332 332 332 332 333 333 334 334 333 332 332 332 332 333 332 330 330 332 332 330 331 331 331 331 332 331 331 330 330
318 318 319 320 320 320 321 322 324 325 326 327 329 330 331 332 332 332 332 332 333 333 332 331 331 332 332 332 330 329 331 333 332 331 332 332 331 331 332 331 331 331
317 317 318 319 319 319 319 320 321 322 323 324 326 327 329 330 331 331 331 332 332 332 331 331 331 331 331 331 330 329 330 331 332 331 331 332 330 329 330 330 332 332
316 316 317 317 317 317 318 318 319 319 320 322 323 325 327 329 330 331 331 331 331 330 330 329 330 330 330 330 330 330 330 331 331 331 331 330 330 330 329 328 330 332
315 315 315 316 316 316 317 317 316 317 318 320 321 323 325 327 329 330 330 329 329 329 328 327 328 330 329 329 330 330 330 330 330 330 330 329 329 331 330 328 330 332
315 315 314 314 315 315 315 315 315 315 315 317 319 320 322 325 327 328 328 328 327 327 327 326 327 328 329 329 330 330 329 329 328 329 329 328 328 330 329 329 330 331
314 314 314 314 314 314 314 314 314 313 313 314 317 318 320 321 322 323 324 324 325 325 326 326 326 328 328 329 330 329 329 329 328 329 329 328 328 328 328 328 329 330
314 314 314 313 313 313 313 313 313 312 311 311 313 315 316 318 318 318 320 322 323 325 327 327 326 328 328 329 329 328 328 329 329 329 328 328 328 328 328 327 328 329
313 313 313 313 312 312 312 312 312 311 310 310 311 312 313 314 315 316 318 321 323 325 327 327 327 327 327 327 328 328 327 327 327 328 329 328 328 328 328 328 328 329
312 312 312 312 311 311 311 311 311 310 309 309 309 309 310 311 312 313 315 318 321 323 324 324 323 323 324 325 326 327 327 326 326 327 328 328 328 328 328 329 329 329
311 311 311 311 311 311 310 310 310 309 309 308 307 308 309 309 309 310 312 314 316 317 317 318 318 319 321 321 321 323 324 326 326 327 327 328 328 328 328 328 329 328
310 310 310 310 310 310 310 309 309 309 308 308 307 306 306 307 308 308 309 311 313 313 312 313 314 314 315 315 316 318 321 324 326 326 327 327 328 328 328 328 327 328
309 309 309 309 309 309 309 308 308 308 308 308 307 306 305 305 305 306 306 307 309 310 310 310 309 308 307 309 311 314 317 321 324 325 326 327 327 327 328 327 327 327
308 308 308 308 308 308 308 308 308 308 307 307 307 306 305 304 304 304 304 304 305 306 307 307 305 303 304 306 309 311 314 318 322 324 325 326 326 327 327 327 327 327
307 307 307 308 307 307 307 307 307 307 307 307 307 306 306 305 304 303 303 303 302 302 303 303 302 301 303 306 308 309 312 315 319 322 325 326 326 327 327 327 327 326
306 307 307 307 306 306 306 306 307 306 306 306 307 306 306 305 305 304 303 302 302 301 301 301 300 300 302 305 307 309 311 313 317 320 323 325 326 328 328 328 326 326
306 306 306 306 306 306 306 306 306 306 306 306 306 306 306 306 305 304 303 302 302 301 300 300 299 299 301 303 305 308 310 313 316 318 321 323 325 326 328 328 326 325
305 305 305 305 305 305 305 305 305 305 305 305 305 305 305 305 305 305 304 303 302 301 300 300 299 298 299 301 304 306 308 311 314 317 319 320 322 325 327 327 326 325
305 305 305 305 305 304 305 304 304 304 304 304 304 304 304 304 305 305 304 303 302 302 301 300 299 298 298 300 302 304 307 309 312 315 316 318 320 322 325 326 326 326
304 304 304 304 304 304 304 304 304 304 304 304 304 304 303 303 303 304 304 303 303 302 301 300 299 298 297 298 300 302 305 307 310 312 314 315 316 319 322 324 324 324
303 303 303 303 303 303 303 303 303 303 303 303 303 303 303 302 302 302 303 303 303 302 301 300 299 298 297 296 297 299 302 305 306 308 311 312 313 316 320 321 320 319
303 303 303 302 302 302 302 302 302 302 303 303 303 303 302 302 301 301 301 301 301 301 300 300 298 297 296 296 296 297 299 301 301 303 307 309 310 313 314 314 313 315
302 302 302 302 302 302 301 301 301 301 301 302 302 302 302 301 301 301 301 300 300 300 299 299 298 297 296 296 296 296 296 297 298 299 302 305 306 308 309 309 310 312
302 302 302 301 301 301 301 300 300 300 300 301 301 301 301 301 301 301 300 300 300 299 298 298 297 297 297 296 296 296 296 296 296 296 298 300 301 302 304 305 306 309

ECMWFNIL_925_thetae_069.txt.gz
Theta_e
318 318 319 320 320 319 319 320 321 322 322 323 324 325 326 327 328 330 331 331 332 332 332 333 333 333 332 332 332 332 332 330 329 329 329 330 331 332 332 331 331 330
316 317 318 318 318 318 318 319 319 319 320 321 322 323 324 325 326 328 329 330 330 330 331 331 331 332 332 331 331 331 331 330 329 328 329 330 331 331 331 331 331 331
315 316 316 316 316 317 317 317 317 317 318 319 321 321 322 323 325 327 328 329 329 329 329 328 329 329 329 329 329 329 330 330 329 328 328 329 329 330 331 331 331 330
314 314 314 315 315 316 316 316 315 315 315 317 318 320 321 322 323 324 325 326 326 326 326 325 326 327 327 327 328 328 329 330 330 329 328 328 328 329 330 331 331 330
314 314 314 314 314 314 314 314 314 313 313 315 316 318 319 320 320 320 320 322 324 324 324 325 325 326 326 327 326 327 329 329 329 329 328 328 328 328 329 330 330 330
314 313 312 313 313 313 313 313 313 311 311 313 314 315 316 318 317 317 318 320 321 322 323 324 326 326 326 327 326 327 328 329 329 329 328 328 328 328 329 329 328 329
313 312 312 312 311 312 312 311 311 310 309 310 311 312 313 314 314 315 315 316 317 317 318 320 322 324 325 326 327 327 328 329 329 329 328 328 328 328 328 328 327 328
312 312 311 311 310 311 311 310 309 309 308 308 309 310 311 311 312 313 313 314 314 313 313 315 317 319 320 322 324 325 327 328 328 327 327 327 327 327 327 328 328 327
311 311 311 310 310 310 310 309 309 308 307 307 307 308 309 309 310 310 311 312 312 311 310 311 313 314 316 318 320 322 324 326 327 326 326 326 327 327 327 327 327 327
310 310 310 310 309 309 309 308 308 308 307 306 306 306 306 307 307 308 308 309 310 308 307 308 309 310 312 314 315 318 321 323 325 326 326 326 326 326 327 326 327 327
308 308 309 309 308 308 308 307 307 307 307 306 305 305 304 305 305 305 306 306 308 307 305 305 306 307 308 310 311 314 317 320 322 324 325 325 326 326 326 326 327 327
308 308 308 308 307 307 307 307 307 307 307 306 305 305 304 304 303 303 304 303 305 305 303 302 303 304 305 306 308 310 313 316 319 321 323 325 326 327 326 326 326 327
307 307 307 307 307 307 307 306 306 306 307 306 306 305 304 304 303 303 303 302 302 303 301 300 301 302 302 303 304 307 310 313 316 319 321 324 326 327 327 326 326 326
306 306 306 306 306 306 306 306 305 306 306 306 306 306 305 304 303 303 302 302 301 301 300 299 299 300 300 301 302 305 308 311 314 316 319 322 324 326 326 327 327 326
305 305 305 305 305 305 305 305 305 305 305 305 305 305 305 304 303 303 302 301 301 301 300 298 297 297 298 299 301 304 307 311 313 315 318 320 322 324 326 327 327 327
305 305 305 304 304 304 304 304 304 304 304 304 304 304 304 304 304 303 302 301 300 300 299 298 297 296 297 298 300 303 306 310 313 315 317 318 319 322 325 327 327 326
305 305 304 304 304 304 304 303 303 303 303 303 302 302 303 304 304 303 302 301 300 300 299 298 297 296 296 298 301 303 306 309 312 314 316 317 318 320 323 324 325 326
304 304 303 303 304 304 304 303 303 303 303 302 302 301 301 302 303 302 302 301 300 299 299 297 296 296 296 298 300 303 306 308 310 312 314 315 317 319 322 324 325 325
303 303 302 302 302 303 303 302 303 303 303 302 301 301 301 301 301 301 301 300 299 299 298 297 296 296 296 297 299 302 304 306 307 309 312 314 314 316 320 322 323 324
302 302 302 301 300 301 301 301 301 302 302 302 301 300 300 300 300 300 300 299 299 298 298 297 297 296 297 296 297 300 302 303 304 306 308 310 311 312 313 315 318 321
301 302 301 300 300 299 300 299 299 300 301 302 301 300 300 300 300 300 300 299 298 298 297 297 296 296 297 297 297 297 299 300 301 302 304 305 306 307 307 308 311 314
301 301 301 300 299 299 298 298 299 299 299 300 301 300 300 300 300 300 299 299 298 298 297 297 296 296 297 297 296 296 297 297 298 299 299 300 301 302 303 304 305 307
300 300 300 300 299 299 298 298 298 298 298 299 300 300 299 299 300 300 299 299 298 298 297 297 296 296 296 296 296 296 296 296 296 297 297 297 298 298 300 301 302 302
300 300 300 300 299 299 298 298 297 297 297 298 299 299 298 298 299 300 299 299 298 298 297 297 296 296 296 296 296 296 296 296 296 296 296 296 297 297 297 299 300 300
300 299 299 299 299 299 298 298 297 297 297 297 297 297 296 296 298 299 299 299 298 298 298 297 297 297 296 296 296 296 296 296 296 296 296 296 296 296 296 297 298 300
300 299 299 299 299 299 298 298 297 297 297 297 297 297 296 296 297 299 299 298 298 298 297 297 297 297 296 296 296 296 296 296 296 296 295 296 295 295 295 296 297 298

ECMWFNIL_925_thetae_072.txt.gz
Theta_e
316 315 315 315 315 315 316 315 314 314 316 316 317 318 319 320 320 321 322 323 323 323 323 324 325 325 325 325 325 326 328 328 329 329 329 329 329 329 329 329 329 328
314 314 314 314 314 314 314 314 313 314 315 315 316 316 318 319 318 319 320 320 321 321 322 323 325 325 325 325 325 325 326 326 327 327 328 328 328 329 328 328 328 328
312 313 313 313 313 313 312 312 313 315 315 315 315 316 316 316 316 318 318 316 317 318 319 321 323 323 324 325 325 325 325 326 326 326 326 327 328 329 328 328 328 328
311 311 311 312 312 311 310 310 311 313 313 313 314 314 314 314 315 316 315 314 315 316 317 318 319 320 322 323 324 325 325 326 326 327 327 327 328 328 328 328 328 328
310 310 311 311 310 309 308 308 308 308 310 311 311 312 312 312 312 313 313 312 312 313 314 315 316 317 318 320 321 322 324 324 326 327 328 328 328 329 329 328 328 328
310 309 309 310 309 309 308 307 306 306 307 307 308 309 309 309 310 310 311 311 309 309 312 313 313 314 314 316 318 319 321 322 324 325 326 327 328 328 328 328 328 328
309 308 308 308 308 308 307 307 306 305 305 305 306 306 306 307 307 308 309 309 307 307 309 309 309 310 311 312 314 316 318 319 321 323 324 326 327 327 327 328 328 327
308 307 307 307 307 307 307 306 306 305 305 304 304 304 304 304 304 305 306 307 305 304 305 306 306 307 308 309 310 312 315 317 319 320 322 323 325 326 327 327 328 328
307 307 306 306 306 307 307 306 306 305 305 304 304 303 303 303 303 303 304 304 302 301 302 302 302 302 304 306 308 309 312 315 316 318 319 321 323 324 326 326 327 327
306 306 306 306 306 306 306 306 306 305 305 304 303 303 302 302 302 302 302 302 301 300 300 299 299 299 300 303 305 307 309 312 314 316 318 319 320 322 324 325 326 326
306 305 306 306 305 305 305 306 306 305 305 304 303 303 302 301 301 301 301 301 301 299 298 298 297 297 298 300 302 304 307 309 311 313 316 318 319 321 323 324 326 326
304 304 304 304 304 304 304 304 304 304 304 304 303 302 302 301 300 300 300 300 300 299 297 297 297 297 297 298 300 303 305 307 309 312 314 316 318 321 322 324 325 326
304 303 303 303 303 303 303 302 302 302 303 304 304 303 302 300 300 299 299 299 299 298 297 296 297 297 297 297 299 301 303 305 307 310 312 315 317 319 321 322 324 325
304 304 303 303 303 303 302 301 301 301 301 302 302 302 301 300 300 299 299 298 298 297 297 296 296 297 297 297 299 300 302 304 306 308 310 313 316 318 319 320 322 324
304 303 303 303 303 303 302 301 300 300 300 300 301 301 300 300 299 298 298 298 298 297 297 296 296 296 297 297 297 298 300 303 305 307 309 312 314 315 316 317 320 322
302 301 301 301 301 303 302 301 300 300 300 299 300 300 300 299 298 298 298 297 297 297 296 296 296 296 297 297 297 298 299 301 304 306 307 309 311 310 311 312 315 318
299 299 299 299 300 301 302 301 300 299 299 299 299 299 299 299 298 298 297 297 297 296 296 296 296 296 297 297 298 298 298 299 301 302 303 305 305 305 305 306 309 312
298 297 298 298 299 299 300 300 300 299 299 299 299 299 299 299 298 298 297 297 297 296 296 296 296 296 296 297 297 298 297 297 298 299 300 300 301 301 301 302 303 306
298 297 297 297 298 298 298 299 300 299 298 298 298 299 299 298 298 298 297 297 297 296 296 296 296 296 296 296 297 297 297 297 297 297 298 298 299 299 299 299 300 302
298 297 297 297 297 297 298 298 298 298 297 297 297 299 299 299 298 298 297 297 297 296 296 296 296 296 296 296 297 297 297 296 296 297 297 297 297 298 298 298 299 299
298 298 297 297 296 297 297 297 296 296 296 296 297 299 299 298 297 297 297 297 296 296 296 296 296 296 296 296 296 297 297 296 296 296 296 296 296 297 297 297 297 298
298 298 297 297 296 296 296 296 295 295 295 297 298 298 297 296 295 295 295 295 295 295 295 295 295 296 296 296 296 296 296 296 296 296 296 296 296 296 296 296 297 297
299 298 297 297 296 296 296 296 295 295 295 296 297 296 295 294 294 294 293 294 293 293 294 294 295 295 296 296 296 295 295 295 295 295 295 296 295 296 296 296 296 296
299 298 297 297 296 297 296 296 296 295 295 295 295 295 295 295 294 293 293 293 293 292 293 294 294 294 296 296 296 296 295 295 294 294 294 295 295 295 295 295 296 296
299 299 298 297 296 296 296 296 296 295 295 295 295 295 295 295 294 293 293 292 292 292 292 293 293 294 295 296 296 296 295 295 294 293 293 294 295 295 295 295 295 296
299 299 298 297 296 296 296 296 296 295 295 295 295 294 294 294 294 293 293 292 292 292 293 293 293 294 295 296 296 296 295 295 294 293 292 293 294 294 294 294 294 295

ECMWFNIL_925_thetae_075.txt.gz
Theta_e
313 313 313 312 312 312 311 311 312 313 313 313 314 314 315 315 315 314 314 315 316 316 317 318 318 319 319 319 320 321 322 323 324 325 325 325 326 326 326 327 327 327
312 311 310 310 309 309 309 309 310 311 311 311 312 312 312 313 313 313 312 312 313 313 315 315 316 317 317 317 317 318 320 321 323 324 325 325 326 326 326 327 326 327
311 310 309 308 307 307 307 307 308 308 309 309 310 310 310 311 312 311 310 310 310 311 312 313 314 315 314 315 316 317 318 320 320 321 322 324 325 326 327 327 327 328
309 309 308 307 306 306 306 306 306 306 306 307 307 308 309 309 310 309 308 307 308 309 309 310 311 311 312 313 315 316 317 318 319 319 320 321 323 325 325 326 327 327
308 308 307 307 306 305 305 305 305 305 305 305 305 306 307 307 307 307 305 305 306 307 307 308 308 309 310 311 313 314 315 316 317 318 319 320 321 323 324 325 326 326
307 307 307 306 306 305 305 304 304 304 304 304 304 304 305 305 305 304 303 302 303 303 304 305 305 306 307 308 309 311 312 312 314 315 316 318 320 321 322 323 324 325
306 306 306 306 306 305 305 304 304 303 303 303 303 303 303 303 303 302 302 301 300 300 300 300 302 302 303 305 307 308 309 310 311 311 312 314 316 318 320 321 321 323
306 306 306 306 306 305 305 304 304 303 302 302 302 301 301 301 301 301 301 300 298 298 298 298 299 299 299 301 302 304 305 306 306 306 307 310 311 314 316 317 318 320
305 305 305 305 305 305 305 304 304 302 301 300 300 300 300 300 300 300 299 299 298 298 298 298 298 298 298 298 298 299 300 302 304 304 305 307 309 310 312 314 315 317
305 304 304 304 304 304 304 304 304 302 300 299 299 299 299 299 299 298 298 298 297 297 297 297 297 297 297 297 297 297 298 301 303 304 306 307 308 310 311 312 313 316
303 302 302 301 302 302 303 304 304 302 301 300 299 298 298 298 298 298 297 297 297 297 297 296 297 297 297 297 297 298 300 302 303 304 305 307 308 309 310 311 313 314
302 301 301 300 300 300 301 301 302 301 301 300 298 298 298 297 297 297 297 297 296 296 296 296 296 296 297 297 297 298 300 302 303 303 304 305 306 307 308 309 309 311
303 302 301 300 299 299 299 299 299 300 299 299 298 297 297 297 297 297 297 296 296 296 296 296 296 296 296 297 297 297 298 300 300 301 302 303 304 305 306 305 305 307
303 302 301 300 299 299 299 298 299 299 299 298 298 297 297 297 297 297 297 296 296 296 296 296 296 296 296 296 297 297 297 297 298 299 300 300 302 303 303 303 303 304
302 302 301 300 299 298 298 298 298 298 298 298 297 297 297 296 296 296 296 296 296 296 296 296 295 295 295 296 296 296 296 296 297 298 298 299 300 300 301 301 301 301
300 301 301 300 299 298 298 298 298 298 298 298 297 297 297 296 296 295 295 295 296 296 296 296 295 295 295 295 296 296 296 296 296 297 297 297 298 298 299 299 299 300
299 300 300 300 299 299 298 297 298 298 298 298 297 297 296 296 295 295 295 295 295 295 295 295 295 295 296 295 295 296 296 296 296 296 297 296 297 297 297 298 298 298
297 298 298 298 297 297 296 296 297 298 297 296 295 294 294 294 294 293 293 294 294 295 295 295 295 295 296 295 295 295 296 296 295 296 296 296 296 296 296 296 297 297
296 296 296 295 295 295 296 297 297 296 294 294 293 293 293 292 292 292 292 293 293 294 294 294 295 295 296 296 295 295 295 295 295 295 295 295 296 295 295 295 296 296
295 295 295 295 295 295 296 296 296 295 294 294 293 292 292 292 292 292 292 292 293 293 294 294 294 295 296 296 295 295 295 295 295 294 294 294 295 295 295 295 295 295
295 295 295 295 295 295 295 295 295 294 294 294 293 293 293 292 292 292 292 292 293 293 294 294 295 295 296 296 296 295 295 295 294 294 294 294 294 295 295 295 294 295
296 295 295 295 295 295 295 295 294 294 294 294 294 293 293 292 292 292 292 292 293 293 294 294 295 296 296 296 296 295 295 294 294 294 293 293 293 294 294 294 294 294
296 296 295 295 295 295 295 294 294 294 294 294 293 293 293 292 292 292 292 292 293 293 293 294 295 295 296 296 296 295 295 294 294 293 293 293 293 293 293 293 293 294
296 296 295 295 295 295 295 294 294 294 294 293 293 293 293 292 292 292 292 292 293 293 293 294 295 295 296 296 296 295 295 294 294 293 292 292 292 293 293 293 293 293
296 296 295 295 295 295 295 295 294 294 294 294 293 293 293 292 292 292 292 292 293 293 293 294 295 295 296 296 296 296 295 294 294 293 292 292 292 292 292 292 292 292
296 296 296 295 295 295 295 295 295 294 294 294 294 293 293 292 292 292 292 292 292 292 293 293 294 295 296 297 296 296 295 294 294 293 292 292 291 291 291 291 291 292

ECMWFNIL_925_thetae_078.txt.gz
Theta_e
309 309 309 309 309 310 310 311 311 312 312 311 311 311 311 311 311 312 311 310 311 311 311 311 312 312 313 314 314 315 316 316 316 316 317 318 319 320 321 322 323 323
307 307 306 307 307 307 307 308 308 309 309 309 309 310 310 310 309 309 308 309 309 309 310 310 310 310 311 311 312 312 313 314 314 314 315 316 317 318 319 320 321 322
306 305 305 305 305 305 305 305 305 305 306 306 307 307 307 307 306 305 304 305 306 307 307 307 307 307 307 308 309 309 310 310 310 311 312 313 314 316 317 318 319 320
306 305 304 304 304 304 304 304 303 303 304 304 304 304 304 304 303 302 302 303 303 304 304 304 304 305 305 306 307 307 308 307 307 308 309 311 312 312 314 315 316 317
305 305 305 304 304 304 303 303 302 302 302 302 302 302 302 302 301 300 300 301 301 301 302 302 302 302 303 304 305 304 304 304 304 305 306 307 309 309 310 311 311 313
305 305 305 304 304 303 302 301 300 301 301 301 301 301 301 300 299 299 299 299 299 299 300 300 300 300 300 302 303 301 301 302 303 305 305 306 308 308 309 309 309 310
305 305 304 304 303 301 300 299 299 299 299 299 300 299 299 299 298 298 298 297 297 297 298 298 298 298 298 299 299 300 301 302 304 305 305 305 307 308 308 308 309 310
304 304 304 304 303 300 299 299 299 298 298 298 298 298 298 298 297 297 297 297 296 296 296 297 297 297 297 297 297 298 300 301 302 303 303 303 304 305 306 307 307 308
303 303 303 304 303 301 300 299 298 297 298 297 297 297 297 297 297 297 296 296 296 296 296 296 296 296 296 297 297 297 297 298 299 300 301 302 303 303 304 305 305 306
300 300 301 302 302 300 299 298 297 296 297 297 297 297 297 297 297 296 296 296 296 296 295 295 295 295 296 296 296 296 296 296 297 298 299 300 301 302 303 303 304 304
298 298 299 300 299 299 298 297 296 295 295 296 296 297 297 296 297 296 296 296 296 295 295 295 295 295 295 296 296 297 296 296 296 297 298 299 300 300 301 301 302 302
298 297 298 298 298 298 297 297 296 296 295 295 295 295 296 296 296 296 296 296 296 295 295 296 295 295 295 295 296 296 297 296 296 296 297 297 298 298 299 299 300 300
298 297 298 298 298 298 297 296 296 296 296 295 295 294 295 295 295 296 296 296 296 296 296 296 296 295 295 295 295 296 296 296 296 296 296 296 296 297 297 297 298 298
298 297 297 298 298 298 298 297 297 296 296 295 294 294 294 294 294 295 296 296 296 296 296 296 296 295 295 295 295 295 295 295 295 295 295 296 296 296 296 296 296 297
298 297 297 298 298 298 298 297 295 294 294 293 293 293 292 292 293 294 296 296 296 296 296 296 296 295 295 295 294 294 295 295 294 294 294 295 295 295 295 296 296 295
299 298 297 296 297 297 296 294 292 292 292 292 292 292 292 292 292 294 295 296 296 296 296 296 295 295 296 295 294 294 294 294 294 294 294 294 295 295 295 295 295 295
298 297 296 296 297 296 293 292 292 292 292 292 292 292 292 292 292 293 294 295 296 296 296 295 295 295 296 295 294 294 294 294 294 294 294 294 294 294 294 294 294 294
296 296 296 296 296 294 293 293 293 292 292 292 292 292 292 292 292 293 294 295 295 295 295 295 295 295 296 295 294 294 294 294 293 293 293 293 293 294 294 294 294 294
294 295 295 295 294 294 293 293 293 293 292 292 292 292 292 292 293 293 294 294 294 295 295 295 295 296 296 295 294 294 294 294 293 293 293 293 293 293 293 293 293 293
294 294 294 294 294 294 294 293 293 293 292 292 292 292 292 292 293 293 293 293 294 294 295 296 296 296 296 295 294 294 293 293 293 293 293 293 293 292 293 292 292 292
294 294 294 294 294 294 293 293 293 293 292 292 292 292 292 292 292 292 293 293 293 294 295 295 296 296 296 295 294 294 293 293 293 293 293 293 293 292 292 292 291 292
294 294 294 294 294 294 293 293 293 293 292 292 292 292 292 291 291 292 292 292 293 294 295 295 296 296 296 295 294 294 293 293 293 293 293 292 292 292 292 291 291 292
295 295 294 294 294 294 294 293 293 293 293 292 292 292 291 291 291 291 291 292 293 294 295 295 296 296 296 295 295 294 293 293 293 292 292 292 292 291 291 291 291 291
295 295 294 294 294 294 294 294 294 293 293 292 292 292 292 291 291 291 291 292 293 294 294 295 296 296 296 295 295 294 293 293 293 292 292 292 291 291 291 290 290 291
295 295 295 294 294 294 294 294 294 294 293 293 292 292 292 292 291 291 291 292 293 293 294 294 295 295 296 296 295 294 294 293 292 292 292 291 291 291 291 290 290 290
295 295 295 295 294 294 294 294 294 294 294 293 292 292 292 292 291 291 291 291 292 292 293 293 294 294 295 295 295 295 294 293 292 292 291 291 291 291 290 290 290 290

ECMWFNIL_925_thetae_081.txt.gz
Theta_e
308 309 309 309 309 309 309 310 310 309 310 310 309 309 308 305 304 304 305 304 303 303 303 303 303 304 304 305 305 304 304 304 305 305 305 307 308 309 310 311 312 314
306 306 307 306 306 306 306 307 307 307 308 308 307 307 305 303 302 303 303 302 302 302 302 302 302 303 303 303 302 302 303 303 303 303 304 305 307 308 309 310 311 312
305 304 304 304 304 304 304 304 305 305 305 305 305 305 303 301 301 301 301 300 300 300 300 301 301 302 302 301 301 302 302 302 303 303 303 305 306 306 307 308 310 311
304 303 303 303 302 302 302 303 303 303 303 303 302 302 301 300 300 300 299 299 299 298 299 299 300 300 300 300 300 301 302 302 302 302 303 304 305 306 307 307 309 309
304 303 303 302 302 301 301 302 302 302 302 302 301 300 300 299 299 299 298 298 298 297 297 298 298 298 299 299 300 300 301 301 302 302 303 304 304 305 306 307 307 308
304 303 303 303 302 301 301 301 301 300 301 300 300 299 299 298 298 298 298 297 297 297 296 297 297 297 297 298 299 299 300 301 301 301 302 303 304 304 305 305 306 307
304 303 303 302 301 301 301 300 300 299 299 299 299 298 298 298 297 297 297 297 297 297 296 296 296 296 296 297 298 298 299 300 300 300 301 302 303 303 304 304 304 305
303 302 301 300 300 300 300 300 299 299 298 298 298 298 298 298 297 297 297 297 297 297 297 296 296 296 296 296 297 297 298 299 299 300 300 301 301 302 302 302 303 303
302 301 300 300 299 299 299 299 299 298 298 298 298 298 297 297 297 297 297 297 298 297 297 297 296 296 296 296 296 297 297 298 298 299 299 300 300 301 301 301 301 302
301 300 299 299 299 299 298 298 298 298 298 297 297 297 297 297 297 297 297 297 297 297 297 297 297 296 296 295 295 296 297 297 297 298 298 299 299 299 299 300 300 300
300 300 299 299 299 299 298 298 298 298 298 297 297 297 297 297 297 297 297 297 297 297 297 297 297 296 296 295 295 296 296 296 297 297 297 298 298 298 299 299 299 299
300 300 299 299 298 298 297 297 296 296 296 295 295 296 296 296 296 297 297 297 297 297 296 297 296 296 295 295 295 295 296 296 296 296 297 297 298 298 298 298 298 298
300 300 299 298 297 296 295 295 294 294 294 294 294 294 295 296 296 296 296 296 296 296 296 296 296 296 295 295 295 295 296 296 296 296 296 297 297 297 297 297 297 297
299 299 298 296 294 294 294 294 294 293 293 293 293 293 294 295 295 296 296 296 296 296 296 296 296 295 294 294 294 294 295 295 295 296 296 296 297 297 297 297 297 297
298 297 295 294 294 294 294 294 294 293 293 293 293 293 294 295 295 295 295 296 296 296 296 296 296 295 294 294 294 294 294 295 295 295 296 296 296 296 296 296 296 296
297 295 294 294 294 294 294 294 293 293 293 293 293 293 294 294 294 295 295 295 295 296 296 296 296 294 294 294 294 293 293 294 295 295 295 296 296 296 296 295 295 295
296 295 294 295 295 294 294 293 293 293 293 293 293 293 293 294 294 294 295 295 296 296 296 296 295 294 294 294 294 293 293 294 295 295 295 296 295 295 295 295 295 294
295 295 295 295 294 294 293 293 293 293 293 293 293 293 293 293 293 294 295 295 296 296 296 296 295 294 294 294 294 293 292 293 294 295 295 295 295 295 295 294 294 294
295 295 295 295 294 293 293 293 293 293 293 292 292 292 293 293 293 294 295 295 296 296 295 296 295 295 294 294 294 293 292 293 294 295 295 295 295 294 294 294 294 293
295 295 295 295 294 293 293 293 293 292 292 292 292 292 292 293 293 294 295 295 295 295 296 296 295 295 295 294 293 293 292 293 294 295 295 294 294 294 294 294 293 293
295 295 295 295 294 294 293 293 292 292 292 292 292 292 292 292 293 294 294 294 295 295 295 295 295 296 295 294 293 292 292 293 295 295 294 294 294 294 294 293 293 293
295 295 295 295 294 294 294 293 292 292 292 292 292 292 292 292 293 293 293 294 294 294 295 295 295 295 295 294 293 292 292 294 294 294 294 294 294 294 293 293 293 293
295 295 295 295 295 294 294 293 292 292 292 292 292 292 292 292 292 292 292 293 293 293 294 294 294 294 294 294 293 292 292 294 294 294 294 293 293 293 293 293 293 293
295 295 295 295 295 294 294 293 292 292 292 292 292 292 292 292 292 292 292 292 293 293 293 294 294 294 294 294 293 291 292 294 294 293 293 293 293 293 293 293 293 293
295 295 295 295 295 294 294 293 292 292 292 292 292 292 292 292 292 292 292 292 293 293 293 293 294 293 293 292 292 292 292 293 294 293 293 294 293 293 293 293 293 293
295 295 295 295 294 294 294 293 293 292 292 292 292 293 293 292 292 292 292 292 293 293 293 293 293 292 292 292 292 292 292 293 294 294 293 293 294 293 293 293 293 293

ECMWFNIL_925_thetae_084.txt.gz
Theta_e
313 313 313 312 313 312 312 313 313 313 312 312 311 310 309 308 307 307 307 306 306 306 306 306 306 306 307 308 308 307 307 307 307 307 307 308 309 309 310 310 311 312
311 311 311 311 311 311 311 311 311 311 310 310 309 308 307 307 306 306 306 305 305 305 305 305 305 306 306 307 307 307 307 307 307 307 307 308 308 308 309 309 310 310
310 310 310 310 310 310 310 310 309 309 309 308 308 307 306 306 305 304 304 304 304 304 304 304 304 305 305 306 306 307 307 307 306 307 307 307 307 308 308 308 309 309
309 309 309 309 309 308 309 308 308 308 307 307 306 306 306 305 304 304 304 304 304 304 303 303 303 304 304 305 305 305 306 306 305 306 307 307 307 307 307 307 308 308
308 308 308 308 307 307 307 307 307 306 306 306 305 305 305 304 304 304 303 303 303 303 303 302 302 303 303 303 304 304 304 304 304 305 306 306 306 306 306 306 307 307
307 307 307 306 306 306 306 306 306 306 305 305 305 304 304 304 304 304 303 303 303 302 302 302 302 302 302 302 303 303 303 303 303 303 304 304 305 305 305 305 306 306
306 306 306 306 306 305 305 305 305 305 304 304 304 304 303 303 303 303 303 302 302 302 302 302 301 301 302 302 302 302 302 302 302 302 302 303 304 304 304 304 304 305
305 305 305 305 305 305 304 304 304 304 303 303 303 303 303 303 303 303 302 302 302 302 301 301 301 301 301 301 301 301 301 301 301 301 302 302 303 302 303 303 303 304
305 304 304 304 304 304 304 303 303 303 303 303 303 303 303 302 302 302 302 302 302 301 301 300 300 300 300 300 301 301 301 300 300 301 301 301 302 302 302 303 303 302
304 304 303 303 303 303 303 303 303 302 302 302 302 302 302 302 302 302 302 301 301 301 300 300 300 300 300 300 300 300 300 300 300 300 301 301 301 302 302 302 301 301
303 303 303 303 302 302 302 302 302 301 301 301 301 301 302 302 302 301 301 301 301 301 300 300 299 299 299 299 299 300 300 300 300 300 300 301 301 301 301 301 301 301
303 302 302 301 301 301 301 300 300 300 300 300 301 301 301 301 301 301 301 301 300 300 300 299 299 298 298 298 298 299 300 300 300 300 300 300 300 300 300 300 300 300
301 301 300 300 300 300 300 300 300 300 300 300 300 300 301 301 301 301 301 301 300 300 299 299 298 297 297 297 297 297 298 300 300 299 300 301 300 300 299 299 299 299
300 300 300 300 300 300 300 300 300 300 300 300 300 300 300 300 300 300 301 300 300 300 299 298 297 296 295 295 296 296 297 300 300 300 300 300 300 299 299 299 298 298
299 300 300 300 300 300 300 300 300 300 299 299 299 299 300 300 300 300 301 300 300 299 298 298 297 295 294 293 293 294 296 299 300 300 300 300 299 299 299 298 298 298
299 299 299 300 299 299 299 300 299 299 299 299 299 299 299 299 300 300 300 300 300 299 298 297 296 295 293 292 292 294 296 299 300 299 299 299 299 299 298 298 297 297
299 299 299 299 299 299 299 299 299 299 299 299 299 299 299 299 300 300 300 300 300 299 298 298 296 294 292 292 293 295 296 298 299 299 299 299 298 298 297 297 297 296
299 299 299 298 298 298 299 299 299 299 299 299 299 299 299 300 300 300 300 300 299 299 298 297 295 293 292 292 293 295 296 297 299 298 298 298 297 297 297 296 296 296
298 298 298 298 298 298 298 298 299 299 299 299 299 299 299 299 299 300 299 299 299 299 298 297 295 293 292 292 293 295 296 297 298 298 298 298 297 297 297 296 296 296
298 298 298 298 298 298 298 298 298 299 299 299 299 299 299 299 299 299 299 299 299 299 298 297 294 292 292 291 293 295 296 296 297 297 297 297 296 296 296 296 296 295
298 298 298 298 298 298 298 298 298 299 298 298 298 298 298 298 298 298 298 298 298 298 298 297 294 292 292 292 293 295 296 296 297 297 297 297 296 296 296 296 296 295
298 298 298 298 298 298 298 298 298 298 298 298 298 298 298 298 298 298 298 298 298 298 298 297 294 292 292 291 292 294 296 297 297 297 296 296 296 296 296 296 295 295
299 298 298 298 298 298 298 298 298 298 298 298 298 298 298 298 297 297 297 297 297 297 298 298 295 292 291 291 291 292 296 297 296 296 296 296 296 296 296 295 295 295
299 299 298 298 298 298 298 298 298 298 298 298 297 297 297 297 297 297 298 297 297 296 296 297 296 293 291 292 291 291 294 296 295 295 296 296 296 296 295 295 295 295
298 299 298 298 298 298 298 298 298 298 298 298 297 297 297 297 297 297 297 297 297 297 296 296 297 295 292 292 292 292 293 295 295 295 295 296 296 295 295 295 295 295
299 299 299 298 298 298 298 298 297 298 298 298 297 297 297 297 297 297 297 297 297 297 296 295 296 295 293 292 293 293 292 293 295 295 295 296 296 295 295 295 294 295

ECMWFNIL_925_thetae_087.txt.gz
Theta_e
316 316 316 315 316 316 316 316 315 314 314 313 312 311 311 310 310 310 309 308 308 309 309 309 310 310 311 311 311 311 311 310 311 311 311 311 310 311 311 311 311 311
314 314 314 314 314 314 314 314 313 313 312 312 311 311 309 309 308 308 308 308 307 307 308 308 308 308 309 310 310 310 309 309 310 310 310 310 310 310 310 310 310 310
313 313 313 313 313 312 312 312 312 311 311 310 310 309 308 308 308 307 308 307 307 306 306 307 308 307 307 308 308 308 308 307 308 309 309 309 309 309 308 309 309 310
312 312 312 312 312 312 311 311 311 310 310 309 309 308 308 307 307 307 307 307 306 306 306 306 306 307 306 306 306 306 306 306 306 306 307 307 308 307 307 308 308 308
311 311 311 311 311 311 310 310 310 310 310 309 308 308 308 307 307 306 306 306 306 306 305 305 305 306 305 305 305 305 305 305 305 305 306 306 306 306 306 307 307 307
310 310 310 310 310 310 310 310 309 309 308 308 307 307 307 307 307 306 306 306 305 305 305 305 305 305 305 305 305 305 304 304 304 304 305 305 305 305 306 306 306 306
309 309 309 309 309 309 309 309 308 308 307 307 307 307 306 306 306 306 305 305 304 304 304 304 304 304 304 304 305 304 304 304 304 304 304 305 305 305 305 305 305 305
309 309 309 309 308 308 307 307 307 307 306 306 306 306 306 306 306 306 305 305 304 303 303 303 303 303 304 304 304 304 304 304 304 304 304 304 304 304 304 304 304 304
308 308 308 308 308 307 307 306 306 306 306 306 306 305 306 306 305 305 305 304 304 303 303 302 302 302 302 303 303 303 304 304 303 304 304 304 304 303 303 303 303 303
308 307 307 308 308 307 306 306 306 305 305 305 305 305 305 305 305 305 304 304 304 303 302 301 301 301 301 301 301 302 303 304 304 303 304 304 303 303 303 303 303 302
307 307 306 306 306 306 306 305 305 305 305 305 305 305 305 305 305 305 304 303 303 302 301 301 300 299 299 299 300 300 302 304 304 303 304 304 303 303 303 302 302 301
306 305 305 305 305 305 305 304 304 304 304 304 304 304 304 304 304 304 304 303 303 302 301 300 299 298 297 298 299 300 302 304 304 304 304 303 303 302 302 302 301 300
304 304 304 304 304 304 304 304 304 304 304 304 304 304 304 304 304 304 304 303 302 301 300 299 298 297 296 296 298 299 301 304 303 303 303 303 302 302 301 301 300 300
304 304 304 304 304 304 303 303 303 303 303 303 304 304 304 304 304 304 303 303 302 301 300 299 297 295 295 296 297 298 301 303 303 303 303 302 302 301 301 300 300 299
303 303 303 303 303 303 303 303 303 303 303 303 303 303 303 304 304 304 303 302 302 301 300 298 296 294 294 295 296 296 299 302 303 302 302 301 301 301 300 299 299 298
303 303 303 303 303 302 303 303 303 303 303 303 303 303 303 303 303 303 303 302 301 301 300 298 295 293 294 295 296 296 298 301 302 301 301 301 300 300 299 299 298 298
302 302 302 302 302 302 302 303 303 303 303 303 303 303 303 303 303 303 303 302 301 300 299 297 294 292 294 296 296 297 298 300 301 301 301 300 300 299 299 298 298 298
301 301 301 301 301 301 301 302 302 302 303 303 303 303 303 303 303 303 303 302 301 299 298 296 293 292 293 295 296 297 298 299 300 301 300 300 299 299 298 298 298 297
301 301 301 301 301 301 301 301 301 302 302 302 302 302 302 302 302 303 302 302 302 299 297 296 293 291 292 295 296 297 298 299 300 300 300 299 299 299 298 298 297 297
301 300 301 301 301 301 301 301 301 302 302 302 302 302 302 302 302 302 302 302 302 300 298 295 292 291 292 294 296 297 298 299 300 300 299 299 299 298 298 298 297 297
300 300 300 300 300 300 301 301 301 301 301 301 301 301 301 301 301 301 301 301 302 301 299 296 292 291 292 293 295 296 297 298 299 299 299 299 298 298 298 298 297 296
300 300 300 300 300 300 301 301 301 301 301 301 300 300 300 300 301 300 300 300 301 301 300 297 294 292 291 292 294 296 298 298 298 299 299 299 298 298 297 297 297 296
300 300 300 300 300 300 301 301 301 301 300 300 300 300 300 300 300 300 299 299 299 300 300 299 296 293 291 292 292 294 297 299 298 298 299 298 298 298 297 297 297 296
300 300 300 300 300 300 300 301 301 300 300 300 300 300 300 300 300 300 300 299 298 298 299 299 298 294 292 291 292 292 295 298 298 297 298 298 298 297 297 297 296 296
300 300 300 300 300 300 301 301 300 301 300 300 300 299 299 299 299 299 299 300 299 298 297 298 299 296 293 291 292 291 293 296 297 296 296 298 298 297 297 297 296 296
301 300 300 300 300 300 300 300 300 301 300 300 299 299 299 299 299 299 299 299 299 299 298 297 298 297 295 292 292 292 292 294 296 296 295 296 298 297 296 297 296 296

ECMWFNIL_925_thetae_090.txt.gz
Theta_e
318 317 317 317 317 317 316 316 315 314 313 313 311 310 310 310 310 309 308 307 308 308 309 309 308 309 309 309 309 308 308 309 310 310 310 309 309 309 309 309 309 309
316 316 315 316 315 315 314 314 313 313 312 311 310 309 309 309 309 308 308 307 307 307 308 308 308 308 307 307 308 307 307 307 307 308 308 308 308 308 308 308 308 308
315 314 314 314 314 313 313 312 312 311 311 310 309 309 308 308 308 308 307 307 306 306 306 307 307 307 307 306 306 306 306 306 306 307 307 307 307 307 307 307 307 307
313 313 313 313 312 312 312 312 311 311 310 309 309 309 308 308 307 307 307 306 306 306 306 306 306 306 306 306 305 305 305 305 305 306 306 306 306 306 306 306 306 306
312 312 313 312 312 312 311 311 311 310 309 309 308 308 308 307 307 306 306 306 305 305 305 305 305 305 305 306 305 305 305 305 305 305 305 305 306 306 306 306 305 305
312 312 312 311 311 311 310 310 309 309 308 308 308 308 307 306 306 306 305 304 305 304 304 304 304 305 305 305 305 305 305 305 305 305 305 305 305 304 304 305 304 304
311 311 311 311 310 310 309 309 309 308 308 307 307 307 307 306 306 306 304 304 304 303 303 303 303 303 304 304 304 305 305 304 304 305 305 305 304 304 304 304 303 303
310 310 310 310 309 309 308 308 308 307 307 307 307 307 306 306 306 305 305 304 303 303 302 302 301 302 302 302 303 304 305 304 304 305 305 304 304 303 303 303 303 302
310 310 309 309 308 308 307 307 307 307 306 306 306 306 306 306 306 305 305 304 302 302 301 300 300 299 300 301 301 303 305 305 304 305 304 304 304 303 303 302 302 301
310 310 309 308 308 307 307 306 306 306 306 306 306 306 306 305 305 305 304 303 302 301 300 299 298 298 299 300 301 303 305 304 304 304 304 303 303 303 302 302 301 301
309 309 308 308 307 307 306 306 306 306 306 306 306 305 306 306 305 304 303 302 301 301 300 298 297 297 298 299 300 302 304 304 304 304 303 303 303 302 301 301 300 300
308 307 307 307 306 306 306 306 305 305 305 305 305 305 305 305 305 304 303 302 301 300 299 297 297 297 297 298 300 301 303 304 303 303 303 302 302 302 301 300 300 299
306 306 306 306 306 305 305 305 305 305 305 305 305 305 305 305 304 304 303 302 301 299 297 296 296 296 296 297 299 301 302 303 303 303 303 302 301 301 300 300 299 299
306 305 305 305 305 305 305 305 304 304 305 305 305 305 305 305 304 303 303 302 301 299 296 295 295 295 296 297 298 300 301 303 303 302 302 301 301 301 300 299 299 298
305 305 305 305 305 305 304 304 304 304 304 305 305 305 305 305 304 303 302 301 300 299 296 294 294 295 295 296 297 299 300 302 302 302 301 301 300 300 299 299 299 298
304 304 304 304 304 305 304 304 304 304 304 304 304 304 305 304 303 302 301 300 299 298 296 294 293 295 296 296 297 298 299 301 302 301 301 300 300 300 299 298 298 298
304 304 304 304 304 304 304 304 304 304 304 304 304 304 304 304 303 302 301 298 297 296 295 293 293 295 297 297 298 298 299 300 301 301 301 300 299 299 299 298 298 297
303 303 303 303 303 304 304 304 304 304 304 304 304 304 304 304 304 303 301 298 296 295 294 293 293 294 296 297 298 298 299 300 301 300 300 300 299 299 298 298 298 297
302 302 302 302 302 303 303 303 303 303 303 303 303 304 304 304 303 303 302 300 297 294 293 292 292 294 295 297 297 298 299 299 300 300 300 299 299 299 298 298 297 297
302 302 302 302 302 302 302 303 303 303 303 303 303 303 302 303 303 303 303 301 299 296 293 292 292 293 294 296 297 298 299 299 299 300 300 299 299 298 298 298 297 297
302 302 302 302 302 302 302 302 302 302 302 302 302 302 302 302 302 302 303 302 301 299 296 293 292 291 293 294 296 298 299 299 298 299 299 299 299 298 298 298 297 296
302 301 301 302 302 302 302 302 302 302 301 301 301 301 301 301 300 300 301 302 302 301 299 296 293 292 292 292 294 296 298 299 298 297 298 299 299 298 298 298 297 296
301 301 301 302 302 302 302 302 302 301 301 301 301 301 301 300 300 299 299 299 300 301 301 299 295 294 292 291 292 294 296 298 297 296 297 297 298 298 298 297 297 296
301 301 301 301 302 302 302 301 301 301 301 301 301 301 301 301 300 300 298 297 297 299 300 299 298 296 293 291 291 292 294 296 297 296 296 296 297 298 298 297 297 297
301 301 301 301 302 302 302 301 301 301 300 301 300 301 300 300 300 300 300 299 298 297 298 299 298 298 295 292 291 292 293 295 296 295 295 295 296 297 298 297 297 297
301 301 301 301 301 301 301 301 301 301 301 300 300 300 300 299 300 300 300 300 300 299 299 299 299 298 296 292 292 293 293 294 295 295 294 294 295 296 297 297 296 297

ECMWFNIL_925_thetae_093.txt.gz
Theta_e
320 320 319 319 317 316 315 314 313 312 311 310 309 309 308 307 306 306 306 306 307 307 307 306 306 306 306 306 306 306 306 306 307 306 306 306 306 306 306 305 304 304
318 318 317 317 316 314 313 313 312 311 309 308 308 307 307 307 306 306 305 305 305 306 306 306 306 305 305 305 305 305 305 306 306 306 306 306 306 305 306 305 304 303
316 316 316 315 314 313 312 312 311 309 308 308 307 307 307 306 306 305 305 305 305 305 305 305 305 305 304 304 304 304 305 305 305 305 305 305 305 305 305 304 303 303
315 315 314 313 313 312 311 310 309 308 308 308 307 307 306 306 305 305 305 305 304 304 304 305 305 305 305 304 304 304 304 304 305 305 304 304 304 304 304 303 302 302
313 313 313 312 312 311 310 310 309 308 308 308 307 306 306 305 305 304 304 304 303 303 303 304 304 304 305 304 304 304 304 304 304 304 303 303 303 303 303 302 301 301
312 312 312 312 312 311 310 309 308 308 308 307 306 306 305 304 304 303 303 303 302 302 302 302 303 303 304 304 304 304 304 304 304 303 303 303 303 302 302 301 301 300
312 312 311 311 310 309 309 308 307 307 307 306 306 305 305 304 303 303 302 301 301 301 301 301 302 302 303 304 304 304 304 304 304 303 303 303 302 302 301 301 300 299
311 311 310 310 309 309 308 308 307 307 307 306 306 306 305 304 303 302 301 300 299 298 298 299 300 301 303 304 304 304 304 304 303 303 303 302 302 301 301 300 299 299
310 310 310 309 308 307 307 307 307 306 306 306 306 305 304 304 303 302 300 299 298 296 295 296 298 300 303 304 304 304 304 304 303 302 302 302 301 300 300 299 299 298
310 309 308 308 307 307 307 306 306 306 306 305 305 304 304 304 302 301 299 298 297 295 294 295 297 300 303 303 303 304 304 303 303 302 302 301 301 300 299 299 299 298
308 308 307 307 307 307 306 306 306 306 305 305 305 304 303 303 301 300 298 296 294 294 295 296 297 300 302 303 303 303 303 303 303 302 301 301 300 299 299 298 298 298
308 307 307 306 306 306 306 306 305 305 305 305 305 304 303 302 301 301 298 294 293 294 295 296 297 299 301 302 302 303 303 302 302 301 300 300 300 299 298 298 298 298
307 307 306 306 306 305 305 305 305 305 305 305 304 304 303 302 302 301 298 294 293 294 295 296 297 298 300 301 302 302 302 302 301 300 300 300 300 299 298 298 297 298
306 306 306 305 305 305 305 305 305 305 305 304 304 303 302 302 301 301 298 295 293 294 295 296 297 298 299 300 301 301 302 301 301 300 299 299 299 299 298 297 297 297
306 305 305 305 305 305 305 305 305 305 305 305 304 303 302 302 300 298 296 294 293 294 295 296 297 297 298 299 300 301 301 301 301 300 300 299 299 298 298 297 297 297
305 305 304 305 304 304 304 304 304 305 304 304 304 302 302 300 296 294 293 293 293 294 295 296 296 297 297 298 299 300 300 300 300 300 300 298 298 298 298 297 297 297
304 304 304 304 304 304 304 304 304 304 304 304 303 302 302 299 295 292 292 292 292 293 294 295 296 296 297 298 299 299 300 300 300 300 300 298 298 298 298 297 297 297
304 304 304 304 304 304 304 304 304 304 304 304 303 303 302 301 298 294 292 291 292 292 293 294 295 296 297 298 298 299 299 300 299 299 299 298 297 298 298 297 297 296
304 304 304 304 304 304 304 304 304 304 304 304 303 303 302 302 301 298 295 292 291 291 292 292 293 295 296 298 298 298 298 298 299 299 299 299 298 298 298 297 297 296
304 304 304 304 304 304 304 304 304 304 304 303 303 303 302 302 301 301 300 297 293 291 291 291 291 292 295 297 298 298 297 297 297 298 298 298 298 298 298 297 296 296
303 303 303 303 303 303 303 303 303 302 302 302 302 303 302 302 301 301 301 300 298 294 292 292 291 291 292 294 296 297 297 296 296 296 297 298 298 298 298 297 296 296
302 302 303 303 303 302 302 302 302 302 301 301 301 301 302 302 302 301 301 301 300 297 294 293 292 291 290 291 293 295 296 295 294 293 295 297 297 297 297 297 296 296
302 302 302 302 302 302 302 302 302 302 301 301 300 300 300 300 301 301 301 301 299 297 296 295 294 292 291 290 291 292 293 293 292 291 292 295 297 297 297 297 297 297
302 302 302 302 302 302 302 301 301 301 301 301 300 299 297 296 297 298 299 298 297 296 297 297 295 293 291 290 291 291 292 292 292 291 291 294 296 296 296 296 296 296
302 302 302 302 302 301 301 301 301 300 300 300 300 299 298 298 297 297 298 298 298 298 298 297 296 294 292 290 291 292 292 293 293 292 292 293 295 296 296 296 295 295
302 302 302 301 301 301 301 301 301 301 301 300 300 300 300 300 300 299 299 299 299 299 299 298 297 295 293 291 291 292 292 293 293 292 293 294 295 295 295 295 295 294

ECMWFNIL_925_thetae_099.txt.gz
Theta_e
326 323 320 318 317 316 314 313 311 310 309 307 307 307 307 307 306 307 306 305 305 306 306 306 306 305 305 304 304 304 304 303 302 302 301 301 300 299 296 295 294 294
323 321 319 318 316 314 313 312 311 310 308 307 307 307 306 306 306 306 305 305 305 304 305 305 305 305 305 304 304 303 303 302 302 302 301 300 299 298 295 294 294 293
322 320 319 317 316 313 312 311 310 309 307 306 306 306 306 305 305 305 304 304 304 304 304 304 304 304 304 303 303 303 302 302 301 301 300 299 299 297 295 294 294 293
321 319 318 317 315 313 311 310 308 307 306 305 305 305 305 305 305 304 304 304 303 304 304 304 304 304 303 303 302 302 302 301 301 300 300 299 298 297 295 294 294 294
320 318 316 315 313 312 310 309 307 306 305 305 304 304 304 304 304 304 303 303 303 303 303 303 303 303 303 302 302 302 301 301 300 300 299 299 298 296 295 294 295 295
317 316 314 313 312 310 309 308 307 306 305 305 304 304 303 303 303 303 303 303 303 302 303 303 303 303 302 302 302 302 301 301 300 300 299 298 297 296 295 295 295 295
315 314 313 312 310 309 308 307 306 305 305 304 304 303 303 302 302 303 303 303 303 303 303 303 303 303 303 302 302 301 301 301 300 300 299 298 297 296 296 296 296 296
313 312 311 310 309 308 307 306 305 305 304 304 303 303 302 302 301 301 302 303 303 303 303 303 303 303 303 302 302 301 301 301 300 299 298 297 297 296 296 296 296 296
312 311 310 309 308 308 307 306 305 304 303 303 302 301 301 300 300 300 301 302 303 303 303 303 303 303 302 302 302 301 301 300 300 299 298 297 297 297 296 296 296 296
311 310 309 309 308 307 306 305 304 303 303 303 302 301 300 298 296 296 298 300 302 303 303 303 303 303 302 301 301 301 300 300 300 299 298 298 297 297 296 296 296 296
310 310 309 308 307 306 305 304 303 303 303 302 302 301 298 295 294 294 296 298 301 302 303 303 303 302 302 302 301 301 300 300 299 299 299 298 297 297 296 296 296 296
310 309 309 308 307 306 305 304 303 303 302 302 302 300 296 293 293 294 295 297 300 302 303 302 302 302 302 302 301 300 300 299 299 299 299 298 297 297 297 296 296 296
310 309 308 307 307 306 305 304 303 303 302 302 301 298 294 292 293 294 295 297 300 302 302 302 302 302 302 301 300 299 299 299 299 299 298 298 298 297 297 296 296 296
309 309 307 307 306 305 305 304 303 303 302 301 299 295 293 293 294 294 295 297 300 301 302 302 302 302 301 301 300 299 299 299 299 299 298 298 298 297 297 296 296 296
309 308 307 306 306 305 304 303 303 302 302 301 298 294 292 293 294 295 296 297 299 300 301 301 301 301 301 301 300 299 299 299 299 298 298 298 298 297 296 296 296 295
308 307 307 306 305 305 304 303 302 302 302 301 298 294 292 293 294 295 296 297 299 299 300 301 301 301 301 300 300 300 299 299 299 298 297 298 297 297 296 297 296 295
307 307 306 306 305 304 303 303 302 302 301 300 296 293 293 294 295 295 296 297 298 299 299 300 300 300 300 300 300 300 299 299 299 298 297 297 297 297 296 297 296 295
307 306 306 305 305 304 303 303 302 302 300 297 293 292 293 294 294 295 296 297 297 298 299 299 299 299 299 299 299 299 299 299 298 298 297 297 297 297 297 297 296 295
306 306 305 305 305 304 303 303 302 301 298 294 292 292 293 293 294 295 295 296 297 297 298 298 298 298 298 298 299 298 298 298 298 298 298 298 297 297 297 297 296 296
306 305 305 305 304 304 303 303 302 300 295 292 292 292 292 292 293 293 294 295 296 296 297 297 297 298 298 298 298 298 297 297 297 297 297 298 298 297 297 296 296 296
305 305 305 304 304 304 303 302 301 298 293 291 291 291 291 291 291 292 292 293 293 294 295 296 296 297 297 297 297 296 295 294 294 295 297 297 297 297 297 296 296 295
305 304 304 304 304 304 303 302 300 297 293 292 292 292 291 291 290 290 291 290 291 291 292 292 293 293 294 294 293 293 292 291 291 294 296 296 297 297 296 295 295 294
305 304 304 304 304 304 303 302 300 298 296 295 295 295 295 293 291 290 290 290 290 290 290 290 290 290 290 290 290 290 290 290 291 294 296 296 296 296 295 294 294 294
304 304 304 304 304 304 303 302 301 299 299 299 299 299 299 296 292 291 291 291 291 291 290 290 290 290 290 290 289 289 290 291 292 294 295 295 295 295 294 293 294 294
304 304 304 304 303 303 303 302 301 301 301 301 301 301 301 299 294 292 293 293 293 293 292 291 290 290 290 290 290 289 290 292 293 294 294 294 294 294 294 294 294 294
304 304 304 303 303 303 303 303 302 302 301 301 301 301 301 300 295 293 295 296 296 295 294 292 292 291 290 290 290 290 291 292 293 293 293 293 293 293 293 294 294 294

ECMWFNIL_925_thetae_102.txt.gz
Theta_e
327 325 324 322 321 319 318 317 315 313 311 310 309 309 309 308 308 308 308 308 308 307 306 305 304 304 303 303 302 302 301 300 299 297 295 294 293 293 293 293 292 292
326 324 323 322 320 318 316 315 313 311 309 308 308 308 308 307 306 306 306 307 306 306 305 305 304 303 303 302 302 301 300 299 298 296 295 294 293 294 294 293 293 293
325 324 323 321 319 316 314 312 310 310 309 308 307 307 307 306 306 305 305 306 306 305 305 304 304 303 302 302 301 301 300 299 298 296 295 294 294 294 294 294 293 293
324 323 322 320 318 315 313 311 309 309 308 307 306 306 306 306 305 305 304 305 305 305 304 304 303 303 302 301 301 300 299 299 298 296 294 294 294 294 294 294 294 293
323 322 320 318 316 314 312 310 309 308 308 307 306 305 305 305 305 304 304 304 304 304 303 303 302 302 301 301 300 300 299 298 297 296 295 294 295 295 295 294 294 294
321 320 319 317 315 312 311 309 308 308 307 306 305 305 305 304 304 304 303 304 303 303 303 302 302 301 301 301 300 300 299 298 297 295 295 295 295 295 295 294 294 294
320 318 317 315 313 311 310 308 307 307 306 305 305 305 304 304 303 303 303 303 303 303 303 302 302 301 301 301 300 300 299 297 296 295 295 295 295 295 295 295 294 294
319 317 315 313 311 310 309 308 307 306 305 304 304 304 304 303 303 303 302 303 303 303 302 302 302 301 301 301 300 300 299 297 296 295 295 295 295 295 295 295 294 294
317 315 313 312 310 309 308 307 306 305 304 304 303 303 302 303 303 303 302 302 302 303 302 302 302 301 301 301 300 300 298 297 297 296 296 295 295 295 295 295 294 294
315 313 312 310 309 308 307 306 306 305 304 303 303 302 302 302 302 302 303 302 302 302 302 302 302 301 301 301 300 300 299 298 298 297 296 296 296 296 296 295 295 295
313 312 311 309 308 307 307 306 305 304 303 303 302 301 300 300 300 302 302 303 302 302 302 302 302 301 301 300 300 300 299 298 298 298 297 297 296 296 296 296 295 295
311 310 309 308 308 307 306 305 304 303 303 302 302 301 298 297 298 300 302 302 302 302 302 302 302 301 301 300 300 299 299 299 299 298 298 297 296 296 296 296 295 295
310 309 309 308 308 307 305 304 303 303 303 302 302 300 296 293 295 298 301 302 302 302 302 302 302 301 301 300 300 299 299 299 298 298 298 297 297 296 296 296 295 295
309 309 308 308 307 306 304 303 303 303 302 302 302 298 294 292 294 297 300 302 302 302 302 302 302 301 301 300 299 299 299 298 298 298 298 297 297 296 296 296 296 295
309 308 307 307 306 304 303 303 303 302 302 302 299 295 293 293 295 297 300 301 302 302 302 301 301 301 300 299 299 299 298 298 298 298 298 297 297 297 296 296 296 295
308 307 306 306 305 303 303 302 302 302 302 300 296 293 293 294 296 297 300 301 301 301 301 301 301 300 300 299 299 299 299 299 298 297 297 297 297 297 297 296 296 295
307 307 306 305 304 303 303 302 302 302 301 299 295 293 294 295 296 298 299 300 300 301 301 301 300 300 300 300 300 299 299 299 298 297 297 297 297 297 297 297 296 296
307 306 305 304 304 303 303 302 302 302 301 298 294 293 294 295 296 297 298 299 300 300 300 300 300 300 300 300 299 299 299 299 298 298 297 297 297 297 297 297 296 296
306 305 305 304 304 303 303 302 302 301 301 298 294 293 294 295 296 297 298 298 299 299 299 299 299 299 299 299 299 298 298 298 298 298 298 297 297 297 297 296 296 296
306 305 305 304 303 303 302 302 301 301 299 296 293 293 294 295 296 297 297 298 298 298 299 298 298 298 298 298 298 298 298 297 297 297 297 297 297 297 297 296 296 295
305 305 304 304 303 302 302 301 301 300 298 294 292 293 294 295 295 296 296 297 297 298 298 297 298 298 298 297 297 296 295 294 294 294 295 296 297 297 297 296 296 295
305 304 304 303 302 302 301 301 301 299 295 293 292 293 293 294 294 295 295 296 296 297 297 297 296 296 295 294 293 291 291 290 290 291 294 296 296 297 296 296 295 294
305 304 304 303 302 301 301 301 300 297 293 292 292 292 292 292 292 292 293 293 293 294 294 293 292 292 291 290 290 289 290 289 290 292 295 296 296 296 296 294 293 293
305 305 304 303 302 302 302 301 298 295 292 291 291 291 291 291 291 290 290 290 291 291 291 290 290 290 289 289 289 289 290 290 291 293 295 295 295 295 294 294 293 293
305 305 304 303 302 302 302 300 297 294 292 291 291 290 290 290 290 290 290 290 290 290 290 290 290 290 289 289 290 290 291 292 292 293 294 295 295 294 294 293 293 293
305 305 304 304 303 302 302 301 297 294 292 292 292 291 290 290 290 290 290 291 291 290 290 290 290 290 290 290 290 291 292 293 293 293 293 293 294 293 293 293 293 294

ECMWFNIL_925_thetae_105.txt.gz
Theta_e
328 327 326 324 323 322 320 319 318 317 315 313 312 311 310 310 310 310 309 308 307 306 305 304 303 302 301 300 299 296 294 294 294 294 294 293 293 293 293 293 293 295
328 327 326 324 322 320 319 318 317 315 313 312 311 310 310 309 309 308 308 307 306 305 304 303 302 302 301 300 298 296 294 294 294 294 294 294 294 294 293 293 293 294
328 327 325 323 321 319 318 317 315 314 313 311 310 309 308 308 307 308 307 306 305 304 303 303 302 301 300 299 298 296 295 294 295 294 294 294 294 294 294 293 294 295
327 326 324 322 321 320 318 315 314 313 312 311 309 308 307 307 306 307 306 305 305 304 303 302 302 301 300 299 298 296 295 295 295 295 295 295 295 294 294 294 294 295
327 324 322 321 321 319 316 314 314 312 311 310 308 307 307 306 305 306 306 305 304 304 303 302 302 301 299 299 298 296 295 295 295 296 296 297 296 295 295 295 295 295
324 322 321 321 319 317 315 314 313 311 310 309 307 306 306 305 305 305 305 305 304 304 303 302 301 300 299 299 298 296 296 296 296 297 297 297 296 295 296 296 296 295
322 321 321 319 317 315 315 314 311 310 310 308 306 305 305 305 305 304 304 304 304 303 302 301 301 300 300 299 297 296 296 296 297 298 297 297 297 296 296 296 296 295
322 321 319 317 316 315 314 313 310 309 309 307 305 305 305 304 304 304 304 304 303 302 302 301 301 300 300 298 296 296 296 296 297 298 297 298 297 297 297 297 296 296
321 320 318 316 315 314 313 311 309 309 309 307 305 305 304 304 303 303 303 303 303 302 302 301 301 300 300 298 296 296 296 296 297 298 298 298 298 297 297 297 296 296
320 318 316 315 314 312 311 310 309 309 308 305 304 305 304 303 303 303 303 303 302 302 302 301 301 301 300 299 297 298 298 297 298 298 298 298 298 297 297 297 296 296
318 316 315 314 313 311 310 309 308 308 306 304 304 304 303 303 303 302 303 303 302 302 302 301 301 300 300 299 298 298 298 298 298 298 298 298 298 297 297 297 297 296
316 314 313 312 311 310 309 308 308 307 305 303 303 303 302 303 303 302 302 302 302 302 302 301 301 301 300 300 298 298 298 298 298 299 298 298 298 298 297 297 297 297
314 313 312 311 310 309 308 307 307 306 304 303 303 302 302 302 302 303 302 302 302 302 302 302 301 301 300 300 299 299 299 299 298 299 298 298 298 298 297 297 297 297
312 311 310 310 309 308 307 307 306 305 304 303 303 301 300 300 301 302 302 302 302 302 302 302 301 301 300 300 299 299 299 299 299 299 299 298 298 298 298 297 297 297
311 310 309 309 308 307 307 306 305 304 303 302 302 300 298 298 300 301 302 302 302 302 302 301 301 301 300 300 299 299 300 300 299 299 299 298 298 298 298 298 297 297
310 309 308 308 307 306 306 305 304 303 302 302 301 298 295 295 298 300 302 302 302 302 302 302 301 301 300 300 299 299 299 299 299 299 299 299 299 298 298 298 298 297
309 308 307 307 306 306 305 304 303 302 302 301 299 295 293 293 296 299 301 302 302 302 302 302 301 301 300 299 298 299 299 299 299 299 298 299 299 299 299 298 298 298
308 307 307 306 306 306 305 304 303 302 302 300 296 293 293 294 296 299 301 302 302 302 302 301 301 300 299 299 299 299 299 299 299 299 298 299 299 299 299 298 298 298
307 306 306 306 307 306 304 303 302 302 302 300 295 293 293 294 296 299 301 301 301 301 301 301 300 300 299 299 299 299 299 299 299 298 298 299 299 299 298 298 298 298
307 306 306 306 306 304 303 302 302 302 302 299 295 293 294 295 297 299 300 301 301 301 301 300 300 300 299 299 299 299 298 298 298 298 298 298 298 298 297 297 297 296
306 306 306 306 304 302 302 302 302 302 301 298 294 293 294 295 297 299 299 300 300 300 300 299 299 299 298 298 298 298 298 297 297 296 297 297 297 297 297 296 295 294
305 305 305 304 303 302 302 303 302 300 299 297 294 294 294 296 297 298 299 299 299 299 299 298 298 298 298 298 297 296 295 293 293 294 295 296 297 297 296 296 294 293
305 305 304 304 302 302 302 302 301 299 299 297 294 294 295 296 297 297 298 298 298 298 298 298 298 297 296 295 293 292 291 290 291 294 296 296 297 296 296 295 293 293
306 306 305 304 302 301 302 301 300 300 300 297 293 294 295 296 296 297 297 297 298 298 297 297 296 294 292 290 290 289 289 290 292 295 297 297 296 296 295 294 293 293
306 306 306 304 303 303 303 302 301 300 299 295 293 293 294 295 296 296 296 296 297 296 296 293 291 290 289 289 289 290 290 291 294 296 296 296 296 295 294 294 293 294
306 305 305 304 303 303 302 301 301 300 297 293 292 293 294 294 295 295 295 295 294 294 292 290 289 289 290 290 290 290 291 292 295 296 296 296 296 295 295 295 294 295

ECMWFNIL_925_thetae_108.txt.gz
Theta_e
331 329 328 327 327 325 324 322 321 320 320 319 319 318 317 315 314 313 313 312 311 310 309 308 307 306 305 303 303 303 303 303 303 303 303 303 303 304 304 304 303 303
330 328 327 327 327 325 323 321 321 320 318 318 317 316 315 314 314 313 313 312 311 310 309 308 306 305 304 303 303 303 302 302 303 302 302 302 302 303 303 303 303 302
328 327 327 327 327 324 322 321 320 317 316 316 316 315 314 314 314 313 312 311 310 309 308 307 306 305 304 303 303 303 303 303 303 302 302 302 302 302 303 302 302 302
328 327 326 327 325 322 321 321 319 315 315 316 315 314 313 313 313 312 311 310 310 309 308 307 306 305 304 303 303 303 303 302 302 302 302 302 301 302 302 302 301 301
327 326 325 326 324 321 321 320 317 314 315 315 314 312 312 312 312 311 311 310 309 308 307 307 305 304 304 303 303 303 302 302 302 302 302 302 301 301 301 301 301 301
326 324 324 324 322 321 320 317 315 315 315 314 312 312 312 312 311 311 310 310 309 308 307 306 305 305 304 303 303 303 303 302 302 301 301 302 301 301 301 301 300 301
325 324 324 323 321 321 319 315 314 315 314 313 312 311 311 311 310 310 310 309 308 308 307 306 305 305 304 304 303 303 303 302 302 301 301 301 301 301 300 300 300 300
325 324 323 322 321 319 316 314 314 315 314 313 311 310 310 310 310 309 309 309 308 307 306 306 305 305 304 303 303 303 303 302 302 301 302 302 301 301 300 300 300 300
324 322 321 321 320 317 315 314 314 314 313 312 311 310 310 309 309 309 309 308 307 307 306 305 305 305 304 303 302 302 302 302 302 302 302 302 301 301 300 300 300 300
323 322 321 321 318 315 314 314 314 313 313 312 310 309 309 309 309 308 308 308 307 307 306 305 305 305 303 302 302 302 302 302 302 302 302 302 301 301 301 300 300 300
322 321 320 318 316 315 315 314 313 313 312 311 309 309 309 309 308 307 307 307 307 307 306 305 305 305 303 302 302 302 302 302 302 302 302 302 301 301 301 301 300 300
320 319 317 316 316 315 314 313 312 312 311 310 309 308 308 308 307 307 307 307 307 306 306 305 305 304 304 303 303 302 302 302 302 302 302 302 301 301 301 301 301 300
318 317 316 316 316 314 313 312 312 312 311 309 308 308 307 307 307 307 307 307 306 306 306 305 305 304 304 303 303 303 303 303 302 302 302 302 302 301 301 301 301 301
318 318 317 316 315 314 313 311 311 311 310 308 308 307 307 307 307 307 307 307 306 306 306 305 305 305 304 303 303 303 303 303 303 302 302 302 302 301 301 301 301 301
318 317 316 315 314 313 311 310 310 310 308 307 307 307 306 306 306 307 307 307 306 306 306 305 305 305 304 304 303 303 303 303 303 303 302 302 302 302 302 301 301 301
317 316 315 314 313 311 310 309 308 308 307 306 306 306 306 306 306 306 306 306 306 306 306 305 305 305 304 303 303 303 303 303 303 303 303 303 302 302 302 301 301 301
315 314 313 312 311 310 309 308 307 307 306 305 304 304 304 305 305 305 305 305 305 305 305 305 306 305 303 302 301 302 303 303 303 303 303 303 302 302 303 302 302 302
314 313 312 312 310 309 308 308 307 306 304 304 303 302 301 301 300 301 304 305 305 305 305 305 306 304 301 300 300 300 302 303 303 303 303 303 303 303 302 302 302 301
313 312 311 310 309 308 308 307 306 305 304 303 303 302 299 296 293 297 303 305 305 305 305 306 305 303 300 300 299 299 300 303 303 303 302 303 303 302 302 302 302 301
312 311 310 309 308 308 307 306 304 304 303 303 303 301 296 293 294 299 303 305 304 305 305 305 304 302 300 300 299 299 299 300 302 303 302 302 302 302 302 302 301 301
311 310 309 308 307 307 306 305 304 303 302 302 303 299 295 295 299 302 304 304 304 305 305 305 303 301 300 300 300 300 299 299 302 302 301 302 302 301 302 302 300 299
311 310 309 308 307 306 305 304 303 302 302 302 302 300 298 299 301 303 303 304 304 304 305 304 302 300 300 300 299 299 298 299 301 301 300 301 301 301 301 301 299 299
311 310 309 308 306 305 305 304 304 304 304 303 302 301 301 301 302 303 303 303 304 304 304 303 301 300 299 299 298 298 298 298 299 299 299 300 301 301 301 300 298 298
310 310 308 308 307 306 305 305 305 304 304 303 302 302 301 301 302 302 302 302 303 303 303 302 300 299 299 298 298 297 296 297 297 298 299 301 301 300 300 299 297 295
310 309 309 308 307 306 305 304 304 304 303 302 302 301 301 300 300 301 301 302 302 302 302 301 300 299 298 298 297 294 293 296 298 299 300 301 300 300 299 299 297 295
310 309 309 308 307 305 304 304 304 303 302 302 301 300 300 299 299 300 301 301 302 302 301 300 300 299 297 295 293 290 291 296 300 299 300 301 300 299 299 298 298 297

ECMWFNIL_925_thetae_114.txt.gz
Theta_e
336 335 334 333 332 331 330 329 329 328 327 326 326 324 323 322 321 320 319 317 316 314 312 311 309 309 309 309 309 309 308 308 308 309 308 308 309 309 308 308 308 308
336 335 334 333 332 331 330 329 329 328 327 326 325 324 323 322 320 319 318 316 314 313 311 310 309 309 309 309 308 307 306 306 307 307 307 307 308 308 307 307 307 307
336 335 334 333 332 331 329 329 328 327 327 326 324 323 322 321 319 318 317 315 313 312 310 309 309 309 309 308 307 306 306 307 307 308 308 308 307 307 307 307 306 306
336 334 334 333 331 330 329 329 328 327 327 325 324 323 321 320 318 317 316 314 313 311 310 309 309 308 309 308 307 307 307 307 307 307 307 307 307 307 307 306 306 306
335 334 334 333 331 330 329 328 328 327 326 324 323 323 321 319 318 317 315 314 312 311 310 309 308 308 308 308 307 307 307 307 307 307 307 307 306 306 306 306 306 306
335 334 333 332 331 330 329 328 328 326 325 323 323 323 321 318 317 316 315 314 312 311 310 309 308 308 308 308 307 307 307 307 307 307 306 306 306 306 306 306 306 306
335 334 333 332 331 330 328 328 327 325 323 323 322 321 319 317 317 316 315 313 312 311 310 309 308 308 308 308 308 307 307 307 307 306 306 306 306 306 305 305 305 305
334 333 332 331 331 329 328 327 325 323 322 321 321 320 319 317 316 315 314 313 312 311 310 309 309 308 308 308 308 307 307 307 307 306 306 305 305 305 305 305 304 304
333 332 331 330 330 328 327 325 323 322 321 320 320 319 318 317 316 315 313 312 311 311 309 309 309 308 308 308 308 307 306 307 307 306 306 305 305 305 305 305 305 305
333 332 331 329 328 326 325 323 322 322 321 319 318 318 317 316 315 314 313 312 311 310 309 309 308 308 308 308 307 307 307 307 306 306 306 305 304 304 304 305 305 305
332 331 330 328 326 325 323 323 322 321 320 318 317 316 316 316 315 314 312 311 310 310 309 309 309 308 308 308 307 307 307 307 306 306 306 305 304 304 305 305 305 305
330 329 328 326 324 324 323 322 322 320 319 318 316 315 316 315 314 313 312 311 310 309 309 309 308 308 308 307 307 307 307 306 306 306 306 305 305 304 305 305 305 305
329 328 326 325 323 323 322 321 321 320 318 317 315 315 315 314 313 313 312 311 310 309 309 309 308 307 307 307 307 307 306 306 306 306 306 305 304 305 305 304 305 305
328 327 325 324 323 322 321 321 320 319 318 316 315 315 315 314 313 312 311 311 310 309 309 308 307 307 306 306 307 307 306 307 306 306 305 305 305 305 305 304 305 304
326 325 324 323 322 321 321 321 319 319 317 315 315 315 314 313 312 312 311 310 309 309 309 308 307 306 305 306 306 306 306 307 306 306 305 305 305 305 304 305 305 304
325 323 323 322 321 321 321 320 319 318 316 315 314 314 313 312 312 311 310 310 309 309 308 308 307 306 306 306 306 306 306 306 306 306 306 306 305 305 305 305 305 304
324 323 322 321 321 321 320 320 319 317 315 314 314 313 312 312 311 310 310 309 309 308 308 307 306 306 306 305 305 306 306 306 306 306 306 306 306 305 305 305 305 304
324 322 321 321 321 321 320 319 319 317 314 313 313 312 311 311 310 309 309 310 309 308 307 307 306 306 306 305 306 306 306 307 307 306 306 306 306 306 305 305 305 305
323 322 321 321 320 320 319 319 319 316 314 313 312 311 310 310 309 309 309 309 307 307 307 307 306 306 306 305 306 306 307 307 307 306 306 307 306 306 306 306 305 305
323 322 321 320 320 320 319 319 317 315 313 312 311 310 309 309 309 308 308 308 307 307 308 308 307 307 306 305 305 306 306 307 307 307 306 307 307 306 307 307 306 305
323 322 320 319 319 319 319 318 316 314 313 312 310 309 309 308 308 307 307 306 307 309 308 308 308 308 307 306 305 305 306 306 307 307 306 306 307 306 306 306 305 305
322 321 319 319 318 318 318 317 315 313 312 311 310 309 309 308 307 306 306 306 308 308 307 308 309 308 307 306 305 304 305 305 306 306 305 306 307 306 305 305 305 305
322 320 319 318 318 317 317 315 314 313 311 310 310 309 308 308 307 307 307 307 307 307 307 308 309 308 307 306 304 303 304 305 305 306 306 306 306 305 304 305 305 304
323 321 321 320 318 317 316 315 314 312 311 309 308 307 306 306 305 305 306 305 305 306 308 308 308 308 308 305 301 300 303 304 303 305 306 305 304 304 304 304 305 304
323 322 321 320 318 316 315 314 313 311 310 308 307 305 304 303 303 303 303 303 305 306 308 309 308 308 307 304 299 298 301 303 303 303 304 303 303 304 304 304 305 304
322 319 319 318 316 315 314 313 312 310 309 307 306 305 303 302 302 302 303 304 306 307 308 308 308 307 305 302 299 297 299 302 302 302 302 302 303 304 304 304 304 304

ECMWFNIL_925_thetae_117.txt.gz
Theta_e
338 337 335 334 333 332 331 330 329 328 327 326 325 324 324 323 321 320 318 317 316 315 312 310 310 310 310 310 310 310 310 310 310 309 308 308 308 307 307 306 306 305
337 336 335 334 333 331 330 330 329 328 327 326 325 324 323 323 321 319 318 317 315 314 311 310 309 309 309 309 308 308 308 308 308 307 307 307 307 306 305 305 304 304
337 335 334 333 332 331 330 329 328 327 327 326 325 324 323 322 320 319 317 316 314 312 310 309 309 309 308 308 306 306 306 306 306 306 305 305 305 305 305 304 303 303
337 335 334 333 332 331 330 329 328 327 326 326 324 324 323 321 319 318 316 316 313 311 309 309 309 308 307 306 305 306 306 306 306 304 304 304 304 305 305 304 303 301
336 335 333 332 332 331 330 329 328 327 326 325 324 323 322 320 319 317 316 314 312 310 309 309 308 307 306 306 305 306 306 306 306 304 303 304 304 304 304 303 302 303
336 335 333 332 331 330 330 329 328 327 326 325 323 322 321 319 318 317 315 313 311 309 309 309 308 307 307 306 305 305 305 305 305 304 303 303 304 304 305 305 305 305
336 334 333 332 331 330 329 328 327 327 326 324 323 321 320 319 318 316 314 313 310 309 309 308 308 307 307 306 305 306 306 305 304 303 303 304 305 305 306 306 306 305
335 334 333 332 330 329 328 328 327 326 325 324 322 321 320 318 317 316 314 313 310 309 308 308 308 307 306 306 305 306 306 305 304 303 304 305 305 305 305 304 305 304
335 334 333 331 330 329 328 327 327 325 324 324 322 320 318 318 317 316 314 312 311 309 308 308 308 307 306 307 306 306 306 306 305 303 304 305 305 304 304 304 304 303
335 334 332 331 330 329 328 327 326 325 324 323 322 320 318 317 316 315 314 312 310 309 308 308 307 307 307 308 306 306 307 306 305 304 304 305 304 304 304 304 304 304
335 333 332 330 329 328 328 327 326 325 324 323 321 319 318 317 316 315 313 312 311 309 308 308 307 307 308 307 306 306 307 306 305 305 305 304 304 304 304 304 304 305
334 333 331 330 329 327 327 326 325 324 323 322 320 319 318 316 316 314 313 312 311 309 309 308 307 308 308 307 306 306 307 306 306 305 304 304 304 304 304 304 304 305
333 332 331 329 328 327 326 325 324 323 322 321 320 318 317 316 315 314 312 311 310 309 309 308 307 308 308 306 306 307 306 306 306 305 305 304 304 304 305 304 305 305
332 331 330 328 327 326 325 324 322 321 320 320 319 317 316 316 315 313 312 311 310 309 309 308 307 308 307 306 307 307 306 306 306 306 305 304 304 305 304 304 305 304
331 330 328 327 326 325 324 322 321 320 319 319 318 316 316 315 314 313 312 311 310 309 309 308 308 307 307 307 307 306 306 306 306 306 305 304 304 304 304 304 304 304
330 328 327 326 325 324 323 321 320 319 319 318 316 316 315 315 314 312 311 310 310 309 309 308 307 307 307 306 305 305 306 306 306 305 305 304 305 304 304 304 304 304
328 327 326 325 324 323 322 321 320 318 318 317 316 315 315 314 313 312 311 310 310 309 309 308 307 307 305 304 305 306 306 306 305 305 305 305 305 304 304 304 304 304
327 326 325 324 323 322 322 321 319 318 317 316 315 315 315 314 313 312 311 310 309 309 308 307 307 305 303 304 306 306 306 306 306 305 305 305 305 304 304 304 304 304
327 326 324 323 322 322 321 320 319 317 316 315 315 315 314 313 312 312 311 310 309 309 308 307 306 304 303 305 306 305 306 306 306 306 306 305 305 305 304 304 304 305
326 325 324 323 322 321 320 320 318 316 315 315 315 314 313 312 312 311 311 310 309 308 308 307 306 304 304 306 305 305 306 306 306 306 306 305 305 306 305 305 305 305
325 324 323 322 321 321 320 319 318 316 315 314 314 314 313 312 311 311 310 309 309 308 308 307 306 305 306 305 305 306 306 306 306 306 306 306 306 306 306 306 305 305
324 323 322 321 321 320 320 319 317 315 314 314 314 313 312 311 311 310 310 309 308 308 307 306 306 306 306 305 305 306 306 306 307 306 306 306 306 306 306 306 305 305
323 322 322 321 321 320 320 319 316 314 313 313 313 312 311 310 310 309 309 309 308 307 306 306 306 306 306 305 305 306 306 306 307 306 305 306 306 306 306 306 306 305
323 322 322 321 320 320 320 318 315 314 313 313 312 311 310 310 310 309 309 308 307 307 307 307 307 307 306 306 305 305 305 306 306 306 305 306 306 306 306 306 305 305
323 322 322 321 320 320 319 317 314 313 313 312 311 310 310 309 309 308 308 308 308 308 308 307 307 307 307 307 306 306 305 305 306 306 305 306 306 306 306 305 305 305
323 322 321 321 320 319 318 316 314 312 312 311 310 310 309 309 308 307 307 306 307 308 308 307 307 308 308 307 307 306 305 305 305 306 305 305 305 304 304 304 304 304

ECMWFNIL_925_thetae_120.txt.gz
Theta_e
337 336 336 335 335 334 333 332 331 330 329 328 326 325 324 322 322 321 320 319 318 317 315 314 314 312 310 311 312 313 313 314 314 312 311 311 310 310 310 309 309 308
337 336 336 335 334 334 333 332 331 330 329 327 326 325 323 322 321 320 319 318 317 316 314 313 312 311 309 309 311 312 312 312 311 310 310 309 309 308 308 307 307 307
337 336 335 335 334 333 332 331 331 330 329 327 326 324 323 322 321 321 319 318 317 315 313 312 311 310 309 309 310 311 311 310 310 309 308 308 307 306 306 305 305 305
337 336 335 335 334 333 332 331 330 329 329 327 326 324 323 322 321 320 319 318 317 315 313 311 310 310 309 309 309 310 310 309 308 308 307 306 306 305 304 304 303 303
337 336 335 335 334 333 332 331 330 329 328 327 326 324 323 322 321 320 318 317 317 316 312 310 310 309 309 308 308 308 308 308 307 306 306 305 304 303 303 302 302 302
337 336 335 334 334 332 331 331 330 329 328 326 326 324 323 322 321 319 318 317 316 315 311 309 309 309 308 307 307 307 306 306 306 305 305 305 304 303 302 301 302 302
337 335 335 334 333 332 331 331 330 329 327 326 325 324 323 322 321 319 318 317 315 313 310 309 309 308 307 306 306 306 305 305 305 305 304 304 303 303 303 303 303 303
336 335 334 333 332 332 331 330 329 328 327 326 324 323 322 321 320 319 317 316 314 311 309 308 308 307 306 306 306 306 306 305 305 304 304 304 304 304 305 304 304 304
336 334 333 333 332 331 330 329 329 328 326 326 324 323 322 321 320 318 316 315 313 310 309 308 308 307 306 306 306 306 306 305 304 303 304 305 306 306 306 305 304 304
336 334 333 332 331 330 330 329 328 327 326 325 324 323 322 320 319 317 316 314 312 310 309 308 308 307 306 306 306 305 305 304 304 303 304 306 305 305 305 304 304 304
336 334 332 332 331 330 329 328 328 327 325 324 323 322 321 319 318 317 315 314 312 310 308 308 308 307 306 306 306 306 305 304 303 304 305 305 304 304 303 303 303 304
335 334 332 331 331 330 329 328 327 326 325 324 323 322 320 319 317 316 315 313 312 310 308 308 308 307 306 306 306 306 305 304 303 304 305 304 304 304 303 302 303 304
335 333 332 331 330 329 328 328 327 326 325 323 322 322 320 318 317 316 315 314 312 310 308 308 307 306 306 306 306 306 306 304 304 305 304 304 304 304 303 303 304 305
335 333 332 331 330 329 328 327 326 325 325 323 322 321 320 318 317 316 315 314 312 310 309 308 307 307 307 307 306 306 306 305 304 304 304 303 304 304 304 304 304 305
334 333 332 330 329 328 327 326 325 324 324 323 321 320 319 318 317 316 315 313 312 310 309 308 307 307 308 306 306 306 306 305 305 304 304 304 304 304 304 304 304 304
334 333 331 330 328 327 327 326 324 324 323 321 320 319 319 318 317 316 314 313 311 310 309 308 307 307 308 306 306 306 306 305 305 304 304 304 304 304 304 304 304 304
334 332 330 329 327 326 326 325 324 323 322 321 320 319 318 318 316 315 314 313 311 310 309 308 307 307 308 306 306 306 306 305 305 305 304 304 304 304 304 304 303 304
333 331 329 328 327 326 325 324 323 323 321 320 319 319 318 317 316 315 313 312 311 310 309 308 307 307 307 306 306 306 305 305 305 305 304 304 304 304 304 304 304 304
332 330 328 327 326 325 324 323 323 322 321 319 318 318 317 316 315 314 313 312 311 310 309 308 308 307 307 307 307 306 305 305 306 305 305 304 304 304 304 304 303 304
331 329 328 327 326 325 324 322 322 321 320 319 318 317 316 315 314 314 313 311 310 309 309 309 308 307 307 307 306 305 305 306 306 305 304 304 304 304 304 304 304 304
330 329 327 326 325 324 323 322 321 320 319 318 317 316 315 315 314 314 313 311 310 309 309 309 308 307 307 306 305 305 306 306 306 305 305 305 305 304 304 304 303 304
329 328 326 325 324 322 322 321 320 319 318 317 316 315 315 314 314 313 312 311 310 309 309 308 308 307 306 304 304 305 306 306 305 306 305 305 305 305 305 305 304 304
328 327 326 324 322 321 321 320 319 318 317 316 315 314 314 313 313 313 312 311 310 309 309 308 307 307 305 304 304 305 306 305 306 306 306 306 305 305 305 305 305 305
328 327 326 323 321 321 321 320 319 317 316 315 315 315 314 313 313 312 311 311 310 309 309 308 307 306 305 304 305 305 305 305 306 306 306 305 305 306 306 306 306 306
328 326 325 323 320 321 321 320 319 317 315 315 315 314 313 312 312 312 311 310 310 309 308 308 307 307 306 305 305 305 305 306 306 306 306 305 305 306 306 306 306 305
327 326 324 321 320 321 321 320 318 316 315 314 314 313 313 312 312 311 310 310 309 309 308 308 308 307 306 305 305 305 305 306 306 306 305 304 305 306 306 305 305 305

ECMWFNIL_925_thetae_123.txt.gz
Theta_e
338 337 337 337 337 337 337 337 336 335 334 332 331 331 330 328 327 326 325 324 323 322 321 320 320 320 320 320 319 319 318 318 318 317 315 313 312 312 311 310 310 310
337 337 337 337 337 337 337 336 336 336 334 333 332 331 329 327 326 325 324 323 322 321 320 319 318 318 317 317 315 315 315 316 316 315 313 312 312 311 311 310 310 309
337 337 336 337 336 336 336 335 335 335 334 332 332 330 329 327 325 324 323 323 322 320 319 318 317 316 315 314 312 312 313 313 314 313 312 312 311 311 310 310 309 308
337 337 336 336 336 336 335 333 333 333 333 332 331 330 328 326 325 324 323 322 321 320 318 317 315 314 313 312 310 310 311 312 312 312 311 310 310 309 309 308 307 307
337 336 336 336 336 335 334 333 332 331 331 331 330 329 327 326 324 323 322 321 320 319 318 316 314 313 312 311 310 310 310 311 311 310 309 309 308 308 307 306 306 305
337 336 336 336 336 335 334 333 332 331 331 330 330 328 326 325 324 323 322 321 320 319 317 316 314 312 311 311 310 309 310 310 309 309 308 307 306 306 305 305 304 304
336 336 336 335 335 334 334 333 332 331 330 330 329 328 326 324 323 323 323 322 320 319 317 316 313 312 310 310 309 309 309 309 308 308 307 306 305 305 304 303 303 303
336 336 335 335 334 334 334 333 332 331 330 330 329 327 326 324 324 323 322 322 320 318 317 315 313 312 310 309 308 308 309 308 307 307 306 305 304 303 302 302 302 303
336 335 335 335 334 334 333 332 331 331 330 330 329 328 326 325 324 323 322 321 319 318 316 315 313 311 309 309 308 307 307 307 307 306 305 304 303 302 302 302 302 303
336 335 335 335 334 333 333 332 331 331 330 329 329 328 326 325 323 323 322 320 318 317 316 314 312 310 309 308 307 306 306 306 306 305 304 304 302 302 302 303 303 303
335 335 335 335 334 333 332 331 331 330 329 328 328 327 326 324 323 322 321 320 318 317 315 313 311 309 308 307 307 306 306 305 305 305 304 303 302 302 303 304 303 303
335 335 334 334 334 333 332 331 330 329 328 328 328 327 326 324 323 322 321 319 318 316 315 313 310 308 308 307 306 306 305 305 304 304 303 303 303 304 304 304 303 303
335 335 334 334 333 333 332 331 330 329 328 328 328 327 325 324 322 322 320 319 318 316 314 312 310 308 307 306 306 306 306 305 305 304 304 304 305 305 305 304 303 303
336 335 334 333 333 332 332 330 329 328 328 328 328 326 325 324 322 321 320 318 317 315 313 311 309 308 307 307 306 305 305 305 304 304 304 305 305 304 304 304 304 304
336 335 334 333 332 331 331 330 328 328 328 328 327 325 324 324 322 321 319 317 315 314 312 311 309 308 307 307 306 305 305 305 304 304 305 304 304 303 303 303 304 304
336 335 333 332 332 331 331 330 328 327 326 326 326 325 324 323 321 320 319 317 315 313 312 310 309 308 307 306 306 305 306 305 304 304 305 304 304 304 303 304 304 304
336 334 333 332 331 330 330 329 328 326 325 324 324 323 323 322 321 319 318 317 315 313 312 310 309 308 307 306 306 306 306 305 304 304 304 304 304 304 304 304 304 304
335 334 332 331 330 329 329 328 327 324 323 323 323 322 322 320 319 318 317 316 315 314 313 311 309 308 307 306 306 306 306 306 305 304 304 304 303 304 304 304 304 304
335 333 332 331 329 329 328 327 326 323 322 323 323 323 321 318 317 318 317 316 315 314 313 311 309 308 307 307 307 306 306 306 305 305 304 303 303 303 304 304 304 304
334 333 331 330 329 328 327 326 325 324 323 323 323 322 319 316 317 318 316 315 315 314 313 311 310 309 307 307 307 306 306 306 306 305 304 303 303 304 304 304 303 303
334 332 331 329 328 328 327 325 325 323 323 322 322 320 318 317 318 318 316 316 316 314 313 311 310 309 307 307 307 306 306 306 306 305 304 304 304 304 304 304 303 303
334 332 330 329 328 327 326 325 324 323 322 321 320 319 318 317 317 317 316 317 315 313 313 311 310 309 308 307 307 306 306 306 305 305 305 304 304 304 304 304 303 303
333 331 329 328 327 327 325 324 323 322 322 321 319 317 316 316 316 316 317 317 315 312 312 311 310 309 308 307 307 306 306 306 305 305 305 304 304 304 304 304 304 303
333 331 329 328 327 327 326 325 324 323 322 320 319 318 317 316 316 315 316 316 314 312 311 310 310 309 308 308 307 307 306 305 305 305 305 304 304 304 304 304 304 304
332 331 329 327 327 327 327 325 323 322 321 319 318 318 317 315 314 315 315 314 313 311 311 310 310 309 308 308 307 307 306 305 305 305 305 304 304 305 304 304 304 304
332 330 328 327 328 329 327 324 323 321 318 317 317 317 316 314 314 314 313 312 311 311 310 310 310 309 308 307 307 306 305 304 305 306 305 305 305 305 305 304 303 304